[[{"header":{"parameterUnit":"m.s-1","parameterCategory":1,"la1":30.6,"la2":28.766,"lo1":-90.7593,"lo2":-88.6598,"dy":0.0162,"dx":0.0183,"nx":116,"ny":114,"refTime":"2023-05-04T12:00:00:Z","depth":0,"parameterNumber":2,"parameterNumberName":"U-component_of_WINDS"},"data":[0.0,0.0,0.0,0.0,0.0,0.0,0.0,0.0,0.0,0.0,0.0,0.0,0.0,0.0,0.0,0.0,0.0,0.0,0.0,0.0,0.0,0.0,0.0,0.0,0.0,0.0,0.0,0.0,0.0,0.0,0.0,0.0,0.0,0.0,0.0,0.0,0.0,0.0,0.0,0.0,0.0,0.0,0.0,0.0,0.0,0.0,0.0,0.0,0.0,0.0,0.0,0.0,0.0,0.0,0.0,0.0,0.0,0.0,0.0,0.0,0.0,0.0,0.0,0.0,0.0,0.0,0.0,0.0,0.0,0.0,0.0,0.0,0.0,0.0,0.0,0.0,0.0,0.0,0.0,0.0,0.0,0.0,0.0,0.0,0.0,0.0,0.0,0.0,0.0,0.0,0.0,0.0,0.0,0.0,0.0,0.0,0.0,0.0,0.0,0.0,0.0,0.0,0.0,0.0,0.0,0.0,0.0,0.0,0.0,0.0,0.0,0.0,0.0,0.0,0.0,0.0,0.0,0.0,0.0,0.0,0.0,0.0,0.0,0.0,0.0,0.0,0.0,0.0,0.0,0.0,0.0,0.0,0.0,0.0,0.0,0.0,0.0,0.0,0.0,0.0,0.0,0.0,0.0,0.0,0.0,0.0,0.0,0.0,0.0,0.0,0.0,0.0,0.0,0.0,0.0,0.0,0.0,0.0,0.0,0.0,0.0,0.0,0.0,0.0,0.0,0.0,0.0,0.0,0.0,0.0,0.0,0.0,0.0,0.0,0.0,0.0,0.0,0.0,0.0,0.0,0.0,0.0,0.0,0.0,0.0,0.0,0.0,0.0,0.0,0.0,0.0,0.0,0.0,0.0,0.0,0.0,0.0,0.0,0.0,0.0,0.0,0.0,0.0,0.0,0.0,0.0,0.0,0.0,0.0,0.0,0.0,0.0,0.0,0.0,0.0,0.0,0.0,0.0,0.0,0.0,0.0,0.0,0.0,0.0,0.0,0.0,0.0,0.0,0.0,0.0,0.0,0.0,0.0,0.0,0.0,0.0,0.0,0.0,0.0,0.0,0.0,0.0,0.0,0.0,0.0,0.0,0.0,0.0,0.0,0.0,0.0,0.0,0.0,0.0,0.0,0.0,0.0,0.0,0.0,0.0,0.0,0.0,0.0,0.0,0.0,0.0,0.0,0.0,0.0,0.0,0.0,0.0,0.0,0.0,0.0,0.0,0.0,0.0,0.0,0.0,0.0,0.0,0.0,0.0,0.0,0.0,0.0,0.0,0.0,0.0,0.0,0.0,0.0,0.0,0.0,0.0,0.0,0.0,0.0,0.0,0.0,0.0,0.0,0.0,0.0,0.0,0.0,0.0,0.0,0.0,0.0,0.0,0.0,0.0,0.0,0.0,0.0,0.0,0.0,0.0,0.0,0.0,0.0,0.0,0.0,0.0,0.0,0.0,0.0,0.0,0.0,0.0,0.0,0.0,0.0,0.0,0.0,0.0,0.0,0.0,0.0,0.0,0.0,0.0,0.0,0.0,0.0,0.0,0.0,0.0,0.0,0.0,0.0,0.0,0.0,0.0,0.0,0.0,0.0,0.0,0.0,0.0,0.0,0.0,0.0,0.0,0.0,0.0,0.0,0.0,0.0,0.0,0.0,0.0,0.0,0.0,0.0,0.0,0.0,0.0,0.0,0.0,0.0,0.0,0.0,0.0,0.0,0.0,0.0,0.0,0.0,0.0,0.0,0.0,0.0,0.0,0.0,0.0,0.0,0.0,0.0,0.0,0.0,0.0,0.0,0.0,0.0,0.0,0.0,0.0,0.0,0.0,0.0,0.0,0.0,0.0,0.0,0.0,0.0,0.0,0.0,0.0,0.0,0.0,0.0,0.0,0.0,0.0,0.0,0.0,0.0,0.0,0.0,0.0,0.0,0.0,0.0,0.0,0.0,0.0,0.0,0.0,0.0,0.0,0.0,0.0,0.0,0.0,0.0,0.0,0.0,0.0,0.0,0.0,0.0,0.0,0.0,0.0,0.0,0.0,0.0,0.0,0.0,0.0,0.0,0.0,0.0,0.0,0.0,0.0,0.0,0.0,0.0,0.0,0.0,0.0,0.0,0.0,0.0,0.0,0.0,0.0,0.0,0.0,0.0,0.0,0.0,0.0,0.0,0.0,0.0,0.0,0.0,0.0,0.0,0.0,0.0,0.0,0.0,0.0,0.0,0.0,0.0,0.0,0.0,0.0,0.0,0.0,0.0,0.0,0.0,0.0,0.0,0.0,0.0,0.0,0.0,0.0,0.0,0.0,0.0,0.0,0.0,0.0,0.0,0.0,0.0,0.0,0.0,0.0,0.0,0.0,0.0,0.0,0.0,0.0,0.0,0.0,0.0,0.0,0.0,0.0,0.0,0.0,0.0,0.0,0.0,0.0,0.0,0.0,0.0,0.0,0.0,0.0,0.0,0.0,0.0,0.0,0.0,0.0,0.0,0.0,0.0,0.0,0.0,0.0,0.0,0.0,0.0,0.0,0.0,0.0,0.0,0.0,0.0,0.0,0.0,0.0,0.0,0.0,0.0,0.0,0.0,0.0,0.0,0.0,0.0,0.0,0.0,0.0,0.0,0.0,0.0,0.0,0.0,0.0,0.0,0.0,0.0,0.0,0.0,0.0,0.0,0.0,0.0,0.0,0.0,0.0,0.0,0.0,0.0,0.0,0.0,0.0,0.0,0.0,0.0,0.0,0.0,0.0,0.0,0.0,0.0,0.0,0.0,0.0,0.0,0.0,0.0,0.0,0.0,0.0,0.0,0.0,0.0,0.0,0.0,0.0,0.0,0.0,0.0,0.0,0.0,0.0,0.0,0.0,0.0,0.0,0.0,0.0,0.0,0.0,0.0,0.0,0.0,0.0,0.0,0.0,0.0,0.0,0.0,0.0,0.0,0.0,0.0,0.0,0.0,0.0,0.0,0.0,0.0,0.0,0.0,0.0,0.0,0.0,0.0,0.0,0.0,0.0,0.0,0.0,0.0,0.0,0.0,0.0,0.0,0.0,0.0,0.0,0.0,0.0,0.0,0.0,0.0,0.0,0.0,0.0,0.0,0.0,0.0,0.0,0.0,0.0,0.0,0.0,0.0,0.0,0.0,0.0,0.0,0.0,0.0,0.0,0.0,0.0,0.0,0.0,0.0,0.0,0.0,0.0,0.0,0.0,0.0,0.0,0.0,0.0,0.0,0.0,0.0,0.0,0.0,0.0,0.0,0.0,0.0,0.0,0.0,0.0,0.0,0.0,0.0,0.0,0.0,0.0,0.0,0.0,0.0,0.0,0.0,0.0,0.0,0.0,0.0,0.0,0.0,0.0,0.0,0.0,0.0,0.0,0.0,0.0,0.0,0.0,0.0,0.0,0.0,0.0,0.0,0.0,0.0,0.0,0.0,0.0,0.0,0.0,0.0,0.0,0.0,0.0,0.0,0.0,0.0,0.0,0.0,0.0,0.0,0.0,0.0,0.0,0.0,0.0,0.0,0.0,0.0,0.0,0.0,0.0,0.0,0.0,0.0,0.0,0.0,0.0,0.0,0.0,0.0,0.0,0.0,0.0,0.0,0.0,0.0,0.0,0.0,0.0,0.0,0.0,0.0,0.0,0.0,0.0,0.0,0.0,0.0,0.0,0.0,0.0,0.0,0.0,0.0,0.0,0.0,0.0,0.0,0.0,0.0,0.0,0.0,0.0,0.0,0.0,0.0,0.0,0.0,0.0,0.0,0.0,0.0,0.0,0.0,0.0,0.0,0.0,0.0,0.0,0.0,0.0,0.0,0.0,0.0,0.0,0.0,0.0,0.0,0.0,0.0,0.0,0.0,0.0,0.0,0.0,0.0,0.0,0.0,0.0,0.0,0.0,0.0,0.0,0.0,0.0,0.0,0.0,0.0,0.0,0.0,0.0,0.0,0.0,0.0,0.0,0.0,0.0,0.0,0.0,0.0,0.0,0.0,0.0,0.0,0.0,0.0,0.0,0.0,0.0,0.0,0.0,0.0,0.0,0.0,0.0,0.0,0.0,0.0,0.0,0.0,0.0,0.0,0.0,0.0,0.0,0.0,0.0,0.0,0.0,0.0,0.0,0.0,0.0,0.0,0.0,0.0,0.0,0.0,0.0,0.0,0.0,0.0,0.0,0.0,0.0,0.0,0.0,0.0,0.0,0.0,0.0,0.0,0.0,0.0,0.0,0.0,0.0,0.0,0.0,0.0,0.0,0.0,0.0,0.0,0.0,0.0,0.0,0.0,0.0,0.0,0.0,0.0,0.0,0.0,0.0,0.0,0.0,0.0,0.0,0.0,0.0,0.0,0.0,0.0,0.0,0.0,0.0,0.0,0.0,0.0,0.0,0.0,0.0,0.0,0.0,0.0,0.0,0.0,0.0,0.0,0.0,0.0,0.0,0.0,0.0,0.0,0.0,0.0,0.0,0.0,0.0,0.0,0.0,0.0,0.0,0.0,0.0,0.0,0.0,0.0,0.0,0.0,0.0,0.0,0.0,0.0,0.0,0.0,0.0,0.0,0.0,0.0,0.0,0.0,0.0,0.0,0.0,0.0,0.0,0.0,0.0,0.0,0.0,0.0,0.0,0.0,0.0,0.0,0.0,0.0,0.0,0.0,0.0,0.0,0.0,0.0,0.0,0.0,0.0,0.0,0.0,0.0,0.0,0.0,0.0,0.0,0.0,0.0,0.0,0.0,0.0,0.0,0.0,0.0,0.0,0.0,0.0,0.0,0.0,0.0,0.0,0.0,0.0,0.0,0.0,0.0,0.0,0.0,0.0,0.0,0.0,0.0,0.0,0.0,0.0,0.0,0.0,0.0,0.0,0.0,0.0,0.0,0.0,0.0,0.0,0.0,0.0,0.0,0.0,0.0,0.0,0.0,0.0,0.0,0.0,0.0,0.0,0.0,0.0,0.0,0.0,0.0,0.0,0.0,0.0,0.0,0.0,0.0,0.0,0.0,0.0,0.0,0.0,0.0,0.0,0.0,0.0,0.0,0.0,0.0,0.0,0.0,0.0,0.0,0.0,0.0,0.0,0.0,0.0,0.0,0.0,0.0,0.0,0.0,0.0,0.0,0.0,0.0,0.0,0.0,0.0,0.0,0.0,0.0,0.0,0.0,0.0,0.0,0.0,0.0,0.0,0.0,0.0,0.0,0.0,0.0,0.0,0.0,0.0,0.0,0.0,0.0,0.0,0.0,0.0,0.0,0.0,0.0,0.0,0.0,0.0,0.0,0.0,0.0,0.0,0.0,0.0,0.0,0.0,0.0,0.0,0.0,0.0,0.0,0.0,0.0,0.0,0.0,0.0,0.0,0.0,0.0,0.0,0.0,0.0,0.0,0.0,0.0,0.0,0.0,0.0,0.0,0.0,0.0,0.0,0.0,0.0,0.0,0.0,0.0,0.0,0.0,0.0,0.0,0.0,0.0,0.0,0.0,0.0,0.0,0.0,0.0,0.0,0.0,0.0,0.0,0.0,0.0,0.0,0.0,0.0,0.0,0.0,0.0,0.0,0.0,0.0,0.0,0.0,0.0,0.0,0.0,0.0,0.0,0.0,0.0,0.0,0.0,0.0,0.0,0.0,0.0,0.0,0.0,0.0,0.0,0.0,0.0,0.0,0.0,0.0,0.0,0.0,0.0,0.0,0.0,0.0,0.0,0.0,0.0,0.0,0.0,0.0,0.0,0.0,0.0,0.0,0.0,0.0,0.0,0.0,0.0,0.0,0.0,0.0,0.0,0.0,0.0,0.0,0.0,0.0,0.0,0.0,0.0,0.0,0.0,0.0,0.0,0.0,0.0,0.0,0.0,0.0,0.0,0.0,0.0,0.0,0.0,0.0,0.0,0.0,0.0,0.0,0.0,0.0,0.0,0.0,0.0,0.0,0.0,0.0,0.0,0.0,0.0,0.0,0.0,0.0,0.0,0.0,0.0,0.0,0.0,0.0,0.0,0.0,0.0,0.0,0.0,0.0,0.0,0.0,0.0,0.0,0.0,0.0,0.0,0.0,0.0,0.0,0.0,0.0,0.0,0.0,0.0,0.0,0.0,0.0,0.0,0.0,0.0,0.0,-2.4998,-2.4491,0.0,0.0,0.0,0.0,0.0,0.0,0.0,0.0,0.0,0.0,0.0,0.0,0.0,0.0,0.0,0.0,0.0,0.0,0.0,0.0,0.0,0.0,0.0,0.0,0.0,0.0,0.0,0.0,0.0,0.0,0.0,0.0,0.0,0.0,0.0,0.0,0.0,0.0,-2.5477,-2.5474,-2.5406,-2.5409,-2.5371,-2.5308,0.0,0.0,0.0,0.0,0.0,0.0,0.0,0.0,0.0,0.0,0.0,0.0,0.0,0.0,0.0,0.0,0.0,0.0,0.0,0.0,0.0,0.0,0.0,0.0,0.0,0.0,0.0,0.0,0.0,0.0,0.0,0.0,0.0,0.0,0.0,0.0,0.0,0.0,0.0,0.0,0.0,0.0,0.0,0.0,0.0,0.0,0.0,0.0,0.0,0.0,0.0,0.0,0.0,0.0,0.0,0.0,0.0,0.0,0.0,0.0,0.0,0.0,0.0,0.0,0.0,0.0,0.0,0.0,0.0,0.0,-2.5895,-2.5557,0.0,0.0,0.0,0.0,0.0,0.0,0.0,0.0,0.0,0.0,0.0,0.0,0.0,0.0,0.0,0.0,0.0,0.0,0.0,0.0,0.0,0.0,0.0,0.0,-2.566,-2.5604,-2.5595,-2.5537,0.0,0.0,0.0,0.0,0.0,0.0,0.0,-2.545,-2.5418,-2.5308,-2.5401,-2.5434,-2.5372,-2.5336,-2.5308,-2.5308,-2.5308,0.0,0.0,0.0,0.0,0.0,0.0,0.0,0.0,0.0,0.0,0.0,0.0,0.0,0.0,0.0,0.0,0.0,0.0,0.0,0.0,0.0,0.0,0.0,0.0,0.0,0.0,0.0,0.0,0.0,0.0,0.0,0.0,0.0,0.0,0.0,0.0,0.0,0.0,0.0,0.0,0.0,0.0,0.0,0.0,0.0,0.0,0.0,0.0,0.0,0.0,0.0,0.0,0.0,0.0,0.0,0.0,0.0,0.0,0.0,0.0,0.0,0.0,0.0,-2.6691,-2.6691,-2.6691,-2.6691,-2.6691,-2.6708,-2.6758,-2.6758,-2.6725,-2.7051,0.0,0.0,0.0,0.0,0.0,0.0,0.0,0.0,0.0,0.0,0.0,0.0,0.0,0.0,0.0,0.0,0.0,0.0,0.0,0.0,0.0,-2.5658,-2.5605,-2.5602,-2.5551,-2.549,-2.5409,0.0,0.0,0.0,0.0,0.0,-2.5313,-2.5376,-2.5372,-2.5308,-2.5322,-2.5331,-2.5313,-2.5293,-2.5308,-2.5308,-2.5308,-2.5308,-2.5308,0.0,0.0,0.0,0.0,0.0,0.0,0.0,0.0,0.0,0.0,0.0,0.0,0.0,0.0,0.0,0.0,0.0,0.0,0.0,0.0,0.0,0.0,0.0,0.0,0.0,0.0,0.0,0.0,0.0,0.0,0.0,0.0,0.0,0.0,0.0,0.0,0.0,0.0,0.0,0.0,0.0,-2.7222,-2.6753,0.0,0.0,0.0,0.0,0.0,0.0,0.0,0.0,0.0,0.0,0.0,0.0,0.0,-2.6691,-2.6691,-2.6691,-2.6691,-2.6691,-2.6691,-2.6691,-2.6691,-2.6691,-2.6691,-2.6725,-2.7067,0.0,-2.6708,-2.6758,0.0,0.0,0.0,0.0,0.0,0.0,0.0,0.0,0.0,0.0,0.0,0.0,0.0,0.0,0.0,0.0,0.0,0.0,0.0,0.0,0.0,-2.5629,-2.5566,-2.5486,-2.5465,-2.5424,-2.5357,-2.5348,0.0,0.0,0.0,-2.5321,-2.5308,-2.5326,-2.5326,-2.5308,-2.5308,-2.5308,-2.5308,-2.5308,-2.5308,-2.5308,-2.5308,-2.5308,-2.5308,-2.5308,0.0,0.0,0.0,0.0,0.0,0.0,0.0,0.0,0.0,0.0,0.0,0.0,0.0,0.0,0.0,0.0,0.0,0.0,0.0,0.0,0.0,0.0,0.0,0.0,0.0,0.0,0.0,0.0,0.0,0.0,0.0,0.0,0.0,0.0,0.0,0.0,0.0,0.0,0.0,-2.7497,-2.7147,-2.6758,-2.6906,-2.7052,0.0,0.0,0.0,0.0,0.0,0.0,0.0,0.0,0.0,-2.6708,-2.6691,-2.6691,-2.6691,-2.6691,-2.6691,-2.6691,-2.6691,-2.6691,-2.6691,-2.6691,-2.6691,-2.6708,-2.689,-2.7004,-2.7067,-2.748,-2.7542,-2.7424,0.0,0.0,0.0,0.0,-2.8815,-2.9005,0.0,0.0,0.0,0.0,0.0,0.0,0.0,0.0,0.0,0.0,0.0,0.0,-2.5604,-2.5566,-2.5517,-2.5401,-2.5379,-2.5346,-2.5293,-2.5308,0.0,0.0,0.0,-2.5308,-2.5308,-2.5308,-2.5308,-2.5308,-2.5308,-2.5308,-2.5308,-2.5308,-2.5308,-2.5308,-2.5308,-2.5308,-2.5308,-2.5308,-2.5308,-2.5308,0.0,0.0,0.0,0.0,0.0,0.0,0.0,0.0,0.0,0.0,0.0,0.0,0.0,0.0,0.0,0.0,0.0,0.0,0.0,0.0,0.0,0.0,0.0,0.0,0.0,0.0,0.0,0.0,0.0,0.0,0.0,0.0,0.0,0.0,0.0,0.0,0.0,-2.7378,-2.7272,-2.6758,-2.7051,-2.7272,0.0,0.0,0.0,0.0,0.0,0.0,-2.7019,-2.7099,-2.7003,-2.6708,-2.6791,-2.6942,-2.7163,-2.7261,-2.743,-2.7618,-2.7618,-2.7618,-2.7618,-2.7618,-2.7618,-2.7635,-2.7731,-2.7954,-2.8225,-2.8148,-2.8034,-2.794,-2.8277,-2.8407,-2.842,-2.8527,-2.8749,-2.9005,0.0,0.0,0.0,0.0,0.0,0.0,0.0,0.0,0.0,0.0,0.0,-2.5603,-2.5602,-2.5498,-2.542,-2.5402,-2.5344,-2.5293,-2.5308,-2.5308,-2.5308,-2.5308,-2.5308,-2.5308,-2.5308,-2.5308,-2.5308,-2.5308,-2.5308,-2.5308,-2.5308,-2.5308,-2.5308,-2.5308,-2.5308,-2.5308,-2.5308,-2.5308,-2.5308,-2.5308,-2.5308,0.0,0.0,0.0,0.0,0.0,0.0,0.0,0.0,0.0,0.0,0.0,0.0,0.0,0.0,0.0,0.0,0.0,0.0,0.0,0.0,0.0,0.0,0.0,0.0,0.0,0.0,0.0,0.0,0.0,0.0,0.0,0.0,0.0,0.0,0.0,0.0,0.0,0.0,-2.6791,-2.7051,0.0,0.0,0.0,0.0,-2.7869,-2.7869,-2.7869,-2.784,-2.7131,-2.6725,-2.6691,-2.7067,-2.7634,-2.8393,-2.8782,-2.9364,-3.0123,-3.0123,-3.0123,-3.0123,-3.0123,-3.0123,-3.0138,-3.0528,-3.0702,-3.0534,-2.8293,-2.7574,-2.794,-2.8277,-2.8407,-2.8446,-2.8839,-2.8975,-2.9005,0.0,0.0,0.0,0.0,0.0,0.0,0.0,0.0,-2.5703,-2.5703,-2.5636,-2.5573,-2.5545,-2.5443,-2.5383,-2.5339,-2.5313,-2.5308,-2.5308,-2.5308,-2.5308,-2.5308,-2.5308,-2.5308,-2.5308,-2.5308,-2.5308,-2.5308,-2.5308,-2.5596,-2.6135,-2.6135,-2.6135,-2.6135,-2.6135,-2.5827,-2.5308,-2.5308,-2.5308,-2.5308,-2.5308,-2.5308,0.0,0.0,0.0,0.0,0.0,0.0,0.0,0.0,0.0,0.0,0.0,0.0,0.0,0.0,0.0,0.0,0.0,0.0,0.0,0.0,0.0,0.0,0.0,0.0,0.0,0.0,0.0,0.0,0.0,0.0,0.0,0.0,0.0,0.0,0.0,0.0,0.0,-2.7147,-2.7631,0.0,-2.7147,-2.7776,-2.8129,-2.7926,-2.8102,-2.8344,-2.8663,-2.8602,-2.8699,-2.8996,-2.9171,-2.9372,-2.9653,-2.9791,-3.0009,-3.0308,-3.0308,-3.0308,-3.0308,-3.0308,-3.0308,-3.0308,-3.0443,-3.0668,-3.0834,-2.9955,-2.9516,-2.9346,-2.8937,-2.8803,-2.8797,-2.894,-2.9005,-2.9005,0.0,0.0,0.0,0.0,0.0,0.0,0.0,0.0,-2.5683,-2.5662,-2.5605,-2.5545,-2.5465,-2.5417,-2.5342,-2.5293,-2.5308,-2.5308,-2.5308,-2.5308,-2.5308,-2.5308,-2.5308,-2.5308,-2.5308,-2.5308,-2.5442,-2.5731,-2.5731,-2.6173,-2.7044,-2.7044,-2.7044,-2.7044,-2.7044,-2.6544,-2.5731,-2.5731,-2.5577,-2.5308,-2.5308,-2.5308,-2.5308,0.0,0.0,0.0,0.0,0.0,0.0,0.0,0.0,0.0,0.0,0.0,0.0,0.0,0.0,0.0,0.0,0.0,0.0,0.0,0.0,0.0,0.0,0.0,0.0,0.0,0.0,0.0,0.0,0.0,0.0,0.0,0.0,0.0,0.0,0.0,-2.8093,-2.756,-2.8029,-2.8273,-2.794,-2.8463,-2.8833,-2.8919,-2.9112,-2.9386,-2.9683,-2.9801,-2.9991,-3.029,-3.0428,-3.063,-3.0895,-3.1013,-3.1196,-3.148,-3.148,-3.148,-3.148,-3.148,-3.148,-3.148,-3.148,-3.1628,-3.1856,-3.1588,-3.1303,-3.0925,-3.0118,-2.9812,-2.9812,-2.9812,-2.9812,-2.9812,0.0,0.0,0.0,0.0,0.0,0.0,0.0,-2.5703,-2.5682,-2.5605,-2.5547,-2.5465,-2.5401,-2.5348,-2.5308,-2.5308,-2.5308,-2.5308,-2.5308,-2.5308,-2.5308,-2.5308,-2.5308,-2.5308,-2.5308,-2.5327,-2.575,-2.6601,-2.664,-2.7082,-2.7934,-2.7934,-2.7934,-2.7934,-2.7934,-2.7448,-2.664,-2.664,-2.6135,-2.5346,-2.5308,-2.5308,-2.5308,0.0,0.0,0.0,0.0,0.0,0.0,0.0,0.0,0.0,0.0,0.0,0.0,0.0,0.0,0.0,0.0,0.0,0.0,0.0,0.0,0.0,0.0,0.0,0.0,0.0,0.0,0.0,0.0,0.0,0.0,0.0,0.0,0.0,-2.7982,-2.8533,-2.8731,-2.8045,-2.8259,-2.8645,-2.9112,-2.9466,-3.0012,-3.0857,-3.093,-3.093,-3.0948,-3.0585,-3.0373,-3.0409,-3.0783,-3.1345,-3.2151,-3.2474,-3.3041,-3.3844,-3.3844,-3.3844,-3.388,-3.3844,-3.3844,-3.3844,-3.3807,-3.3807,-3.3733,-3.2949,-3.2638,-3.2564,-3.1715,-3.1397,-3.1397,-3.1397,-3.1397,-3.1397,0.0,0.0,0.0,0.0,0.0,0.0,0.0,-2.5703,-2.5682,-2.5605,-2.5547,-2.5465,-2.5401,-2.5348,-2.5308,-2.5308,-2.5308,-2.5308,-2.5308,-2.5308,-2.5308,-2.5308,-2.5308,-2.5308,-2.5308,-2.5923,-2.6365,-2.6601,-2.7236,-2.7953,-2.878,-2.878,-2.878,-2.878,-2.878,-2.8319,-2.7544,-2.7544,-2.7044,-2.6192,-2.5558,-2.5308,-2.5308,0.0,0.0,0.0,0.0,0.0,0.0,0.0,0.0,0.0,0.0,0.0,0.0,0.0,0.0,0.0,0.0,0.0,0.0,0.0,0.0,0.0,0.0,0.0,0.0,0.0,0.0,0.0,0.0,0.0,0.0,0.0,0.0,-2.8803,-2.87,-2.862,-2.8719,-2.9089,-2.9473,-2.9895,-3.0372,-3.0698,-3.1002,-3.1239,-3.1258,-3.1514,-3.2104,-3.2024,-3.2238,-3.2816,-3.2953,-3.3104,-3.3337,-3.3418,-3.3867,-3.4674,-3.4674,-3.5,-3.5587,-3.4949,-3.4674,-3.4637,-3.4064,-3.3807,-3.377,-3.3568,-3.3476,-3.333,-3.1935,-3.1397,-3.1397,-3.1397,-3.1397,-3.1397,0.0,0.0,0.0,0.0,0.0,0.0,0.0,-2.5703,-2.5661,-2.5566,-2.5513,-2.5451,-2.5379,-2.5317,-2.5308,-2.5308,-2.5308,-2.5308,-2.5308,-2.5308,-2.5308,-2.5308,-2.5654,-2.5846,-2.5846,-2.6697,-2.7313,-2.764,-2.8145,-2.8838,-2.964,-2.964,-2.964,-2.964,-2.964,-2.9179,-2.8396,-2.8396,-2.7915,-2.7101,-2.6601,-2.5942,-2.5308,-2.5308,-2.6385,-2.7895,-2.7895,-2.8986,-3.0404,-3.0404,0.0,0.0,0.0,0.0,0.0,0.0,0.0,0.0,0.0,0.0,0.0,0.0,0.0,0.0,0.0,0.0,0.0,0.0,0.0,0.0,0.0,0.0,0.0,0.0,-2.9125,-2.95,-2.95,-2.929,-2.9452,-3.0264,-3.0557,-3.0943,-3.1551,-3.1783,-3.2045,-3.2375,-3.2412,-3.2761,-3.3555,-3.361,-3.3977,-3.4816,-3.4853,-3.4853,-3.4853,-3.4853,-3.5073,-3.5536,-3.5536,-3.5807,-3.6266,-3.5789,-3.5536,-3.5518,-3.5055,-3.4853,-3.4853,-3.4853,-3.4853,-3.4688,0.0,0.0,0.0,0.0,-3.2412,-3.2412,0.0,0.0,0.0,0.0,0.0,0.0,0.0,-2.5703,-2.5658,-2.5526,-2.5491,-2.5453,-2.5317,-2.5308,-2.5308,-2.5308,-2.5308,-2.5308,-2.5308,-2.5308,-2.5308,-2.5308,-2.6135,-2.6601,-2.6601,-2.7544,-2.8396,-2.9107,-2.9204,-2.964,-3.0404,-3.0404,-3.0404,-3.0404,-3.0404,-2.9967,-2.9242,-2.9242,-2.878,-2.8049,-2.8049,-2.7005,-2.5442,-2.5442,-2.6467,-2.7895,-2.7895,-2.8986,-3.0404,-3.0404,0.0,0.0,0.0,0.0,0.0,0.0,0.0,0.0,0.0,0.0,0.0,0.0,0.0,0.0,0.0,0.0,0.0,0.0,0.0,0.0,0.0,0.0,0.0,0.0,-2.9721,-3.0265,-3.0448,-3.0467,-3.0742,-3.1439,-3.1544,-3.1843,-3.2656,-3.2821,-3.317,-3.388,-3.4027,-3.4394,-3.5114,-3.5151,0.0,0.0,0.0,-3.6303,-3.6303,-3.6303,-3.634,-3.6431,-3.6431,-3.6468,-3.656,-3.6468,-3.6431,-3.6431,-3.634,-3.6303,-3.6303,-3.6303,-3.6303,-3.6138,-3.4559,-3.388,-3.3807,-3.3807,-3.3807,-3.3807,0.0,0.0,0.0,0.0,0.0,0.0,0.0,-2.5703,-2.5658,-2.5526,-2.5491,-2.5453,-2.5317,-2.5308,-2.5308,-2.5308,-2.5308,-2.5308,-2.5308,-2.5308,-2.5308,-2.5308,-2.6135,-2.6601,-2.6601,-2.8088,-2.8934,-2.9107,-2.9794,-3.0231,-3.0404,-3.0404,-3.0404,-3.0404,-3.0404,-3.0308,-3.0154,-3.0154,-2.966,-2.8876,-2.8876,-2.7852,-2.6351,-2.6351,-2.6986,-2.7895,-2.7895,-2.8986,-3.0404,-3.0404,-3.0404,-3.0404,-3.0404,-3.0404,0.0,0.0,0.0,0.0,0.0,0.0,0.0,0.0,0.0,0.0,0.0,0.0,0.0,0.0,0.0,0.0,0.0,0.0,0.0,-2.9849,-3.0099,-3.065,-3.194,-3.2142,-3.2179,-3.2344,-3.2375,-3.2687,-3.3495,-3.4142,-3.4601,-3.4766,-3.5422,-3.5881,-3.6046,-3.6046,-3.6138,-3.6285,-3.6303,-3.6303,-3.6303,-3.6303,-3.6615,-3.7272,-3.7272,0.0,-3.8212,-3.7551,-3.7272,-3.7235,-3.6593,-3.6303,-3.6303,-3.6303,-3.6303,-3.6193,-3.5169,-3.4362,-3.3807,-3.3807,-3.3807,-3.3807,0.0,0.0,0.0,0.0,0.0,0.0,0.0,-2.5703,-2.5658,-2.5526,-2.5491,-2.5453,-2.5317,-2.5308,-2.5308,-2.5308,-2.5308,-2.5308,-2.5308,-2.5308,-2.55,-2.5923,-2.6794,-2.7448,-2.7832,-2.9102,-2.9756,-2.9756,-3.0192,-3.0404,-3.0404,-3.0404,-3.0404,-3.0404,-3.0404,-3.0404,-3.0404,-3.0404,-3.0154,-2.9756,-2.9756,-2.8986,-2.7755,-2.6928,-2.714,-2.7895,-2.7895,-2.8698,-2.9813,-3.025,-3.0404,-3.0404,-3.0404,-3.0404,-3.0404,0.0,0.0,0.0,0.0,0.0,0.0,0.0,0.0,0.0,0.0,0.0,0.0,0.0,0.0,-2.9115,0.0,0.0,-2.9849,-3.0668,-3.1146,-3.1684,-3.2491,-3.2949,-3.3201,-3.3201,-3.3201,-3.3532,-3.4307,-3.4766,-3.5188,-3.561,-3.6046,-3.6468,-3.6886,-3.6905,-3.7092,-3.7496,-3.7496,-3.7496,-3.7496,-3.7496,-3.7698,-3.8102,-3.8102,-3.8303,-3.8689,-3.8285,-3.8102,-3.8065,-3.7679,-3.7496,-3.7496,-3.7496,-3.7257,-3.6868,-3.6413,-3.5752,-3.5055,-3.5055,-3.5055,-3.4981,0.0,0.0,0.0,0.0,0.0,0.0,0.0,-2.5703,-2.566,-2.5541,-2.5529,-2.5477,-2.533,-2.5327,-2.5317,-2.5308,-2.5308,-2.5308,-2.5308,-2.5308,-2.5615,-2.6327,-2.7332,-2.8203,-2.8857,-2.9865,-3.0404,-3.0404,-3.0404,-3.0404,-3.0404,-3.0404,-3.0404,-3.0404,-3.0404,-3.0404,-3.0404,-3.0404,-3.0404,-3.0404,-3.0404,-2.9987,-2.9159,-2.7486,-2.7294,-2.7895,-2.7895,-2.8415,-2.9223,-3.0115,-3.0404,-3.0404,-3.0404,-3.0404,-3.0404,-3.0404,-3.0254,0.0,0.0,0.0,0.0,0.0,0.0,0.0,0.0,0.0,-2.9005,-2.9005,-2.9115,-2.9427,-3.0081,-3.0338,-3.0705,-3.1494,-3.2173,-3.2656,-3.2803,-3.3385,-3.3807,-3.3807,-3.3935,-3.4302,-3.4949,-3.5298,-3.5775,-3.6468,-3.667,-3.7037,-3.7713,-3.7731,-3.8028,-3.8689,-3.8707,-3.8707,-3.8707,-3.8707,-3.8707,-3.8707,-3.8707,-3.8707,-3.8707,-3.8707,-3.8707,-3.8707,-3.8707,-3.8707,-3.8707,-3.8707,-3.8322,-3.7731,-3.7731,-3.7331,-3.6725,-3.6413,-3.6303,-3.6193,0.0,0.0,0.0,0.0,0.0,0.0,0.0,0.0,-2.5662,-2.5601,-2.5595,-2.5541,-2.5406,-2.5387,-2.5352,-2.5317,-2.5308,-2.5308,-2.5308,-2.5308,-2.5346,-2.5442,-2.7024,-2.7934,-2.803,-2.9596,-3.0404,-3.0404,-3.0404,-3.0404,-3.0404,-3.0404,-3.0404,-3.0404,-3.0404,-3.0404,-3.0404,-3.0404,-3.0404,-3.0404,-3.0404,-3.0346,-3.0077,-2.839,-2.7818,-2.7895,-2.7895,-2.8415,-2.9223,-3.0115,-3.0404,-3.0404,-3.0404,-3.0404,-3.0404,-3.0404,0.0,-3.0355,-3.0355,-3.0015,-2.9551,-2.9104,-2.9005,-2.9005,0.0,0.0,-2.9005,-2.9005,-2.9574,-3.0099,-3.0173,-3.0779,-3.1531,-3.2326,-3.2546,-3.2839,-3.3568,-3.3733,-3.3807,-3.3807,-3.4417,-3.4912,-3.5004,-3.6358,-3.7254,-3.7364,-3.8028,-3.8469,-3.856,-3.8579,-3.8615,-3.8707,-3.8707,-3.8707,-3.8707,-3.8707,-3.8707,-3.8707,-3.8707,-3.8707,-3.8707,-3.8707,-3.8707,-3.8707,-3.8707,-3.8707,-3.8707,-3.8707,-3.8652,-3.8579,-3.8579,-3.8505,-3.8267,-3.6835,-3.6303,-3.6285,0.0,0.0,0.0,0.0,0.0,0.0,0.0,0.0,0.0,-2.5605,-2.5602,-2.5561,-2.5474,-2.5421,-2.5368,-2.5317,-2.5308,-2.5308,-2.5308,-2.5308,-2.5538,-2.6038,-2.6755,-2.7601,-2.8588,-2.9275,-2.989,-3.0404,-3.0404,-3.0404,-3.0404,-3.0404,-3.0404,-3.0404,-3.0404,-3.0404,-3.0404,-3.0404,-3.0404,-3.0365,-2.9852,-2.964,-2.9467,-2.7775,-2.714,-2.714,-2.714,-2.7351,0.0,-2.9198,-2.964,-2.9737,-3.0231,-3.0404,-3.0404,-3.0404,-3.0299,0.0,-2.9883,-2.9671,-2.9445,0.0,-2.9005,-2.9005,-2.9005,-2.9354,-2.9702,-2.9702,-3.0338,-3.1035,-3.15,-3.1867,-3.2357,0.0,-3.3311,-3.3421,-3.3752,-3.4197,-3.4491,-3.4491,-3.5661,-3.6266,-3.5807,-3.6798,-3.7694,-3.8157,-3.8505,-3.8707,-3.8707,-3.8707,-3.8707,-3.8707,-3.8707,-3.8707,-3.8707,-3.8707,-3.8707,-3.8707,-3.8707,-3.8707,-3.8707,-3.8707,-3.8707,-3.8707,-3.8707,-3.8707,-3.8707,-3.8707,-3.8707,-3.8707,-3.8707,-3.8707,-3.8615,-3.7936,-3.7698,-3.7624,0.0,0.0,0.0,0.0,0.0,0.0,0.0,0.0,0.0,0.0,-2.5633,-2.5602,-2.5522,-2.5459,-2.5379,-2.5326,-2.5308,-2.5308,-2.5308,-2.5308,-2.5577,-2.6212,-2.6467,-2.7178,-2.8376,-2.8646,-2.9083,-2.9712,-2.9923,-3.0038,-3.0038,-3.0288,-3.0404,-3.0404,-3.0404,-3.0404,-3.0385,-3.0135,-3.0038,-2.9967,-2.9102,-2.878,-2.8607,-2.7159,-2.6601,-2.6601,-2.6601,-2.6601,-2.6851,-2.853,-2.9107,-2.9261,-3.0135,-3.0404,-3.0404,-3.0404,-3.026,-3.0018,-2.9598,0.0,0.0,-2.9078,-2.917,-2.9335,-2.9335,-2.9941,-3.0522,-3.0522,-3.1164,-3.1916,-3.2491,-3.2784,-3.3128,-3.3715,-3.3807,-3.3807,-3.3807,-3.4491,-3.5004,-3.5004,-3.6486,-3.7272,-3.6703,-3.7364,-3.8065,-3.867,-3.8707,-3.8707,-3.8707,-3.8707,-3.8707,-3.8707,-3.8707,-3.8707,-3.8707,-3.8707,-3.8707,-3.8707,-3.8707,-3.8707,-3.8707,-3.8707,-3.8707,-3.8707,-3.8707,-3.8707,-3.8707,-3.8707,-3.8707,-3.8707,-3.8707,-3.8707,-3.8707,-3.8707,-3.8707,-3.8615,0.0,0.0,0.0,0.0,0.0,0.0,0.0,0.0,0.0,0.0,0.0,0.0,0.0,-2.5471,-2.5406,-2.5395,-2.5335,-2.5308,-2.5308,-2.5308,-2.5308,-2.5346,-2.6154,-2.6621,-2.6678,-2.7505,-2.7953,-2.7992,-2.8761,-2.9146,-2.9165,-3.0,-3.0404,-3.0404,-3.0404,-3.0404,-3.0346,-2.9506,-2.9146,-2.9069,-2.8261,-2.7934,-2.7838,-2.6948,-2.6601,-2.6601,-2.6601,-2.6601,-2.6851,-2.853,-2.9107,-2.9261,-3.0135,-3.0404,0.0,-3.0404,-3.0398,-3.0286,0.0,0.0,-2.9579,-2.9115,-2.9592,-3.0173,-3.0173,-3.0797,-3.136,-3.136,-3.2008,-3.2564,-3.2601,-3.3238,-3.377,-3.3807,-3.3807,-3.3807,-3.3807,-3.4491,-3.5004,-3.5004,-3.6486,-3.7492,0.0,-3.8193,-3.867,-3.8707,-3.8707,-3.8707,-3.8707,-3.8707,-3.8707,-3.8707,-3.8707,-3.8707,-3.8707,-3.8707,-3.8707,-3.8707,-3.8707,-3.8707,-3.8707,-3.8707,-3.8707,-3.8707,-3.8707,-3.8707,-3.8707,-3.8707,-3.8707,-3.8707,-3.8707,-3.8707,-3.8707,-3.8707,-3.8707,-3.8707,0.0,0.0,0.0,0.0,0.0,0.0,0.0,0.0,0.0,0.0,0.0,0.0,0.0,0.0,0.0,0.0,-2.5447,-2.5404,-2.5371,-2.5367,-2.5352,-2.5308,-2.5577,-2.6,-2.6582,-2.689,-2.7313,-2.7895,-2.8165,-2.8299,-2.8319,-2.8602,-2.8736,-2.8736,-2.8736,-2.8736,-2.8717,-2.8434,-2.8299,-2.8222,-2.7371,-2.7044,-2.6948,-2.6077,-2.5731,-2.5731,0.0,-2.5731,-2.6,-2.7717,-2.8299,-2.8549,-2.9962,-3.0404,-3.0404,-3.0404,-3.0267,-3.0061,-2.979,0.0,-2.9546,-2.9752,-3.0008,-3.0338,-3.087,-3.1623,-3.221,-3.221,-3.2834,-3.3403,-3.3403,-3.3623,-3.3807,-3.3807,-3.3807,-3.3807,-3.3807,-3.5,-3.5862,-3.5862,-3.7294,0.0,0.0,0.0,0.0,-3.8707,-3.8707,-3.8707,-3.8707,-3.8707,-3.8707,-3.8707,-3.8707,-3.8707,-3.8707,-3.8707,-3.8707,-3.8707,-3.8707,-3.8707,-3.8707,-3.8707,-3.8707,-3.8707,-3.8707,-3.8707,-3.8707,-3.8707,-3.8707,-3.8707,-3.8707,-3.8707,-3.8707,-3.8707,-3.8707,-3.8707,0.0,0.0,0.0,0.0,0.0,0.0,0.0,0.0,0.0,0.0,0.0,0.0,0.0,0.0,0.0,0.0,0.0,-2.5471,-2.5438,-2.5404,-2.5372,-2.5335,-2.5313,-2.5558,-2.6115,-2.6135,-2.6409,-2.6967,-2.7274,-2.7448,-2.7448,-2.7755,-2.7895,-2.7895,-2.7895,-2.7895,-2.7876,-2.7563,-2.7454,-2.7398,-2.6516,-2.6168,-2.6111,-2.5575,-2.5348,0.0,-2.5321,-2.5519,-2.5981,-2.7409,-2.7895,-2.8179,-2.9865,-3.0404,-3.0373,-3.0292,-3.0136,-2.9996,-3.0019,-2.9924,-2.9962,-3.0483,-3.0834,-3.1201,-3.1715,-3.2228,-3.2601,-3.2601,-3.2869,-3.3093,-3.3093,-3.3332,-3.3504,-3.3504,-3.3671,-3.3807,-3.3807,-3.5238,-3.6303,-3.6303,-3.7716,-3.8707,0.0,0.0,0.0,-3.8707,-3.8707,-3.8707,-3.8707,-3.8707,-3.8707,-3.8707,-3.8707,-3.8707,-3.8707,-3.8707,-3.8707,-3.8707,-3.8707,-3.8707,-3.8707,-3.8707,-3.8707,-3.8707,-3.8707,-3.8707,-3.8707,-3.8707,-3.8707,-3.8707,-3.8707,-3.8707,-3.8707,-3.8707,-3.8707,-3.8707,0.0,0.0,0.0,0.0,0.0,0.0,0.0,0.0,0.0,0.0,0.0,0.0,0.0,0.0,0.0,0.0,0.0,0.0,-2.5515,-2.5453,-2.5401,-2.5406,-2.5348,-2.5308,-2.5308,-2.5308,-2.5308,-2.5308,-2.6135,-2.6545,-2.6564,-2.7391,-2.7776,-2.7776,-2.7776,-2.7776,-2.7719,-2.6891,-2.6587,-2.6568,-2.5742,-2.5413,-2.5417,-2.5485,-2.5415,-2.5313,-2.5376,-2.5919,-2.6736,0.0,0.0,0.0,0.0,-3.0404,-3.0355,-3.0082,-3.0018,-3.0128,-3.0504,-3.0621,-3.0768,-3.1311,-3.2045,-3.2601,-3.2627,-3.2614,-3.2596,-3.2566,-3.2156,-3.1793,0.0,0.0,-3.295,-3.2987,-3.3413,-3.3752,-3.3788,-3.5238,-3.6303,0.0,0.0,0.0,0.0,0.0,0.0,-3.8707,0.0,-3.8707,-3.8707,-3.8707,-3.8707,-3.8707,-3.8707,-3.8707,-3.8707,-3.8707,-3.8707,-3.8707,-3.8707,-3.8707,-3.8707,-3.8707,-3.8707,-3.8707,-3.8707,-3.8707,-3.8707,-3.8707,-3.8707,-3.8707,-3.8707,-3.8707,-3.8707,-3.8707,-3.8707,-3.8707,0.0,0.0,0.0,0.0,0.0,0.0,0.0,0.0,0.0,0.0,0.0,0.0,0.0,0.0,0.0,0.0,0.0,0.0,-2.559,-2.5558,-2.5533,-2.5485,-2.5465,-2.5453,-2.5453,-2.5453,-2.5453,-2.5453,-2.5667,-2.5783,-2.5783,-2.6013,-2.611,-2.611,-2.611,-2.611,-2.6091,-2.5877,-2.5792,-2.5793,-2.5563,-2.5465,-2.5485,-2.5484,-2.545,-2.5383,-2.5398,-2.5919,0.0,0.0,0.0,0.0,0.0,-3.0404,-3.0355,-3.0082,-3.0322,-3.0657,-3.0603,-3.0876,-3.1372,-3.2113,-3.2454,-3.2647,-3.2852,-3.2748,-3.2526,-3.2283,-3.1992,-3.1859,0.0,0.0,0.0,-3.2894,-3.2951,0.0,-3.3715,-3.5238,0.0,-3.6303,0.0,-3.8707,-3.8707,-3.8707,0.0,0.0,-3.8707,-3.8707,-3.8707,-3.8707,-3.8707,-3.8707,-3.8707,-3.8707,-3.8707,-3.8707,-3.8707,-3.8707,-3.8707,-3.8707,-3.8707,-3.8707,-3.8707,-3.8707,-3.8707,-3.8707,-3.8707,-3.8707,-3.8707,-3.8707,-3.8707,-3.8707,-3.8707,-3.8707,-3.8707,-3.8707,0.0,0.0,0.0,0.0,0.0,0.0,0.0,0.0,0.0,0.0,0.0,0.0,0.0,0.0,0.0,0.0,0.0,0.0,0.0,-2.5628,-2.5573,-2.5549,-2.5524,-2.5491,-2.5491,-2.5491,-2.5491,-2.5491,-2.5491,-2.5491,-2.5491,-2.5491,-2.5491,-2.5491,-2.5491,-2.5491,-2.5491,-2.5491,-2.5526,0.0,0.0,-2.5547,-2.5551,-2.5588,-2.5533,-2.5483,-2.589,0.0,0.0,0.0,0.0,-3.0404,-3.0404,-3.0404,-3.0355,-3.0082,0.0,-3.0932,-3.1086,-3.1522,-3.2118,-3.2926,-3.2943,-3.2804,-3.2971,-3.2407,-3.1797,-3.1609,-3.128,0.0,0.0,0.0,0.0,0.0,0.0,0.0,-3.322,-3.5018,-3.6303,0.0,-3.7716,0.0,-3.8707,-3.8707,-3.8707,0.0,-3.8707,-3.8707,-3.8707,-3.8707,-3.8707,-3.8707,-3.8707,-3.8707,-3.8707,-3.8707,-3.8707,-3.8707,-3.8707,-3.8707,-3.8707,-3.8707,-3.8707,-3.8707,-3.8707,-3.8707,-3.8707,-3.8707,-3.8707,-3.8707,-3.8707,-3.8707,-3.8707,-3.8707,-3.8707,-3.8707,0.0,0.0,0.0,0.0,0.0,0.0,0.0,0.0,0.0,0.0,0.0,0.0,0.0,0.0,0.0,0.0,0.0,0.0,0.0,0.0,-2.5607,-2.5607,-2.5558,-2.5535,-2.5535,-2.5535,-2.5535,-2.5535,-2.5535,-2.5535,-2.5535,-2.5535,-2.5535,-2.5535,-2.5535,-2.5535,-2.5535,-2.5535,-2.5559,-2.5607,-2.5607,-2.5607,-2.5629,0.0,-2.5689,0.0,0.0,0.0,0.0,0.0,-3.0404,-3.0404,-3.0404,-3.0404,-3.0355,-3.0082,-3.0533,-3.1205,-3.1675,-3.2304,-3.2978,-3.3637,-3.3376,-3.2934,-3.2884,-3.1836,-3.0856,-3.0833,0.0,-3.0013,-3.0054,-3.0457,-3.0817,-3.0894,0.0,-3.2524,-3.2596,-3.4651,-3.6174,-3.6285,-3.7624,-3.8579,-3.8689,-3.8707,-3.8707,-3.8707,-3.8707,-3.8707,-3.8707,-3.8707,-3.8707,-3.8707,-3.8707,-3.8707,-3.8707,-3.8707,-3.8707,-3.8707,-3.8707,-3.8707,-3.8707,-3.8707,-3.8707,-3.8707,-3.8707,-3.8707,-3.8707,-3.8707,-3.8707,-3.8707,-3.8707,-3.8707,-3.8707,-3.8707,-3.8707,-3.8707,0.0,0.0,0.0,0.0,0.0,0.0,0.0,0.0,0.0,0.0,-2.5703,-2.5703,0.0,0.0,0.0,0.0,0.0,0.0,0.0,0.0,0.0,-2.5683,-2.5662,-2.5661,-2.5661,-2.5661,-2.5661,-2.5661,-2.5661,-2.5661,-2.5661,-2.5661,-2.5661,-2.5661,-2.5661,-2.5661,-2.5661,-2.5661,-2.5662,-2.5683,-2.5683,-2.5683,-2.5683,-2.5703,0.0,0.0,0.0,0.0,0.0,0.0,-3.0404,-3.0404,-3.0404,-3.0404,-3.0355,-3.0082,-3.1062,-3.2157,-3.1877,-3.2839,-3.3895,-3.3831,-3.3241,-3.2594,-3.2325,-3.1424,0.0,0.0,-3.0225,-3.0068,-3.0299,-3.023,0.0,-3.0827,0.0,0.0,0.0,0.0,-3.5481,0.0,0.0,0.0,0.0,0.0,0.0,0.0,-3.8707,-3.8707,-3.8707,-3.8707,-3.8707,-3.8707,-3.8707,-3.8707,-3.8707,-3.8707,-3.8707,-3.8707,-3.8707,-3.8707,-3.8707,-3.8707,-3.8707,-3.8707,-3.8707,-3.8707,-3.8707,-3.8707,-3.8707,-3.8707,-3.8707,-3.8707,-3.8707,-3.8707,-3.8707,-3.8707,0.0,0.0,0.0,0.0,0.0,0.0,0.0,-2.5703,-2.5703,-2.5703,-2.5703,-2.5703,-2.5703,-2.5703,-2.5703,0.0,0.0,0.0,0.0,0.0,0.0,0.0,0.0,0.0,0.0,-2.5703,-2.5703,0.0,0.0,-2.5703,-2.5703,-2.5703,-2.5703,-2.5703,-2.5703,-2.5703,-2.5703,-2.5703,-2.5703,-2.5703,-2.5703,-2.5703,0.0,0.0,0.0,0.0,0.0,0.0,0.0,0.0,-3.0404,-3.0404,-3.0404,-3.0404,-3.0367,-3.0248,-3.13,-3.2447,-3.2222,-3.3293,-3.4319,-3.375,-3.3071,-3.2406,-3.1823,0.0,0.0,0.0,-3.0305,-3.0254,-3.0386,0.0,0.0,0.0,0.0,0.0,0.0,0.0,0.0,0.0,0.0,0.0,0.0,0.0,0.0,-3.8707,-3.8707,-3.8707,-3.8707,-3.8707,-3.8707,-3.8707,-3.8707,-3.8707,-3.8707,-3.8707,-3.8707,-3.8707,-3.8707,-3.8707,-3.8707,-3.8707,-3.8707,-3.8707,-3.8707,-3.8707,-3.8707,-3.8707,-3.8707,-3.8707,-3.8707,-3.8707,-3.8719,-3.8855,-3.8909,-3.8937,0.0,0.0,0.0,0.0,0.0,0.0,0.0,-2.5703,-2.5703,-2.5703,-2.5703,-2.5703,-2.5703,-2.5703,-2.5703,0.0,0.0,0.0,0.0,0.0,0.0,0.0,0.0,0.0,0.0,0.0,0.0,0.0,0.0,0.0,0.0,0.0,0.0,0.0,0.0,-2.5703,-2.5703,-2.5703,-2.5703,0.0,0.0,-2.5703,0.0,0.0,0.0,0.0,0.0,0.0,0.0,0.0,-3.0404,-3.0404,-3.0404,-3.0404,-3.0404,-3.0404,-3.1321,-3.2321,-3.2256,-3.3218,-3.4055,-3.3316,-3.2636,-3.2012,-3.1435,-3.0793,0.0,0.0,-3.0404,-3.0404,-3.0404,0.0,0.0,0.0,0.0,0.0,0.0,0.0,0.0,0.0,0.0,0.0,0.0,0.0,0.0,-3.8707,-3.8707,-3.8707,-3.8707,-3.8707,-3.8707,-3.8707,-3.8707,-3.8707,-3.8707,-3.8707,-3.8707,-3.8707,-3.8707,-3.8707,-3.8707,-3.8707,-3.8707,-3.8707,-3.8707,-3.8707,-3.8707,-3.8707,-3.8735,-3.8788,-3.8788,-3.8833,-3.8917,-3.9131,-3.9218,-3.9238,0.0,0.0,0.0,0.0,0.0,0.0,0.0,-2.5703,-2.5703,-2.5703,-2.5703,-2.5703,-2.5703,-2.5703,-2.5703,0.0,0.0,0.0,0.0,0.0,0.0,0.0,0.0,0.0,0.0,0.0,0.0,0.0,0.0,0.0,0.0,0.0,0.0,0.0,0.0,0.0,-2.5703,-2.5703,0.0,0.0,0.0,0.0,0.0,0.0,0.0,0.0,0.0,0.0,0.0,0.0,0.0,-3.0404,-3.0404,-3.0404,-3.0404,-3.0404,0.0,0.0,-3.1485,-3.2034,-3.2615,-3.2289,-3.1638,-3.1097,-3.1251,0.0,0.0,-3.0355,-3.0404,-3.0404,-3.0404,-3.0373,-3.0273,0.0,0.0,-3.1367,0.0,0.0,0.0,0.0,0.0,0.0,0.0,0.0,0.0,-3.8707,-3.8707,-3.8707,-3.8707,-3.8707,-3.8707,-3.8707,-3.8707,-3.8707,-3.8707,-3.8707,-3.8707,-3.8707,-3.8707,-3.8707,-3.8707,-3.8707,-3.8707,-3.8707,-3.8707,-3.8707,-3.8707,-3.8707,-3.8826,-3.9058,-3.9058,-3.9257,-3.9517,-3.9552,-3.9552,-3.9564,0.0,0.0,0.0,0.0,0.0,0.0,-2.5703,-2.5703,-2.5703,-2.5703,-2.5703,-2.5703,-2.5703,-2.5703,-2.5703,-2.5703,0.0,0.0,0.0,0.0,0.0,0.0,0.0,0.0,0.0,0.0,-2.5703,-2.5703,-2.5703,0.0,0.0,0.0,0.0,0.0,0.0,0.0,0.0,0.0,0.0,0.0,0.0,0.0,0.0,0.0,0.0,0.0,0.0,0.0,0.0,0.0,0.0,0.0,-3.0404,-3.0404,0.0,0.0,-3.1019,-3.168,-3.1564,-3.2126,-3.2603,-3.2,-3.1622,-3.1262,-3.0853,0.0,-3.0267,-3.0373,-3.0404,-3.0404,-3.0404,-3.0404,-3.0361,-3.026,0.0,0.0,0.0,0.0,0.0,0.0,0.0,0.0,0.0,0.0,-3.8707,-3.8707,-3.8707,-3.8707,-3.8707,-3.8707,-3.8707,-3.8707,-3.8707,-3.8707,-3.8707,-3.8707,-3.8707,-3.8707,-3.8707,-3.8707,-3.8707,-3.8707,-3.8707,-3.8707,-3.8707,-3.8707,-3.8707,-3.8707,-3.8855,-3.9112,-3.9112,-3.9302,-3.9622,-3.9819,-3.9901,-3.9922,0.0,0.0,0.0,0.0,0.0,-2.5703,-2.5703,-2.5703,-2.5703,-2.5703,-2.5703,-2.5703,-2.5703,-2.5703,-2.5703,-2.5703,-2.5703,0.0,0.0,0.0,0.0,0.0,0.0,0.0,0.0,0.0,-2.5703,-2.5703,-2.5703,-2.5703,0.0,0.0,0.0,0.0,0.0,0.0,0.0,0.0,0.0,0.0,0.0,0.0,0.0,0.0,0.0,0.0,0.0,0.0,0.0,0.0,0.0,0.0,0.0,0.0,0.0,0.0,-3.0827,-3.1308,-3.1308,-3.1737,-3.2025,-3.1468,-3.1308,-3.1154,0.0,0.0,-3.0404,-3.0404,-3.0404,-3.0404,-3.0404,-3.0404,-3.0404,-3.0404,0.0,-3.0388,0.0,0.0,0.0,0.0,0.0,0.0,0.0,0.0,-3.8707,-3.8707,-3.8707,-3.8707,-3.8707,-3.8707,-3.8707,-3.8707,-3.8707,-3.8707,-3.8707,-3.8707,-3.8707,-3.8707,-3.8707,-3.8707,-3.8707,-3.8707,-3.8732,-3.8833,-3.8833,-3.8873,-3.897,-3.897,-3.9141,-3.9389,-3.9389,-3.958,-3.9884,-4.0129,-4.0213,-4.026,0.0,0.0,0.0,0.0,0.0,0.0,-2.5703,-2.5703,-2.5703,-2.5703,-2.5703,-2.5703,-2.5703,-2.5703,-2.5703,-2.5703,-2.5703,0.0,0.0,0.0,0.0,0.0,0.0,0.0,0.0,0.0,-2.5703,-2.5703,-2.5703,-2.5703,-2.5703,-2.5703,-2.5703,-2.5703,0.0,0.0,0.0,0.0,0.0,0.0,0.0,0.0,0.0,0.0,0.0,0.0,0.0,0.0,0.0,0.0,0.0,0.0,0.0,0.0,0.0,0.0,-3.0404,-3.0404,-3.0404,-3.0423,-3.0423,-3.0423,-3.0404,-3.0404,0.0,0.0,-3.0404,-3.0404,-3.0404,-3.0404,-3.0404,-3.0404,-3.0404,-3.0404,-3.0404,0.0,0.0,0.0,0.0,0.0,0.0,0.0,0.0,-3.7921,-3.8707,-3.8707,-3.8707,-3.8707,-3.8707,-3.8707,-3.8707,-3.8707,-3.8707,-3.8707,-3.8707,-3.8707,-3.8707,-3.8707,-3.8707,-3.8707,-3.8707,-3.8707,-3.8826,-3.9099,-3.9099,-3.9276,-3.9587,-3.9587,-3.9786,-4.0091,-4.0091,-4.025,-4.0489,-4.0489,-4.0489,-4.0496,0.0,0.0,0.0,0.0,0.0,0.0,0.0,-2.5703,-2.5703,-2.5703,-2.5703,-2.5703,-2.5703,-2.5703,-2.5703,-2.5703,-2.5703,0.0,0.0,0.0,0.0,0.0,0.0,0.0,0.0,0.0,-2.5703,-2.5703,-2.6309,-2.6582,-2.6602,-2.7207,-2.748,-2.748,-2.748,0.0,0.0,0.0,0.0,0.0,0.0,0.0,0.0,0.0,0.0,0.0,0.0,0.0,0.0,0.0,0.0,0.0,0.0,0.0,0.0,-3.0404,0.0,0.0,-3.0404,-3.0404,-3.0404,-3.0404,-3.0404,-3.0404,-3.0404,0.0,-3.0404,-3.0404,-3.0404,-3.0404,-3.0404,-3.0404,-3.0404,-3.0404,-3.0404,0.0,0.0,0.0,0.0,0.0,0.0,0.0,0.0,0.0,-3.8777,-3.8961,-3.8971,-3.9068,-3.9301,-3.9332,-3.9127,-3.8704,-3.8707,-3.8707,-3.8707,-3.8707,-3.8707,-3.8707,-3.8898,-3.8971,-3.8971,-3.9197,-3.9346,-3.9438,-3.9438,-3.9498,-3.9599,-3.9599,-3.9797,-4.0101,-4.0101,-4.0258,-4.0496,-4.0496,-4.0496,-4.0496,0.0,0.0,0.0,0.0,0.0,0.0,0.0,-2.5703,-2.5703,-2.5703,-2.5703,-2.5703,-2.5703,-2.5703,-2.5703,-2.5703,-2.5703,0.0,0.0,0.0,0.0,0.0,0.0,0.0,-2.6172,-2.6191,-2.6348,-2.668,-2.7226,-2.748,-2.75,-2.8047,-2.8301,-2.8301,-2.8301,-2.8301,0.0,0.0,0.0,0.0,0.0,0.0,-2.9707,0.0,0.0,0.0,0.0,0.0,0.0,0.0,0.0,0.0,0.0,0.0,0.0,0.0,-3.0404,-3.0404,0.0,-3.0404,-3.0404,-3.0404,-3.0404,0.0,0.0,0.0,-3.0404,-3.0404,-3.0404,-3.0404,-3.0404,-3.0404,-3.0404,-3.0404,0.0,0.0,0.0,0.0,0.0,0.0,0.0,0.0,0.0,-3.8524,-3.8777,-3.8952,-3.9049,-3.9186,-3.9389,-3.9541,-3.9439,-3.905,-3.8913,-3.884,-3.884,-3.8747,-3.8747,-3.884,-3.9008,-3.9178,-3.9289,-3.9498,-3.9668,-3.9786,-3.9786,-3.9851,0.0,-3.9935,-4.0062,-4.0241,-4.0241,-4.0356,-4.0496,-4.0496,-4.0496,-4.0496,0.0,0.0,0.0,0.0,0.0,0.0,0.0,-2.5703,-2.5703,-2.5703,-2.5703,-2.5703,-2.5703,-2.5703,-2.5703,-2.5703,0.0,0.0,0.0,0.0,0.0,0.0,0.0,0.0,-2.707,-2.709,-2.748,-2.8301,-2.8359,-2.8398,-2.8398,-2.8457,-2.8476,-2.8476,-2.8476,-2.8476,-2.8437,-2.7617,-2.7734,-2.8476,-2.8476,-2.8965,0.0,0.0,0.0,0.0,0.0,0.0,0.0,0.0,0.0,0.0,0.0,0.0,0.0,0.0,0.0,0.0,0.0,-3.0404,0.0,0.0,0.0,0.0,0.0,0.0,0.0,0.0,0.0,0.0,-3.0404,-3.0404,0.0,0.0,0.0,0.0,0.0,0.0,0.0,0.0,0.0,0.0,-3.7548,-3.8264,-3.8723,-3.8719,-3.899,-3.9152,-3.916,-3.9486,-3.9668,-3.9668,-3.9339,-3.9165,-3.9139,-3.8884,-3.8884,-3.9139,-3.9165,-3.9327,-3.9634,-3.9656,-3.9829,-4.0129,-4.0129,-4.0258,-4.0496,-4.0496,-4.0496,-4.0496,-4.0496,-4.0496,-4.0496,-4.0496,-4.0496,-4.0496,0.0,0.0,0.0,0.0,0.0,0.0,0.0,0.0,0.0,0.0,-2.5703,-2.5703,-2.5703,-2.5703,-2.5703,0.0,0.0,0.0,0.0,0.0,0.0,0.0,0.0,0.0,-2.7988,-2.7988,-2.8086,-2.8301,-2.8965,-2.9297,-2.9316,-2.998,-3.0293,-3.0293,-3.0293,-3.0293,-3.0273,-3.0078,-3.0098,-3.0293,-3.0293,-3.041,0.0,0.0,0.0,0.0,-3.0898,-3.0879,0.0,0.0,0.0,0.0,0.0,0.0,0.0,0.0,-3.0404,-3.0404,-3.0404,0.0,-3.0404,-3.0404,-3.0404,0.0,0.0,0.0,0.0,0.0,0.0,0.0,0.0,0.0,0.0,0.0,0.0,0.0,0.0,0.0,0.0,0.0,0.0,-3.7013,-3.8572,-3.8704,-3.8792,-3.8985,-3.9308,-3.9599,-3.984,-4.0129,-4.0283,-4.0283,-4.0013,-3.9742,-3.9474,-3.942,-3.942,-3.9493,-3.9742,-3.9901,-3.9992,-4.0194,-4.0328,-4.0417,-4.0417,-4.0449,-4.0496,-4.0496,-4.0496,-4.0496,-4.0496,-4.0496,-4.0496,-4.0496,-4.0496,-4.0496,0.0,0.0,0.0,0.0,0.0,0.0,0.0,0.0,0.0,0.0,0.0,0.0,0.0,0.0,0.0,0.0,0.0,0.0,0.0,0.0,0.0,0.0,0.0,-2.8008,-2.8887,-2.8906,-2.9082,-2.9492,-2.9961,-3.0195,-3.0215,-3.0684,-3.0898,-3.0898,-3.0898,-3.0898,-3.0879,-3.0469,-3.0527,-3.0879,-3.0469,0.0,0.0,0.0,0.0,0.0,-3.0898,-3.0898,0.0,-3.0898,-3.0815,-3.0687,0.0,0.0,0.0,0.0,-3.0404,-3.0404,-3.0404,-3.0404,-3.0404,-3.0404,-3.0404,-3.0404,0.0,0.0,0.0,0.0,0.0,0.0,0.0,0.0,0.0,0.0,0.0,0.0,0.0,0.0,0.0,0.0,0.0,-3.7044,0.0,-3.8753,-3.888,-3.8923,-3.9469,-3.9829,-3.988,-4.0276,-4.0496,-4.0496,-4.0356,-4.0139,-3.9829,-3.9668,-3.9668,-3.9829,-4.0012,-4.0158,-4.0295,-4.0422,-4.0496,-4.0496,-4.0496,-4.0496,-4.0496,-4.0496,-4.0496,-4.0496,-4.0496,-4.0496,-4.0496,-4.0496,-4.0496,-4.0496,0.0,0.0,0.0,0.0,0.0,0.0,0.0,0.0,0.0,0.0,0.0,0.0,0.0,0.0,0.0,0.0,0.0,0.0,0.0,0.0,0.0,0.0,-2.8105,-2.8906,-2.9785,-2.9805,-3.0156,-3.0898,-3.0898,-3.0898,-3.0898,-3.0898,-3.0898,-3.0898,-3.0898,-3.0898,-3.0859,-3.0117,-3.0215,-3.084,-3.0098,0.0,0.0,0.0,0.0,0.0,0.0,0.0,0.0,-3.0898,-3.0816,-3.0716,-3.0643,0.0,0.0,0.0,0.0,0.0,-3.0404,-3.0404,-3.0404,-3.0404,-3.0404,-3.0404,0.0,0.0,0.0,0.0,0.0,0.0,0.0,0.0,0.0,0.0,0.0,0.0,0.0,0.0,0.0,0.0,0.0,0.0,-3.8147,-3.8807,-3.9077,-3.8862,-3.9625,-3.9982,-3.9679,-4.0193,-4.0496,-4.0496,-4.0496,-4.0389,-4.0158,-3.9882,-3.9882,-4.0158,-4.0158,-4.0286,-4.0496,-4.0496,-4.0496,-4.0496,-4.0496,-4.0496,-4.0496,-4.0496,-4.0496,-4.0496,-4.0496,-4.0496,-4.0496,-4.0496,-4.0496,-4.0496,0.0,0.0,0.0,0.0,0.0,0.0,0.0,0.0,0.0,0.0,0.0,0.0,0.0,0.0,0.0,0.0,0.0,0.0,0.0,0.0,0.0,-2.9199,-2.9336,-2.9805,-3.0684,-3.0703,-3.0762,-3.0898,-3.0898,-3.0898,-3.0898,-3.0898,-3.0898,-3.0898,-3.0898,-3.0898,-3.0898,-3.0762,-3.0781,-3.0898,-3.0742,0.0,0.0,0.0,0.0,0.0,0.0,0.0,0.0,-3.0898,-3.0898,-3.0857,-3.0717,0.0,0.0,0.0,0.0,0.0,-3.0404,-3.0404,-3.0404,-3.0404,-3.0404,-3.0404,0.0,0.0,0.0,0.0,0.0,0.0,0.0,0.0,0.0,0.0,0.0,0.0,0.0,0.0,0.0,0.0,0.0,-3.7756,-3.9599,-3.9622,-3.9505,-3.9457,-3.9859,-4.0081,-4.0022,-4.0339,-4.0496,-4.0496,-4.0496,-4.0481,-4.0449,-4.0397,-4.0397,-4.0449,-4.0449,-4.0465,-4.0496,-4.0496,-4.0496,-4.0496,-4.0496,-4.0496,-4.0496,-4.0496,-4.0496,-4.0496,-4.0496,-4.0496,-4.0496,-4.0496,-4.0496,-4.0496,0.0,0.0,0.0,0.0,0.0,0.0,0.0,0.0,0.0,0.0,0.0,0.0,0.0,0.0,0.0,0.0,0.0,0.0,0.0,0.0,-2.9805,-3.0273,-3.0293,-3.0488,-3.0898,-3.0898,-3.0898,-3.0898,-3.0898,-3.0898,-3.0898,-3.0898,-3.0898,-3.0898,-3.0898,-3.0898,-3.0898,-3.0898,-3.0898,-3.0898,0.0,0.0,0.0,0.0,0.0,0.0,0.0,0.0,0.0,0.0,-3.0898,-3.0878,-3.0744,0.0,0.0,0.0,0.0,0.0,-3.0404,-3.0404,-3.0404,-3.0404,-3.0404,-3.0404,0.0,0.0,0.0,0.0,0.0,0.0,0.0,0.0,0.0,0.0,0.0,0.0,0.0,0.0,-3.5983,0.0,0.0,-3.8041,-3.9919,-3.9953,-3.9797,-3.9611,-4.0053,-4.0241,-4.011,-4.0356,-4.0496,-4.0496,-4.0496,-4.0496,-4.0496,-4.0496,-4.0496,-4.0496,-4.0496,-4.0496,-4.0496,-4.0496,-4.0496,-4.0496,-4.0496,-4.0496,-4.0496,-4.0496,-4.0496,-4.0496,-4.0496,-4.0496,-4.0496,-4.0496,-4.0496,-4.0496,0.0,0.0,0.0,0.0,0.0,0.0,0.0,0.0,0.0,0.0,0.0,0.0,0.0,0.0,0.0,0.0,0.0,0.0,0.0,-2.9902,-3.0195,-3.0879,-3.0898,-3.0898,-3.0898,-3.0898,-3.0898,-3.0898,-3.0898,-3.0898,-3.0898,-3.0898,-3.0898,-3.0898,-3.0898,-3.0898,-3.0898,-3.0898,-3.0898,-3.0898,0.0,0.0,0.0,0.0,0.0,0.0,0.0,0.0,0.0,0.0,0.0,0.0,0.0,0.0,0.0,-3.0541,-3.0467,-3.0404,-3.0404,-3.0404,-3.0404,-3.0404,-3.0404,0.0,0.0,0.0,0.0,0.0,0.0,0.0,0.0,0.0,0.0,0.0,0.0,0.0,-3.4372,-3.5238,-3.6327,-3.7815,-3.7956,-3.8523,-4.0052,-4.0186,-4.0091,-3.9832,-4.0248,-4.0406,-4.0204,-4.0381,-4.0496,-4.0496,-4.0496,-4.0496,-4.0496,-4.0496,-4.0496,-4.0496,-4.0496,-4.0496,-4.0496,-4.0496,-4.0496,-4.0496,-4.0496,-4.0496,-4.0496,-4.0496,-4.0496,-4.0496,-4.0496,-4.0496,-4.0496,-4.0496,-4.0496,-4.0496,0.0,0.0,0.0,0.0,0.0,0.0,0.0,0.0,0.0,0.0,0.0,0.0,0.0,0.0,0.0,0.0,0.0,0.0,0.0,-3.0801,-3.082,-3.0898,-3.0898,-3.0898,-3.0898,-3.0898,-3.0898,-3.0898,-3.0898,-3.0898,-3.0898,-3.0898,-3.0898,-3.0898,-3.0898,-3.0898,-3.0898,-3.0898,-3.0898,-3.0898,-3.0898,0.0,0.0,0.0,0.0,0.0,0.0,0.0,0.0,0.0,0.0,0.0,0.0,0.0,-3.0603,-3.0597,-3.0498,-3.0404,-3.0404,-3.0404,-3.0404,-3.0404,-3.0404,0.0,-3.0404,-3.0404,0.0,-3.0404,0.0,0.0,0.0,0.0,0.0,0.0,0.0,-3.441,-3.5269,0.0,-3.6962,-3.7892,-3.8692,-3.9512,-4.0396,-4.0473,-4.0465,-4.043,-4.0481,-4.0489,-4.0473,-4.0489,-4.0496,-4.0496,-4.0496,-4.0496,-4.0496,-4.0496,-4.0496,-4.0496,-4.0496,-4.0496,-4.0496,-4.0496,-4.0496,-4.0496,-4.0496,-4.0496,-4.0496,-4.0496,-4.0496,-4.0496,-4.0496,-4.0496,-4.0496,-4.0496,-4.0496,-4.0496,0.0,0.0,0.0,0.0,0.0,0.0,0.0,0.0,0.0,0.0,0.0,0.0,0.0,0.0,0.0,0.0,0.0,0.0,0.0,-3.0898,-3.0898,-3.0898,-3.0898,-3.0898,-3.0898,-3.0898,-3.0898,-3.0898,-3.0898,-3.0898,-3.0898,-3.0898,-3.0898,-3.0898,-3.0898,-3.0898,-3.0898,-3.0898,-3.0898,-3.0898,-3.0898,-3.0898,0.0,0.0,0.0,0.0,0.0,0.0,0.0,0.0,-3.0898,-3.0898,-3.0898,-3.0789,-3.0667,-3.0667,-3.0565,-3.0467,-3.0467,-3.0439,-3.0404,-3.0404,-3.0404,0.0,0.0,-3.0404,-3.0404,-3.0404,-3.0404,0.0,0.0,0.0,0.0,0.0,0.0,-3.4507,-3.5385,-3.6192,-3.7019,-3.7892,-3.8757,-3.9631,-4.0419,-4.0496,-4.0496,-4.0496,-4.0496,-4.0496,-4.0496,-4.0496,-4.0496,-4.0496,-4.0496,-4.0496,-4.0496,-4.0496,-4.0496,-4.0496,-4.0496,-4.0496,-4.0496,-4.0496,-4.0496,-4.0496,-4.0496,-4.0496,-4.0496,-4.0496,-4.0496,-4.0496,-4.0496,-4.0496,-4.0496,-4.0496,-4.0496,-4.0496,0.0,0.0,0.0,0.0,0.0,0.0,0.0,0.0,0.0,0.0,0.0,0.0,0.0,0.0,0.0,0.0,0.0,0.0,-3.0898,-3.0898,-3.0898,-3.0898,-3.0898,-3.0898,-3.0898,-3.0898,-3.0898,-3.0898,-3.0898,-3.0898,-3.0898,-3.0898,-3.0898,-3.0898,-3.0898,-3.0898,-3.0898,-3.0898,-3.0898,-3.0898,-3.0898,-3.0898,0.0,0.0,0.0,0.0,0.0,0.0,0.0,0.0,-3.0898,-3.0898,-3.0898,-3.0814,-3.0692,-3.0679,-3.0594,-3.0494,-3.0472,-3.0425,-3.0404,-3.0404,0.0,0.0,-3.0404,-3.0404,-3.0404,-3.0404,-3.0615,0.0,0.0,0.0,0.0,0.0,-3.443,-3.4814,-3.5423,-3.6192,-3.7019,-3.7892,-3.8757,-3.9631,-4.0419,-4.0496,-4.0496,-4.0496,-4.0496,-4.0496,-4.0496,-4.0496,-4.0496,-4.0496,-4.0496,-4.0496,-4.0496,-4.0496,-4.0496,-4.0496,-4.0496,-4.0496,-4.0496,-4.0496,-4.0496,-4.0496,-4.0496,-4.0496,-4.0496,-4.0496,-4.0496,-4.0496,-4.0496,-4.0496,-4.0496,-4.0496,-4.0496,-4.0496,0.0,0.0,0.0,0.0,0.0,0.0,0.0,0.0,0.0,0.0,0.0,0.0,0.0,0.0,0.0,0.0,0.0,0.0,-3.0898,-3.0898,-3.0898,-3.0898,-3.0898,-3.0898,-3.0898,-3.0898,-3.0898,-3.0898,-3.0898,-3.0898,-3.0898,-3.0898,-3.0898,-3.0898,-3.0898,-3.0898,-3.0898,-3.0898,-3.0898,-3.0898,-3.0898,-3.0898,-3.0898,0.0,0.0,0.0,0.0,0.0,0.0,0.0,-3.0898,-3.0898,-3.0898,-3.0814,-3.0687,-3.0628,-3.0544,-3.0495,-3.0411,-3.0404,-3.0404,0.0,0.0,0.0,-3.0404,-3.0404,-3.0404,-3.0404,0.0,-3.1948,-3.2756,0.0,0.0,-3.4205,-3.4949,-3.55,-3.55,-3.6192,-3.7019,-3.7873,-3.8757,-3.9611,-4.0419,-4.0496,-4.0496,-4.0496,-4.0496,-4.0496,-4.0496,-4.0496,-4.0496,-4.0496,-4.0496,-4.0496,-4.0496,-4.0496,-4.0496,-4.0496,-4.0496,-4.0496,-4.0496,-4.0496,-4.0496,-4.0496,-4.0496,-4.0496,-4.0496,-4.0496,-4.0496,-4.0496,-4.0496,-4.0496,-4.0496,-4.0496,-4.0496,-4.0496,0.0,0.0,0.0,0.0,0.0,0.0,0.0,0.0,0.0,0.0,0.0,0.0,0.0,0.0,0.0,0.0,0.0,0.0,-3.0898,-3.0898,-3.0898,-3.0898,-3.0898,-3.0898,-3.0898,-3.0898,-3.0898,-3.0898,-3.0898,-3.0898,-3.0898,-3.0898,-3.0898,-3.0898,-3.0898,-3.0898,-3.0898,-3.0898,-3.0898,-3.0898,-3.0898,-3.0898,-3.0898,0.0,0.0,0.0,0.0,0.0,0.0,0.0,0.0,0.0,-3.0898,-3.0878,-3.0837,-3.0812,-3.0704,-3.0575,-3.0592,-3.0511,0.0,0.0,0.0,0.0,0.0,-3.0404,0.0,0.0,-3.1525,-3.2122,-3.3545,0.0,0.0,-3.5007,-3.5327,-3.55,-3.55,-3.6192,-3.6788,-3.7038,-3.8392,-3.94,-3.9631,-4.0169,-4.0496,-4.0496,-4.0496,-4.0496,-4.0496,-4.0496,-4.0496,-4.0496,-4.0496,-4.0496,-4.0496,-4.0496,-4.0496,-4.0496,-4.0496,-4.0496,-4.0496,-4.0496,-4.0496,-4.0496,-4.0496,-4.0496,-4.0496,-4.0496,-4.0496,-4.0496,-4.0496,-4.0496,-4.0496,-4.0496,-4.0496,-4.0496,0.0,0.0,0.0,0.0,0.0,0.0,0.0,0.0,0.0,0.0,0.0,0.0,0.0,0.0,0.0,0.0,0.0,0.0,0.0,-3.0898,-3.0898,-3.0898,-3.0898,-3.0898,-3.0898,-3.0898,-3.0898,-3.0898,-3.0898,-3.0898,-3.0898,-3.0898,-3.0898,-3.0898,-3.0898,-3.0898,-3.0898,-3.0898,-3.0898,-3.0898,-3.0898,-3.0898,-3.0898,0.0,0.0,0.0,0.0,0.0,0.0,0.0,0.0,0.0,-3.0898,-3.0898,-3.0879,-3.0808,-3.0687,-3.06,-3.0587,0.0,0.0,0.0,0.0,0.0,0.0,0.0,0.0,0.0,0.0,-3.3103,-3.4468,-3.4718,0.0,-3.5404,-3.55,-3.55,-3.55,-3.5923,-3.6346,-3.6654,-3.7623,-3.8392,-3.8738,-3.9219,-3.965,-3.9996,-4.0015,-4.0169,-4.0477,-4.0496,-4.0496,-4.0496,-4.0496,-4.0496,-4.0496,-4.0496,-4.0496,-4.0496,-4.0496,-4.0496,-4.0496,-4.0496,-4.0496,-4.0496,-4.0496,-4.0496,-4.0496,-4.0496,-4.0496,-4.0496,-4.0496,-4.0496,-4.0496,-4.0496,-4.0496,-4.0496,0.0,0.0,0.0,0.0,0.0,0.0,0.0,0.0,0.0,0.0,-3.0898,0.0,0.0,0.0,0.0,0.0,0.0,0.0,0.0,-3.0898,-3.0898,-3.0898,-3.0898,-3.0898,-3.0898,-3.0898,-3.0898,-3.0898,-3.0898,-3.0898,-3.0898,-3.0898,-3.0898,-3.0898,-3.0898,-3.0898,-3.0898,-3.0898,-3.0898,-3.0898,-3.0898,-3.0898,-3.0898,-3.0898,0.0,0.0,0.0,0.0,0.0,0.0,0.0,0.0,-3.0898,-3.0898,-3.0857,-3.0678,-3.0614,-3.0571,-3.0457,0.0,0.0,0.0,0.0,0.0,0.0,0.0,0.0,0.0,0.0,-3.4468,-3.5346,-3.5494,-3.5508,-3.5508,-3.5521,-3.5509,-3.5509,-3.5509,-3.5778,-3.651,-3.6683,-3.7037,-3.7826,-3.798,-3.8366,-3.9155,-3.9213,-3.9514,-4.0231,-4.0288,-4.0281,-4.0265,-4.0265,-4.0304,-4.04,-4.04,-4.0439,-4.0496,-4.0496,-4.0496,-4.0496,-4.0496,-4.0496,-4.0496,-4.0496,-4.0496,-4.0496,-4.0496,-4.0496,-4.0496,-4.0496,-4.0496,-4.0496,-4.0496,-4.0496,-4.0496,0.0,0.0,0.0,0.0,0.0,0.0,0.0,0.0,0.0,0.0,0.0,0.0,0.0,0.0,0.0,0.0,0.0,0.0,0.0,-3.0898,-3.0898,-3.0898,-3.0898,-3.0898,-3.0898,-3.0898,-3.0898,-3.0898,-3.0898,-3.0898,-3.0898,-3.0898,-3.0898,-3.0898,-3.0898,-3.0898,-3.0898,-3.0898,-3.0898,-3.0898,-3.0898,-3.0898,-3.0898,-3.0898,-3.0898,0.0,0.0,0.0,0.0,0.0,0.0,0.0,-3.0898,-3.0898,-3.0898,-3.0856,-3.0721,-3.0611,0.0,0.0,0.0,0.0,0.0,0.0,0.0,0.0,0.0,0.0,-3.3583,-3.4468,-3.5346,-3.5534,-3.5582,-3.5582,-3.5616,-3.5659,-3.5659,-3.5659,-3.5717,-3.5892,-3.6528,-3.701,-3.7195,-3.7836,-3.8316,-3.851,-3.853,-3.8549,-3.8618,-3.8632,-3.8595,-3.8534,-3.8546,-3.8873,-3.9554,-3.9554,-3.9881,-4.0496,-4.0496,-4.0496,-4.0496,-4.0496,-4.0496,-4.0496,-4.0496,-4.0496,-4.0496,-4.0496,-4.0496,-4.0496,-4.0496,-4.0496,-4.0496,-4.0496,-4.0496,-4.0496,0.0,0.0,0.0,0.0,0.0,0.0,0.0,0.0,0.0,0.0,0.0,0.0,0.0,0.0,0.0,0.0,0.0,0.0,0.0,0.0,-3.0898,-3.0898,-3.0898,-3.0898,-3.0898,-3.0898,-3.0898,-3.0898,-3.0898,-3.0898,-3.0898,-3.0898,-3.0898,-3.0898,-3.0898,-3.0898,-3.0898,-3.0898,-3.0898,-3.0898,-3.0898,-3.0898,-3.0898,-3.0898,-3.0898,-3.0898,-3.0898,0.0,0.0,0.0,0.0,0.0,0.0,0.0,-3.0898,-3.0816,-3.0735,-3.0657,0.0,0.0,0.0,0.0,0.0,0.0,0.0,0.0,0.0,0.0,-3.4037,-3.5063,-3.5503,-3.5621,-3.5642,-3.5642,-3.5671,-3.5707,-3.5707,-3.5707,-3.5707,-3.5707,-3.6093,-3.6381,-3.6377,-3.6782,-3.723,-3.7654,-3.7673,-3.7825,-3.8171,-3.8205,-3.8175,-3.8144,-3.8139,-3.8352,-3.8816,-3.9228,-3.966,-4.0066,-4.0459,-4.0633,-4.0633,-4.054,-4.0496,-4.0496,-4.0496,-4.0496,-4.0496,-4.0496,-4.0496,-4.0496,-4.0496,-4.0496,-4.0496,-4.0496,-4.0496,-4.0496,0.0,0.0,0.0,0.0,0.0,0.0,0.0,0.0,0.0,0.0,0.0,0.0,0.0,0.0,0.0,0.0,0.0,0.0,0.0,0.0,0.0,-3.0898,-3.0898,-3.0898,-3.0898,-3.0898,-3.0898,-3.0898,-3.0898,-3.0898,-3.0898,-3.0898,-3.0898,-3.0898,-3.0898,-3.0898,-3.0898,-3.0898,-3.0898,-3.0898,-3.0898,-3.0898,-3.0898,-3.0898,-3.0898,-3.0898,-3.0898,-3.0898,-3.0898,-3.0898,0.0,0.0,0.0,0.0,-3.0879,-3.0769,-3.072,-3.0687,0.0,0.0,0.0,0.0,0.0,0.0,0.0,0.0,0.0,-3.3201,-3.4549,-3.5707,-3.5707,-3.5717,-3.5726,-3.5726,-3.5738,-3.5747,-3.5747,-3.5747,-3.5747,-3.5747,-3.5747,-3.5747,-3.5747,-3.5747,-3.6059,-3.6774,-3.6832,-3.7134,-3.7851,-3.7886,-3.7883,-3.7844,-3.7844,-3.7922,-3.8074,-3.8782,-3.9233,-3.9385,-4.019,-4.0661,-4.0793,-4.0629,-4.0559,-4.0523,-4.0523,-4.0527,-4.0496,-4.0496,-4.0496,-4.0496,-4.0496,-4.0496,-4.0496,-4.0496,-4.0496,-4.0496,0.0,0.0,0.0,0.0,0.0,0.0,0.0,0.0,0.0,0.0,0.0,0.0,0.0,0.0,0.0,0.0,0.0,0.0,0.0,0.0,0.0,-3.0898,-3.0898,-3.0898,-3.0898,-3.0898,-3.0898,-3.0898,-3.0898,-3.0898,-3.0898,-3.0898,-3.0898,-3.0898,-3.0898,-3.0898,-3.0898,-3.0898,-3.0898,-3.0898,-3.0898,-3.0898,-3.0898,-3.0898,-3.0898,-3.0898,-3.0898,-3.0898,-3.0898,-3.0898,-3.0898,0.0,0.0,0.0,-3.0898,-3.0879,-3.0793,-3.0693,0.0,0.0,0.0,0.0,0.0,0.0,0.0,0.0,0.0,0.0,-3.4569,-3.5707,-3.5707,-3.5799,-3.5873,-3.5873,-3.5923,-3.5954,-3.5954,-3.5954,-3.5954,-3.5954,-3.5954,-3.5954,-3.5954,-3.5954,-3.6013,-3.6111,-3.613,-3.6161,-3.6224,-3.6222,-3.618,-3.6054,-3.6054,-3.6416,-3.7168,-3.7288,-3.7735,-3.8482,-3.9346,-4.0132,-4.0797,-4.0768,-4.0732,-4.0667,-4.0667,-4.0603,-4.0496,-4.0496,-4.0496,-4.0496,-4.0496,-4.0496,-4.0496,-4.0496,-4.0496,-4.0496,0.0,0.0,0.0,0.0,0.0,0.0,0.0,0.0,0.0,0.0,0.0,0.0,0.0,0.0,0.0,0.0,0.0,0.0,0.0,0.0,0.0,-3.0898,-3.0898,-3.0898,-3.0898,-3.0898,-3.0898,-3.0898,-3.0898,-3.0898,0.0,-3.0898,-3.0898,-3.0898,-3.0898,-3.0898,-3.0898,-3.0898,-3.0898,-3.0898,-3.0898,-3.0898,-3.0898,-3.0898,-3.0898,-3.0898,-3.0898,-3.0898,-3.0898,-3.0898,-3.0898,-3.0898,-3.0898,0.0,0.0,0.0,0.0,0.0,0.0,0.0,0.0,0.0,0.0,0.0,0.0,0.0,0.0,-3.2613,-3.3618,-3.4719,-3.5697,-3.5923,-3.597,-3.597,-3.5975,-3.5996,-3.5996,-3.5996,-3.5996,-3.5996,-3.5996,-3.5996,-3.5996,-3.5996,-3.5996,-3.5996,-3.5996,-3.5995,-3.5951,-3.597,-3.5926,-3.5874,-3.5872,-3.6046,-3.6433,-3.6925,-3.7608,-3.8463,-3.8855,-3.9479,-4.0301,-4.0301,-4.0463,-4.0762,-4.0762,-4.0704,-4.061,-4.061,-4.0574,-4.0496,-4.0496,-4.0496,-4.0496,-4.0496,-4.0496,-4.0496,0.0,0.0,0.0,0.0,0.0,0.0,0.0,0.0,0.0,0.0,0.0,0.0,0.0,0.0,0.0,0.0,0.0,0.0,0.0,0.0,0.0,-3.123,-3.123,-3.1133,-3.0898,-3.0898,-3.0898,-3.0898,-3.0898,-3.0898,-3.0898,-3.0898,-3.0898,-3.0898,-3.0898,-3.0898,-3.0898,-3.0898,-3.1035,-3.123,-3.123,-3.1348,-3.1543,-3.1543,-3.1543,-3.1543,-3.1543,-3.1543,-3.1543,-3.1543,-3.1543,-3.1543,-3.1543,-3.1543,0.0,0.0,0.0,0.0,0.0,0.0,0.0,0.0,0.0,0.0,0.0,0.0,-3.2578,0.0,-3.3301,-3.4199,-3.5723,-3.582,-3.5742,-3.5957,-3.5996,-3.5996,-3.5996,-3.5996,-3.5996,-3.5996,-3.5996,-3.5996,-3.5996,-3.5996,-3.5996,-3.5996,-3.5996,-3.5996,-3.5996,-3.5996,-3.5996,-3.5996,-3.5996,-3.5996,-3.5996,-3.6641,-3.7402,-3.8262,-3.8262,-3.873,-3.957,-3.957,-3.9948,-4.0574,-4.0766,-4.0796,-4.0735,-4.0735,-4.0672,-4.0584,-4.0584,-4.0575,-4.0552,-4.0552,-4.0534,-4.0496,0.0,0.0,0.0,0.0,0.0,0.0,0.0,0.0,0.0,0.0,0.0,0.0,-3.3262,-3.3262,-3.3262,-3.3262,-3.3262,0.0,0.0,0.0,0.0,-3.2168,-3.2129,0.0,-3.0918,-3.0898,-3.0898,-3.0898,-3.0898,-3.0898,-3.0898,-3.0898,-3.0898,-3.0898,-3.0898,-3.0898,-3.0898,0.0,0.0,0.0,-3.2129,-3.2598,-3.3262,-3.3262,-3.3262,-3.3262,-3.3262,-3.3262,-3.3262,-3.3262,-3.3262,-3.3262,-3.3262,-3.3262,-3.3262,0.0,0.0,0.0,0.0,0.0,0.0,0.0,0.0,0.0,0.0,0.0,0.0,-3.4394,-3.4609,-3.4902,-3.582,-3.5312,-3.5039,-3.5879,-3.5996,-3.5996,-3.5996,-3.5996,-3.5996,-3.5996,-3.5996,-3.5996,-3.5996,-3.5996,-3.5996,-3.5996,-3.5996,-3.5996,-3.5996,-3.5996,-3.5996,-3.5996,-3.5996,-3.5996,-3.5996,-3.6035,-3.6504,-3.7363,-3.7363,-3.7812,-3.8672,-3.8672,-3.914,-3.9999,-4.0699,-4.0914,-4.0789,-4.0789,-4.0785,-4.0781,-4.0781,-4.0752,-4.0686,-4.0686,-4.061,-4.0496,0.0,0.0,0.0,0.0,0.0,0.0,0.0,0.0,0.0,0.0,0.0,0.0,0.0,-3.3398,-3.3398,-3.3398,-3.3398,0.0,0.0,0.0,0.0,-3.2988,-3.2969,-3.2812,-3.2519,-3.25,-3.25,-3.25,-3.25,-3.25,-3.25,-3.25,-3.25,-3.248,-3.1953,-3.1738,-3.1777,-3.2285,0.0,0.0,0.0,0.0,0.0,0.0,0.0,0.0,0.0,0.0,0.0,-3.3398,-3.3398,-3.3398,-3.3398,-3.3398,-3.3398,0.0,0.0,0.0,0.0,0.0,0.0,0.0,0.0,0.0,0.0,-3.3398,-3.3496,-3.3809,-3.3867,-3.4121,-3.5,-3.5371,-3.5644,-3.5957,-3.5996,-3.5996,-3.5996,-3.5996,-3.5996,-3.5996,-3.5996,-3.5996,-3.5996,-3.5996,-3.5996,-3.5996,-3.5996,-3.5996,-3.5996,-3.5996,-3.5996,-3.5996,-3.5996,-3.5996,-3.5996,-3.5996,-3.6152,-3.6465,-3.6465,-3.6914,-3.7773,-3.7773,-3.8242,-3.9101,-3.9939,-4.0545,-4.0922,-4.0922,-4.0874,-4.0797,-4.0797,-4.0792,-4.0757,-4.0757,-4.071,-4.063,0.0,0.0,0.0,0.0,0.0,0.0,0.0,0.0,0.0,-3.4238,0.0,0.0,0.0,0.0,-3.4277,-3.4277,-3.4277,-3.4277,-3.4277,-3.4277,-3.4141,-3.3848,-3.3848,-3.3691,-3.3418,-3.3144,-3.3125,-3.3398,-3.3125,-3.3144,-3.3398,-3.3398,-3.3398,-3.3398,-3.3144,-3.2871,0.0,0.0,0.0,-3.3848,0.0,0.0,-3.4277,0.0,0.0,0.0,0.0,0.0,0.0,0.0,-3.4277,-3.4277,-3.4277,-3.4277,0.0,0.0,0.0,0.0,0.0,0.0,0.0,0.0,0.0,0.0,0.0,0.0,-3.4277,-3.4277,-3.4277,-3.4453,-3.5039,-3.5605,-3.5996,-3.5996,-3.5996,-3.5996,-3.5996,-3.5996,-3.5996,-3.5996,-3.5996,-3.5996,-3.5996,-3.5996,-3.5996,-3.5996,-3.5996,-3.5996,-3.5996,-3.5996,-3.5996,-3.5996,-3.5996,-3.5996,-3.5996,-3.5996,-3.5996,-3.5996,-3.5996,-3.6309,-3.6855,-3.6855,-3.7344,-3.8203,-3.8789,-3.9645,-4.0646,-4.0959,-4.1002,-4.0925,-4.0925,-4.0911,-4.0867,-4.0867,-4.0805,-4.0736,0.0,0.0,0.0,0.0,0.0,0.0,0.0,0.0,-3.5039,-3.5898,0.0,0.0,0.0,0.0,0.0,-3.5996,-3.5996,-3.5996,-3.5996,-3.5996,-3.5625,-3.4785,0.0,0.0,0.0,-3.2715,-3.2695,-3.3476,-3.2695,-3.2715,-3.3476,-3.3476,-3.3476,-3.3516,-3.4355,-3.4277,-3.3476,0.0,-3.3965,-3.4746,0.0,-3.5254,-3.5996,0.0,0.0,0.0,-3.5996,-3.5996,0.0,-3.5996,0.0,0.0,0.0,0.0,0.0,0.0,0.0,0.0,0.0,0.0,0.0,0.0,0.0,0.0,-3.5996,0.0,-3.5996,-3.5996,-3.5996,-3.5996,-3.5996,-3.5996,-3.5996,-3.5996,-3.5996,-3.5996,-3.5996,-3.5996,-3.5996,-3.5996,-3.5996,-3.5996,-3.5996,-3.5996,-3.5996,-3.5996,-3.5996,-3.5996,-3.5996,-3.5996,-3.5996,-3.5996,-3.5996,-3.5996,-3.5996,-3.5996,-3.5996,-3.5996,-3.5996,-3.5996,-3.5996,-3.5996,-3.6465,-3.7266,-3.7285,-3.8262,-3.9883,-4.0781,-4.1152,-4.1152,-4.1191,-4.1126,-4.1017,-4.1017,-4.092,-4.0805,0.0,0.0,0.0,0.0,0.0,0.0,-3.5511,-3.5595,-3.5723,0.0,0.0,0.0,-3.5996,-3.5996,-3.5996,-3.5996,-3.5996,-3.5996,-3.5996,-3.5996,-3.5898,-3.5644,-3.5644,-3.5527,-3.5293,-3.5059,-3.5059,-3.5273,-3.5059,-3.5059,-3.5273,-3.5273,-3.5273,-3.5293,-3.5527,-3.5508,-3.5273,-3.5273,0.0,-3.5644,-3.5644,-3.5781,0.0,0.0,0.0,0.0,0.0,-3.5996,-3.5996,0.0,-3.5996,-3.5996,0.0,0.0,0.0,0.0,0.0,0.0,-3.5996,0.0,0.0,0.0,0.0,0.0,0.0,0.0,-3.5996,-3.5996,-3.5996,-3.5996,-3.5996,-3.5996,-3.5996,-3.5996,-3.5996,-3.5996,-3.5996,-3.5996,-3.5996,-3.5996,-3.5996,-3.5996,-3.5996,-3.5996,-3.5996,-3.5996,-3.5996,-3.5996,-3.5996,-3.5996,-3.5996,-3.5996,-3.5996,-3.5996,-3.5996,-3.5996,-3.5996,-3.5996,-3.5996,-3.5996,-3.5996,-3.5996,-3.6133,-3.6387,-3.7031,-3.7578,-3.8144,-3.9648,-4.0254,-4.0312,-4.0957,-4.1171,-4.1149,-4.1149,-4.1055,-4.0933,0.0,0.0,0.0,0.0,0.0,0.0,-3.5901,-3.595,-3.5996,0.0,0.0,0.0,-3.5996,-3.5996,-3.5996,-3.5996,-3.5996,-3.5996,-3.5996,-3.5996,-3.5996,-3.5996,-3.5996,-3.5996,-3.5996,-3.5644,-3.5644,-3.5996,-3.5644,-3.5644,-3.5996,-3.5996,-3.5996,-3.5996,0.0,0.0,0.0,0.0,0.0,0.0,-3.5996,0.0,0.0,-3.5996,-3.5996,0.0,0.0,0.0,-3.5996,-3.5996,-3.5996,0.0,0.0,0.0,0.0,0.0,0.0,0.0,0.0,0.0,0.0,0.0,0.0,0.0,-3.5903,-3.594,-3.5972,-3.5996,-3.5996,-3.5996,-3.5996,-3.5996,-3.5996,-3.5996,-3.5996,-3.5996,-3.5996,-3.5996,-3.5996,-3.5996,-3.5996,-3.5859,-3.5488,-3.5469,-3.5469,-3.5469,-3.5469,-3.5625,-3.5976,-3.5996,-3.5996,-3.5996,-3.5996,-3.5996,-3.5996,-3.5996,-3.5996,-3.5996,-3.5996,-3.5996,-3.5996,-3.5996,-3.5996,-3.6035,-3.6543,-3.6758,-3.6855,-3.8242,-3.9238,-3.9941,-4.0469,-4.0879,-4.1191,-4.1191,-4.115,-4.1081,0.0,0.0,0.0,-3.5732,-3.5821,-3.591,-3.591,-3.5951,-3.5996,0.0,-3.5996,-3.5996,-3.5996,-3.5996,-3.5996,-3.5996,-3.5996,-3.5996,-3.5996,-3.5996,-3.5996,-3.5996,-3.5996,-3.5996,-3.5996,-3.5234,-3.5215,-3.5996,-3.5215,-3.5234,-3.5996,-3.5996,-3.5996,-3.5996,0.0,0.0,0.0,0.0,0.0,-3.5996,-3.5996,-3.5996,0.0,0.0,-3.5996,-3.5996,-3.5996,-3.5996,-3.5996,-3.5996,-3.5996,0.0,0.0,0.0,0.0,0.0,-3.5949,0.0,0.0,0.0,0.0,0.0,0.0,0.0,-3.5836,-3.5871,-3.5887,-3.5953,-3.5975,-3.5975,-3.5975,-3.5975,-3.5975,-3.5975,-3.5976,-3.5996,-3.5996,-3.5996,-3.5996,-3.5996,-3.5996,-3.5664,-3.4785,-3.4707,-3.4668,-3.4551,-3.4648,-3.5039,-3.5801,-3.5957,-3.5996,-3.5996,-3.5996,-3.5996,-3.5996,-3.5996,-3.5996,-3.5996,-3.5996,-3.5996,-3.5996,-3.5996,-3.5996,-3.5996,-3.5996,-3.5996,-3.6055,-3.6836,-3.8125,-3.9629,-3.9726,-4.0293,-4.1055,-4.1055,-4.1113,-4.1191,0.0,0.0,0.0,-3.593,-3.5954,-3.5975,-3.5975,-3.5996,-3.5996,-3.5996,-3.5996,-3.5996,-3.5996,-3.5996,-3.5996,-3.5996,-3.5996,-3.5996,-3.5996,-3.5996,-3.5996,-3.5996,-3.5996,-3.5996,-3.5996,-3.582,-3.582,-3.5996,-3.582,-3.582,-3.5996,-3.5996,-3.5996,-3.5996,-3.5996,0.0,0.0,0.0,0.0,-3.5996,-3.5996,0.0,-3.5996,-3.5996,-3.5996,-3.5996,-3.5996,-3.5996,-3.5996,-3.5996,-3.5996,-3.5996,0.0,0.0,0.0,-3.5996,0.0,0.0,0.0,0.0,0.0,0.0,0.0,0.0,-3.5661,-3.5694,-3.5735,-3.5769,-3.5752,-3.5752,-3.5752,-3.5752,-3.5752,-3.5752,-3.5853,-3.5944,-3.5996,-3.5996,-3.5996,-3.5996,-3.5996,-3.5664,-3.4785,-3.4707,-3.4414,-3.3711,-3.4297,-3.4766,-3.4941,-3.5625,-3.5996,-3.5996,-3.5996,-3.5996,-3.5996,-3.5996,-3.5996,-3.5996,-3.5996,-3.5996,-3.5996,-3.5996,-3.5996,-3.5996,-3.5996,-3.5996,-3.6016,-3.6172,-3.6875,-3.7871,-3.8574,-3.9394,-4.0156,-4.0156,-4.0605,-4.1191,0.0,0.0,0.0,0.0,-3.5996,-3.6152,-3.6582,-3.6641,-3.6797,-3.7246,-3.7305,-3.7305,-3.7305,-3.7305,-3.7305,-3.7305,-3.7305,-3.7109,-3.668,-3.6641,-3.6445,-3.6016,-3.5996,-3.5996,-3.5996,-3.5996,-3.5996,-3.5996,-3.5996,-3.5996,-3.5996,-3.5996,-3.5996,-3.5996,-3.5996,0.0,0.0,0.0,-3.5996,-3.5996,-3.5996,0.0,-3.5996,-3.5996,-3.5996,-3.5996,-3.5996,-3.5996,-3.5996,-3.5996,-3.5996,0.0,0.0,-3.5975,-3.5948,0.0,-3.5867,-3.5742,0.0,0.0,0.0,-3.5556,0.0,0.0,0.0,-3.5621,-3.5663,-3.5696,-3.5707,-3.5707,-3.5707,-3.5707,-3.5707,-3.5707,-3.5807,-3.5882,-3.5864,-3.5931,-3.5996,-3.5996,-3.5996,-3.5488,-3.418,-3.4043,-3.3691,-3.2851,-3.3574,-3.4043,-3.4043,-3.4883,-3.5351,-3.5351,-3.5762,-3.5996,-3.5996,-3.5996,-3.5996,-3.5996,-3.5996,-3.5996,-3.5996,-3.5996,-3.5996,-3.5996,-3.5996,-3.5996,-3.5996,-3.5996,-3.6269,-3.6738,-3.7617,-3.8476,-3.9297,-3.9746,-4.0176,-4.0605,0.0,0.0,0.0,0.0,-3.6504,-3.6738,-3.7441,-3.7559,-3.7793,-3.8516,-3.8594,-3.8594,-3.8594,-3.8594,-3.8594,-3.8594,-3.8594,-3.8301,-3.7598,-3.7559,-3.7168,-3.6289,-3.625,-3.6172,-3.5996,-3.5996,-3.5996,-3.5996,-3.5996,-3.5996,-3.5996,-3.5996,-3.5996,-3.5996,-3.5996,0.0,0.0,0.0,0.0,-3.5996,0.0,-3.5996,-3.5996,-3.5996,-3.5996,-3.5996,-3.5996,-3.5996,-3.5996,-3.5996,-3.5996,-3.5975,-3.5975,-3.5923,0.0,0.0,0.0,0.0,0.0,0.0,0.0,0.0,0.0,-3.5521,0.0,0.0,0.0,-3.5646,-3.5667,0.0,0.0,0.0,0.0,-3.5438,0.0,0.0,0.0,-3.5738,0.0,-3.5738,-3.5878,-3.5312,-3.3554,-3.3242,-3.2832,-3.2012,-3.2715,-3.3164,-3.3164,-3.3984,-3.4531,-3.4687,-3.5371,-3.582,-3.5996,-3.5996,-3.5996,-3.5996,-3.5996,-3.5996,-3.5996,-3.5996,-3.5996,-3.5996,-3.5996,-3.5996,-3.5996,-3.5996,-3.5996,-3.6074,-3.6777,-3.7578,-3.8437,-3.9141,-3.9609,-4.0,-3.8281,-3.8301,0.0,0.0,-3.8301,0.0,-3.8437,-3.8457,-3.8496,-3.8594,-3.8594,-3.8594,-3.8594,-3.8594,0.0,0.0,0.0,-3.8555,-3.8457,0.0,-3.8066,-3.7187,-3.7148,-3.6797,-3.6016,-3.5996,-3.5996,-3.5996,-3.5996,-3.5996,-3.5996,-3.5996,-3.5996,0.0,-3.5996,0.0,0.0,0.0,-3.5996,0.0,-3.5996,-3.5996,0.0,-3.5996,-3.5996,-3.5996,-3.5996,-3.5996,-3.5996,0.0,-3.5951,-3.591,0.0,-3.5817,-3.572,-3.572,0.0,0.0,0.0,0.0,0.0,0.0,-3.55,0.0,0.0,0.0,-3.5515,-3.5522,0.0,-3.5522,0.0,0.0,0.0,0.0,0.0,0.0,-3.457,-3.5204,-3.5463,-3.4767,-3.5453,-3.5292,-3.3499,-3.2711,-3.1973,-3.1113,-3.1855,-3.2344,-3.2344,-3.3105,-3.3906,-3.4687,-3.4805,-3.5215,-3.5996,-3.5996,-3.5996,-3.5996,-3.5996,-3.5996,-3.5996,-3.5996,-3.5996,-3.5996,-3.5996,-3.5996,-3.5996,-3.5996,-3.5996,-3.6016,-3.6113,-3.668,-3.7461,-3.7559,-3.8574,-3.9902,-3.8769,-3.8594,0.0,0.0,0.0,0.0,-3.9277,-3.9785,-4.0117,-4.0117,-4.0117,-4.0117,0.0,0.0,0.0,0.0,0.0,-3.9883,0.0,0.0,-3.8965,-3.8086,-3.8047,-3.7871,-3.7519,-3.7519,-3.7266,-3.6758,-3.6758,-3.6504,-3.5996,-3.5996,-3.5996,0.0,-3.5996,0.0,-3.5996,0.0,-3.5996,0.0,0.0,0.0,0.0,-3.5996,-3.5996,-3.5996,-3.5996,-3.5974,-3.5945,0.0,-3.5862,0.0,0.0,0.0,0.0,0.0,0.0,0.0,0.0,0.0,0.0,0.0,0.0,0.0,-3.55,0.0,-3.55,0.0,0.0,0.0,0.0,0.0,0.0,0.0,-3.5319,-3.5463,0.0,0.0,-3.5571,-3.5243,-3.5164,-3.4456,-3.2708,-3.227,-3.1753,-3.0957,-3.1168,-3.1362,-3.1445,-3.2246,-3.2871,-3.3242,-3.4199,-3.4883,-3.5234,-3.5742,-3.5996,-3.5996,-3.5996,-3.5996,-3.5996,-3.5996,-3.5996,-3.5996,-3.5996,-3.5996,-3.5996,-3.5996,-3.5996,-3.5996,-3.5996,-3.6211,-3.6601,-3.7109,-3.8086,-3.9219,-3.9435,0.0,0.0,0.0,0.0,0.0,0.0,0.0,-4.1191,-4.1191,-4.1191,0.0,-4.1191,-4.1191,0.0,0.0,-4.1191,-4.0937,0.0,0.0,-3.9863,-3.8984,-3.8965,0.0,0.0,-3.8594,-3.8281,-3.7656,-3.7656,-3.7324,-3.6719,-3.6465,-3.6367,-3.6348,0.0,-3.5996,-3.5996,0.0,-3.5996,-3.5996,-3.5996,-3.5996,-3.5996,-3.5996,-3.5996,-3.5996,-3.5975,-3.5945,-3.588,-3.5867,-3.5777,-3.5663,-3.5663,-3.5626,-3.5566,0.0,0.0,0.0,-3.55,0.0,0.0,0.0,0.0,0.0,0.0,0.0,0.0,0.0,0.0,0.0,0.0,0.0,-3.5423,-3.5173,0.0,-3.5473,-3.5174,-3.5419,0.0,-3.5312,-3.4587,-3.3553,-3.2118,-3.1968,-3.1652,-3.0895,-3.0767,-3.0768,-3.0898,-3.1504,-3.1953,-3.2187,-3.3594,-3.4453,-3.4707,-3.5566,-3.5996,-3.5996,-3.5996,-3.5996,-3.5996,-3.5996,-3.5996,-3.5996,-3.5996,-3.5996,-3.5996,-3.5996,-3.5996,-3.5996,-3.5996,-3.5996,-3.6074,-3.6719,-3.75,-3.8379,-4.0727,-4.0945,0.0,0.0,0.0,0.0,0.0,0.0,0.0,0.0,0.0,0.0,0.0,0.0,0.0,0.0,0.0,-4.1191,-4.1152,0.0,-4.0762,-3.9902,-3.9863,-3.9453,0.0,0.0,0.0,-3.8555,-3.8555,-3.8535,-3.8496,-3.7656,-3.7266,-3.7226,-3.6387,-3.5996,-3.5996,-3.5996,-3.5996,-3.5996,-3.5996,-3.5996,-3.5996,0.0,-3.5996,-3.5996,-3.5938,-3.5903,-3.5875,-3.5755,-3.5663,-3.5596,-3.5596,-3.555,-3.5507,0.0,0.0,0.0,-3.55,-3.55,-3.55,-3.55,-3.55,0.0,0.0,0.0,-3.55,0.0,0.0,0.0,0.0,-3.55,-3.5212,-3.4379,-3.4949,0.0,0.0,0.0,0.0,-3.4353,-3.3594,0.0,-3.1971,-3.1902,-3.1578,-3.0771,-3.0696,-3.0768,-3.0898,-3.0937,-3.1328,-3.2168,-3.3008,-3.3848,-3.4687,-3.5566,-3.5996,-3.5996,-3.5996,-3.5996,-3.5996,-3.5996,-3.5996,-3.5996,-3.5996,-3.5996,-3.5996,-3.5996,-3.5996,-3.5996,-3.5996,-3.5996,-3.5996,-3.6035,-3.6582,-3.7461,0.0,0.0,0.0,0.0,0.0,0.0,0.0,-4.1191,0.0,0.0,0.0,0.0,0.0,-4.1191,-4.1191,0.0,0.0,-4.1191,-4.1191,-4.1191,0.0,0.0,0.0,-4.0625,0.0,0.0,0.0,0.0,0.0,-3.918,-3.8594,-3.8301,-3.8164,-3.8144,0.0,-3.7402,0.0,0.0,0.0,0.0,0.0,-3.6348,-3.6797,-3.6211,-3.5974,-3.5921,-3.5907,-3.5814,-3.5686,-3.5648,-3.5585,-3.5534,-3.5534,-3.5509,-3.55,-3.55,-3.55,-3.55,-3.55,-3.55,-3.55,-3.55,-3.55,-3.55,-3.55,0.0,0.0,0.0,0.0,0.0,0.0,-3.55,-3.5404,-3.5122,-3.5308,-3.5404,0.0,-3.5308,-3.5173,0.0,0.0,0.0,0.0,-3.1534,-3.1576,-3.075,-3.0695,-3.0768,-3.0898,-3.0898,-3.1035,-3.1328,-3.2676,-3.3535,-3.3848,-3.5273,-3.5996,-3.5996,-3.5996,-3.5996,-3.5996,-3.5996,-3.5996,-3.5996,-3.5996,-3.5996,-3.5996,-3.5996,-3.5996,-3.5996,-3.5996,-3.5996,-3.5996,-3.5996,-3.6543,-3.7519,-4.063,0.0,0.0,0.0,0.0,0.0,0.0,0.0,0.0,0.0,-4.1191,0.0,-4.1191,0.0,-4.1191,0.0,-4.1191,-4.1191,-4.1191,-4.1191,0.0,-4.1191,-4.1191,0.0,0.0,0.0,0.0,0.0,0.0,-4.0078,-3.9512,-3.9219,-3.9062,-3.9043,0.0,-3.8281,-3.7754,0.0,-3.7441,0.0,0.0,-3.7069,0.0,-3.6636,-3.6393,-3.6308,-3.5933,-3.5702,-3.56,-3.5566,-3.554,-3.55,-3.55,-3.55,-3.55,-3.55,-3.55,-3.55,-3.55,-3.55,-3.55,-3.55,-3.55,-3.55,-3.55,-3.55,-3.55,0.0,0.0,0.0,0.0,-3.55,-3.55,-3.55,-3.55,-3.55,0.0,-3.55,0.0,0.0,0.0,0.0,0.0,0.0,0.0,-3.1579,-3.1001,-3.0872,-3.1348,-3.1074,-3.0898,-3.0898,-3.2539,-3.3398,-3.3398,-3.5137,-3.5996,-3.5996,-3.5996,-3.5996,-3.5996,-3.5996,-3.5996,-3.5996,-3.5996,-3.5996,-3.5996,-3.5996,-3.5996,-3.5996,-3.5996,-3.5996,-3.5996,-3.5996,-3.6758,-3.793,0.0,0.0,0.0,0.0,-4.1082,0.0,0.0,0.0,-4.1191,0.0,-4.1191,-4.1191,-4.1191,-4.1191,-4.1191,-4.1191,-4.1191,-4.1191,-4.1191,-4.1191,0.0,0.0,-4.1191,-4.1191,-4.1191,0.0,0.0,0.0,0.0,0.0,-4.1172,-4.0351,-3.9961,0.0,-3.9101,0.0,-3.8652,-3.8652,-3.8633,-3.8594,-3.8594,-3.8079,-3.7328,-3.7264,-3.7262,-3.7152,-3.6011,-3.5605,-3.5599,-3.5522,-3.55,-3.55,-3.55,-3.55,-3.55,-3.55,-3.55,-3.55,-3.55,-3.55,-3.55,-3.55,-3.55,-3.55,-3.55,-3.55,-3.55,-3.55,-3.55,0.0,0.0,-3.55,-3.55,-3.55,-3.55,-3.55,-3.55,0.0,-3.5192,0.0,0.0,0.0,0.0,0.0,0.0,0.0,-3.1595,0.0,0.0,-3.1426,-3.0976,-3.1016,-3.2617,-3.3457,-3.3457,-3.5156,-3.5996,-3.5996,-3.5996,-3.5996,-3.5996,-3.5996,-3.5996,-3.5996,-3.5996,-3.5996,-3.5996,-3.5996,-3.5996,-3.5996,-3.5996,-3.5996,-3.5996,-3.5996,-3.7109,-3.8594,-4.0496,-4.061,-4.0721,0.0,-4.0848,-4.0947,0.0,0.0,0.0,0.0,-4.1191,-4.1191,-4.1191,-4.1191,-4.1191,-4.1191,-4.1191,0.0,0.0,0.0,0.0,-4.1191,-4.1191,-4.1191,-4.1191,-4.1191,0.0,-4.1191,0.0,0.0,-4.1191,0.0,0.0,0.0,0.0,0.0,-3.957,-3.957,-3.9199,-3.8594,-3.8484,-3.8701,-3.8976,-3.8171,-3.8267,-3.8554,-3.6372,-3.5579,-3.5522,-3.5514,-3.55,-3.55,-3.55,-3.55,-3.55,-3.55,-3.55,-3.55,-3.55,-3.55,-3.55,-3.55,-3.55,-3.55,-3.55,-3.55,-3.55,-3.55,-3.55,-3.55,-3.55,-3.55,-3.55,-3.55,-3.55,0.0,0.0,0.0,0.0,-3.5192,0.0,0.0,0.0,0.0,0.0,0.0,-3.1789,0.0,-3.2964,-3.219,-3.2044,-3.2734,-3.3809,-3.4375,-3.4375,-3.5449,-3.5996,-3.5996,-3.5996,-3.5996,-3.5996,-3.5996,-3.5996,-3.5996,-3.5996,-3.5996,-3.5996,-3.5996,-3.5996,-3.5996,-3.5996,-3.5996,-3.5996,-3.5996,-3.7109,-3.8594,-4.0496,0.0,0.0,-4.061,0.0,0.0,-4.0983,-4.1052,0.0,-4.1191,-4.1191,0.0,-4.1191,-4.1191,-4.1191,-4.1191,-4.1191,0.0,-4.1191,0.0,0.0,-4.1191,-4.1191,-4.1191,-4.1191,-4.1191,0.0,-4.1191,0.0,0.0,-4.1191,0.0,0.0,0.0,0.0,-4.0937,-4.0469,-4.0469,-4.0155,-3.9639,-3.9561,-3.9558,0.0,-3.8903,-3.8727,-3.8595,-3.7153,-3.6376,-3.6019,-3.6019,-3.5788,-3.55,-3.55,-3.55,-3.55,-3.55,-3.55,-3.55,-3.55,-3.55,-3.55,-3.55,-3.55,-3.55,-3.55,-3.55,-3.55,-3.55,-3.55,-3.55,-3.55,-3.55,-3.55,0.0,0.0,0.0,0.0,0.0,0.0,0.0,-3.5064,0.0,0.0,0.0,0.0,0.0,-3.2259,-3.2273,-3.3246,-3.2472,-3.2429,-3.3379,-3.3887,-3.4316,-3.4707,-3.5195,-3.5625,-3.5996,-3.5996,-3.5996,-3.5996,-3.5996,-3.5996,-3.5996,-3.5996,-3.5996,-3.5996,-3.5996,-3.5996,-3.5996,-3.5996,-3.5996,-3.5996,-3.5996,-3.6855,-3.8086,0.0,0.0,0.0,0.0,0.0,0.0,0.0,-4.1081,0.0,-4.1191,0.0,-4.1191,-4.1191,-4.1191,-4.1191,-4.1191,0.0,-4.1191,-4.1191,-4.1191,-4.1191,-4.1191,-4.1191,-4.1191,-4.1191,-4.1191,-4.1191,0.0,0.0,0.0,0.0,0.0,0.0,0.0,0.0,0.0,0.0,-4.1191,-4.1126,-4.0994,-4.0988,-4.0415,-3.9567,-3.9549,-3.9045,-3.8334,-3.8334,-3.77,-3.6846,-3.6731,-3.6231,-3.5635,-3.5538,-3.55,-3.55,-3.55,-3.55,-3.55,-3.55,-3.55,-3.55,-3.55,-3.55,-3.55,-3.55,-3.55,-3.55,-3.55,-3.55,-3.55,-3.55,-3.55,-3.55,0.0,0.0,0.0,0.0,0.0,0.0,0.0,0.0,0.0,-3.4113,-3.3547,-3.3518,-3.4174,-3.2803,-3.2435,-3.3544,-3.2677,-3.2638,-3.3691,-3.373,-3.4043,-3.4687,-3.4805,-3.5195,-3.582,-3.5957,-3.5996,-3.5996,-3.5996,-3.5996,-3.5996,-3.5996,-3.5996,-3.5996,-3.5996,-3.5996,-3.5996,-3.5996,-3.5996,-3.5996,-3.5996,-3.6543,-3.7422,0.0,0.0,0.0,0.0,0.0,-4.0781,-4.0839,-4.0952,-4.1078,-4.1191,-4.1191,-4.1191,-4.1191,-4.1191,-4.1191,-4.1191,-4.1191,0.0,0.0,0.0,0.0,-4.1191,-4.1191,-4.1191,-4.1191,-4.1191,-4.1191,0.0,0.0,0.0,-4.1191,-4.1191,0.0,0.0,0.0,0.0,-4.1191,-4.1191,0.0,-4.0992,-4.0874,-4.0693,-4.0453,-4.0356,-4.0219,-4.0054,-4.0054,-3.9084,-3.7661,-3.6942,-3.6615,-3.6365,-3.5712,-3.55,-3.55,-3.55,-3.55,-3.55,-3.55,-3.55,-3.55,-3.55,-3.55,-3.55,-3.55,-3.55,-3.55,-3.55,-3.55,-3.55,-3.55,-3.55,-3.55,-3.55,-3.55,0.0,0.0,0.0,0.0,0.0,0.0,-3.5409,-3.5228,-3.5114,-3.4721,0.0,0.0,-3.344,-3.5106,-3.3787,-3.3743,-3.5404,-3.5524,-3.5273,-3.4707,-3.541,-3.5488,-3.4941,-3.5664,-3.5996,-3.5996,-3.5996,-3.5996,-3.5996,-3.5996,-3.5996,-3.5996,-3.5996,-3.5996,-3.5996,-3.5996,-3.5996,-3.5996,-3.5996,-3.6543,-3.7422,0.0,0.0,0.0,0.0,0.0,0.0,0.0,-4.1374,-4.1597,-4.125,-4.1191,-4.1191,-4.1191,-4.1191,-4.1191,-4.1191,-4.1191,-4.1191,-4.1191,-4.1191,-4.1191,-4.1191,-4.1191,-4.1191,-4.1191,-4.1191,-4.1191,-4.1191,0.0,-4.1191,-4.1191,-4.1191,0.0,0.0,0.0,-4.1191,0.0,0.0,-4.1023,-4.0896,-4.0794,-4.0701,-4.0582,-4.0515,-4.0496,-4.0496,-4.0496,-3.9977,-3.9161,-3.8334,-3.7757,-3.7238,-3.6385,-3.6115,-3.6038,-3.5615,-3.55,-3.55,-3.55,-3.55,-3.55,-3.55,-3.55,-3.55,-3.55,-3.55,-3.55,-3.55,-3.55,-3.55,-3.55,-3.55,-3.55,-3.55,-3.55,0.0,0.0,0.0,0.0,0.0,0.0,0.0,0.0,0.0,0.0,0.0,0.0,-3.3966,-3.4889,-3.4184,-3.4399,-3.5758,-3.5418,-3.5217,-3.5217,-3.5257,-3.5283,-3.5323,-3.578,-3.5996,-3.5996,-3.5996,-3.5996,-3.5996,-3.5996,-3.5996,-3.5996,-3.5996,-3.5996,-3.5996,-3.5996,-3.5996,-3.6055,-3.6504,-3.6934,-3.7422,0.0,-4.2425,0.0,0.0,-4.2043,-4.2071,-4.1386,-4.2063,-4.2383,-4.1562,-4.1621,-4.1738,-4.1738,-4.1562,-4.1465,-4.1465,-4.1308,-4.1191,-4.1191,-4.1191,-4.1191,-4.1191,-4.1191,-4.1191,-4.1191,-4.1191,-4.1191,0.0,0.0,-4.1191,-4.1191,-4.1191,-4.1191,0.0,0.0,-4.1191,-4.1191,-4.1054,-4.092,-4.0789,-4.0721,-4.0623,-4.0496,-4.0496,-4.0496,-4.0496,-4.0496,-4.0496,-4.04,-3.9765,-3.8996,-3.8123,-3.7257,-3.6846,-3.6577,-3.5942,-3.5635,-3.55,-3.55,-3.55,-3.55,-3.55,-3.55,-3.55,-3.55,-3.55,-3.55,-3.55,-3.55,-3.55,-3.55,-3.55,-3.55,-3.55,-3.55,-3.55,0.0,0.0,0.0,0.0,0.0,0.0,-3.5207,-3.5376,-3.5212,-3.4526,-3.4302,-3.4301,-3.4533,-3.4395,-3.4709,-3.5652,-3.5086,-3.498,-3.5431,-3.5042,-3.511,-3.5628,-3.5871,-3.5995,-3.5996,-3.5996,-3.5996,-3.5996,-3.5996,-3.5996,-3.5996,-3.5996,-3.5996,-3.6016,-3.6191,-3.6289,-3.6387,-3.7246,-3.7695,-3.7949,0.0,0.0,0.0,0.0,0.0,-4.2266,-4.2188,-4.2981,-4.3262,-4.2402,-4.2988,-4.3476,-4.3476,-4.2754,-4.2285,-4.2285,-4.1621,-4.1191,-4.1191,-4.1191,-4.1191,-4.1191,-4.1191,-4.1191,-4.1191,-4.1191,-4.1191,0.0,0.0,-4.1191,-4.1191,-4.1191,-4.1191,-4.1191,-4.1191,-4.1191,-4.1191,-4.1054,-4.092,-4.0789,-4.0721,-4.0623,-4.0496,-4.0496,-4.0496,-4.0496,-4.0496,-4.0496,-4.0496,-4.0419,-3.9842,-3.9034,-3.8142,-3.7334,-3.6692,-3.6615,-3.6077,-3.55,-3.55,-3.55,-3.55,-3.55,-3.55,-3.55,-3.55,-3.55,-3.55,-3.55,-3.55,-3.55,-3.55,-3.55,-3.55,-3.55,-3.55,-3.55,-3.55,0.0,-3.55,-3.55,0.0,0.0,-3.546,-3.5493,-3.5462,-3.5385,-3.4641,-3.4552,-3.5354,-3.4704,-3.4705,-3.5587,-3.5597,-3.5275,-3.4627,-3.5263,-3.5302,-3.4729,-3.5534,-3.5945,-3.5996,-3.5996,-3.5996,-3.5996,-3.5996,-3.5996,-3.5996,-3.5996,-3.5996,-3.6074,-3.6875,-3.7187,-3.7285,-3.8164,-3.8984,-3.9668,0.0,0.0,-4.4008,-4.3131,-4.3444,-4.365,-4.314,-4.3879,-4.4355,-4.4004,-4.3808,-4.3691,-4.3691,-4.3398,-4.2969,-4.2441,-4.2109,-4.1719,-4.123,-4.1191,-4.1191,-4.1191,-4.1191,-4.1191,-4.1191,-4.1191,-4.1191,0.0,0.0,-4.1191,-4.1191,-4.1191,-4.1191,-4.1191,-4.1191,-4.115,-4.1077,-4.0947,-4.084,-4.0736,-4.0623,-4.0545,-4.0496,-4.0496,-4.0496,-4.0496,-4.0496,-4.0496,-4.0496,-4.0496,-4.0285,-3.9881,-3.9027,-3.8546,-3.8046,-3.7,-3.6462,-3.6115,-3.5635,-3.55,-3.55,-3.55,-3.55,-3.55,-3.55,-3.55,-3.55,-3.55,-3.55,-3.55,-3.55,-3.55,-3.55,-3.55,-3.55,-3.55,-3.55,0.0,0.0,-3.55,0.0,0.0,0.0,-3.55,-3.55,-3.55,-3.5173,-3.5135,-3.5481,-3.5201,-3.518,-3.5527,-3.5574,-3.5427,-3.5093,-3.5452,-3.5495,-3.5201,-3.5593,-3.5788,-3.5812,-3.5896,-3.5951,-3.5996,-3.5996,-3.5996,-3.6035,-3.6562,-3.6777,-3.6875,-3.7734,-3.8086,-3.8184,-3.9062,-3.9609,-3.9961,-4.4355,-4.4897,-4.5131,-4.4273,-4.448,-4.4574,-4.4005,-4.4722,-4.5328,-4.5328,-4.4823,-4.4453,-4.4453,-4.4238,-4.373,-4.2851,-4.2558,-4.2051,-4.125,-4.1191,-4.1191,-4.1191,-4.1191,-4.1191,-4.1191,-4.1191,-4.1191,-4.1191,-4.1191,-4.1191,-4.1191,-4.1191,-4.1191,-4.1191,-4.1151,-4.1082,-4.099,-4.0848,-4.0732,-4.0686,-4.0552,-4.0496,-4.0496,-4.0496,-4.0496,-4.0496,-4.0496,-4.0496,-4.0496,-4.0496,-4.0496,-4.04,-3.9823,-3.9496,-3.9073,-3.7834,-3.7103,-3.6577,-3.6,-3.5673,-3.55,-3.55,-3.55,-3.55,-3.55,-3.55,-3.55,-3.55,-3.55,-3.55,-3.55,-3.55,-3.55,-3.55,-3.55,-3.55,-3.55,-3.55,0.0,-3.55,-3.55,-3.55,-3.55,-3.55,-3.55,-3.55,-3.55,-3.55,-3.55,-3.55,-3.55,-3.55,-3.55,-3.55,-3.55,-3.5546,-3.5588,-3.5591,-3.5642,-3.5678,-3.5707,-3.5838,-3.5938,-3.5993,-3.6269,-3.6387,-3.6445,-3.7324,-3.7676,-3.7773,-3.8633,-3.8984,-3.9082,-3.9961,-4.0253,-4.0309,-4.447,-4.4418,-4.4247,-4.3363,-4.4039,-4.4708,-4.4688,-4.5478,-4.6091,-4.6091,-4.6184,-4.6269,-4.6269,-4.5508,-4.4629,-4.3769,-4.2891,-4.2051,-4.125,-4.1191,-4.1191,-4.1191,-4.1191,-4.1191,-4.1191,-4.1191,-4.1191,-4.1191,-4.1191,-4.1191,-4.1191,-4.1191,-4.1191,-4.1191,-4.1055,-4.0996,-4.0988,-4.0781,-4.0697,-4.0686,-4.0552,-4.0496,-4.0496,-4.0496,-4.0496,-4.0496,-4.0496,-4.0496,-4.0496,-4.0496,-4.0496,-4.0496,-4.0496,-3.9938,-3.9304,-3.9265,-3.8046,-3.6692,-3.6692,-3.6115,-3.55,-3.55,-3.55,-3.55,-3.55,-3.55,-3.55,-3.55,-3.55,-3.55,-3.55,-3.55,-3.55,-3.55,-3.55,-3.55,-3.55,-3.55,0.0,-3.55,-3.55,-3.55,-3.55,-3.55,0.0,0.0,-3.55,-3.55,-3.55,-3.55,-3.55,-3.55,-3.55,-3.55,-3.55,-3.55,-3.5534,-3.5611,-3.5591,-3.5639,-3.5707,-3.5838,-3.5901,-3.5944,-3.6872,-3.7285,-3.7344,-3.8223,-3.8574,-3.8672,-3.9531,-3.9883,-3.998,-4.0859,-4.1106,-4.0996,-4.5248,-4.5222,-4.5167,-4.4877,-4.5175,-4.5444,-4.5444,-4.5745,-4.5951,-4.5951,-4.608,-4.6152,-4.6152,-4.5993,-4.5547,-4.4668,-4.4336,-4.3555,-4.2109,-4.2012,-4.1777,-4.1211,-4.1191,-4.1191,-4.1191,-4.1191,-4.1191,-4.1191,-4.1191,-4.1191,-4.1191,-4.1191,-4.115,-4.1055,-4.1023,-4.0925,-4.0791,-4.0718,-4.0655,-4.0559,-4.0519,-4.0496,-4.0496,-4.0496,-4.0496,-4.0496,-4.0496,-4.0496,-4.0496,-4.0496,-4.0496,-4.0496,-4.0496,-4.0323,-4.0015,-3.9457,-3.8911,-3.82,-3.7019,-3.65,-3.6192,-3.5635,-3.55,-3.55,-3.55,-3.55,-3.55,-3.55,-3.55,-3.55,-3.55,-3.55,-3.55,-3.55,-3.55,-3.55,-3.55,-3.55,-3.55,-3.55,-3.55,-3.55,-3.55,-3.55,-3.55,-3.55,-3.55,-3.55,-3.55,-3.55,-3.55,-3.55,-3.55,-3.55,-3.55,-3.55,-3.5508,-3.5528,-3.5528,-3.5574,-3.5654,-3.6291,-3.6616,-3.6699,-3.7638,-3.8046,-3.8127,-3.908,-3.9492,-3.9551,-4.0341,-4.0645,-4.0662,-4.0862,-4.0908,-4.0864,-4.5594,-4.5594,-4.5594,-4.5594,-4.5673,-4.5718,-4.5718,-4.5808,-4.5866,-4.5866,-4.5955,-4.6011,-4.6011,-4.6145,-4.5895,-4.5078,-4.5,-4.4394,-4.2988,-4.2578,-4.2187,-4.168,-4.1367,-4.1191,-4.1191,-4.1191,-4.1191,-4.1191,-4.1191,-4.1191,-4.1191,-4.115,-4.108,-4.0994,-4.0925,-4.0822,-4.0692,-4.0655,-4.0588,-4.0496,-4.0496,-4.0496,-4.0496,-4.0496,-4.0496,-4.0496,-4.0496,-4.0496,-4.0496,-4.0496,-4.0496,-4.0496,-4.0496,-4.0496,-4.04,-3.99,-3.9534,-3.9073,-3.7969,-3.745,-3.6988,-3.6154,-3.5942,-3.5865,-3.5577,-3.55,-3.55,-3.55,-3.55,-3.55,-3.55,-3.55,-3.55,-3.55,-3.55,-3.55,-3.55,-3.55,-3.55,-3.55,-3.55,-3.55,-3.55,-3.55,-3.55,-3.55,-3.55,-3.55,-3.55,-3.55,-3.55,-3.55,-3.55,-3.55,-3.55,-3.55,-3.55,-3.55,-3.5808,-3.5965,-3.6045,-3.6933,-3.737,-3.7469,-3.8426,-3.8848,-3.8931,-3.9904,-4.0307,-4.0364,-4.0812,-4.0996,-4.099,-4.0854,-4.0773,-4.0752,-4.5594,-4.5594,-4.5594,-4.5594,-4.5594,-4.5594,-4.5594,-4.5708,-4.5783,-4.5783,-4.5845,-4.589,-4.589,-4.6018,-4.581,-4.5115,-4.5078,-4.4726,-4.3848,-4.3027,-4.2539,-4.2402,-4.168,-4.1269,-4.1191,-4.1191,-4.1191,-4.1191,-4.1191,-4.1191,-4.1172,-4.1055,-4.0992,-4.0979,-4.0781,-4.0692,-4.0674,-4.0552,-4.0496,-4.0496,-4.0496,-4.0496,-4.0496,-4.0496,-4.0496,-4.0496,-4.0496,-4.0496,-4.0496,-4.0496,-4.0496,-4.0496,-4.0496,-4.0496,-4.0496,-4.0496,-3.9977,-3.9381,-3.9323,-3.87,-3.7873,-3.7,-3.6731,-3.65,-3.575,-3.5538,-3.55,-3.55,-3.55,-3.55,-3.55,-3.55,-3.55,-3.55,-3.55,-3.55,-3.55,-3.55,-3.55,-3.55,-3.55,-3.55,-3.55,-3.55,-3.55,-3.55,-3.55,-3.55,-3.55,-3.55,-3.55,-3.55,-3.55,-3.55,-3.55,-3.55,-3.5538,-3.5596,-3.6404,-3.6788,-3.6815,-3.777,-3.8177,-3.8247,-3.9232,-3.9688,-3.9735,-4.061,-4.099,-4.099,-4.0986,-4.0983,-4.0957,-4.0836,-4.0742,-4.068,-4.5594,-4.5594,-4.5594,-4.5594,-4.5594,-4.5594,-4.5594,-4.5637,-4.5651,-4.5651,-4.5749,-4.582,-4.582,-4.591,-4.587,-4.5696,-4.5863,-4.5625,-4.4746,-4.4492,-4.3789,-4.2461,-4.2226,-4.1836,-4.1211,-4.1191,-4.1191,-4.1191,-4.1191,-4.1149,-4.1051,-4.1002,-4.0922,-4.0781,-4.0713,-4.063,-4.0545,-4.0512,-4.0496,-4.0496,-4.0496,-4.0496,-4.0496,-4.0496,-4.0496,-4.0496,-4.0496,-4.0496,-4.0496,-4.0496,-4.0496,-4.0496,-4.0496,-4.0496,-4.0496,-4.0496,-4.0362,-4.0073,-3.9477,-3.915,-3.8777,-3.7911,-3.7199,-3.6654,-3.6462,-3.5942,-3.55,-3.55,-3.55,-3.55,-3.55,-3.55,-3.55,-3.55,-3.55,-3.55,-3.55,-3.55,-3.55,-3.55,-3.55,-3.55,-3.55,-3.55,-3.55,-3.55,-3.55,-3.55,-3.55,-3.55,-3.55,-3.55,-3.55,-3.55,-3.55,-3.55,-3.5808,-3.6423,-3.7276,-3.77,-3.7719,-3.8609,-3.9015,-3.9068,-4.0028,-4.0438,-4.0469,-4.0735,-4.0854,-4.0847,-4.0781,-4.0762,-4.0747,-4.0617,-4.0561,-4.0545,-4.5594,-4.5594,-4.5594,-4.5594,-4.5594,-4.5594,-4.5594,-4.5594,-4.5594,-4.5594,-4.5657,-4.5708,-4.5708,-4.5796,-4.585,-4.585,-4.6067,-4.6007,-4.5538,-4.5194,-4.457,-4.3633,-4.2832,-4.2207,-4.1758,-4.1387,-4.1191,-4.1191,-4.1191,-4.1128,-4.0996,-4.0947,-4.0836,-4.0697,-4.0643,-4.0574,-4.0496,-4.0496,-4.0496,-4.0496,-4.0496,-4.0496,-4.0496,-4.0496,-4.0496,-4.0496,-4.0496,-4.0496,-4.0496,-4.0496,-4.0496,-4.0496,-4.0496,-4.0425,-4.0321,-4.0321,-4.0397,-4.0377,-3.981,-3.9764,-3.965,-3.8796,-3.795,-3.7199,-3.6788,-3.6365,-3.5942,-3.5577,-3.55,-3.55,-3.55,-3.55,-3.55,-3.55,-3.55,-3.55,-3.55,-3.55,-3.55,-3.55,-3.55,-3.55,-3.55,-3.55,-3.55,-3.55,-3.55,-3.55,-3.55,-3.55,-3.55,-3.55,-3.55,-3.5673,-3.6038,-3.6442,-3.6873,-3.7296,-3.818,-3.8584,-3.8623,-3.9477,-3.9842,-3.9888,-4.0395,-4.061,-4.0623,-4.0701,-4.0757,-4.0747,-4.0713,-4.0697,-4.068,-4.0545,-4.0496,-4.0496,-4.5594,-4.5594,-4.5594,-4.5594,-4.5594,-4.5594,-4.5594,-4.5594,-4.5594,-4.5594,-4.5594,-4.5594,-4.5594,-4.57,-4.5782,-4.5782,-4.5938,-4.6064,-4.6075,-4.5471,-4.5095,-4.4979,-4.3554,-4.2714,-4.2598,-4.1797,-4.1328,-4.1191,-4.1191,-4.1128,-4.0994,-4.0864,-4.0757,-4.0692,-4.0559,-4.0496,-4.0496,-4.0496,-4.0496,-4.0496,-4.0496,-4.0496,-4.0496,-4.0496,-4.0496,-4.0496,-4.0496,-4.0496,-4.0496,-4.0496,-4.0473,-4.0449,-4.0449,-4.025,-4.0022,-4.0022,-4.0195,-4.0319,-4.0081,-4.0185,-4.0208,-3.9509,-3.8684,-3.7851,-3.7114,-3.6876,-3.6591,-3.5777,-3.5652,-3.5635,-3.5519,-3.55,-3.55,-3.55,-3.55,-3.55,-3.55,-3.55,-3.55,-3.55,-3.55,-3.55,-3.55,-3.55,-3.55,-3.55,-3.55,-3.55,-3.55,-3.5615,-3.5673,-3.5673,-3.5673,-3.6077,-3.6885,-3.7757,-3.82,-3.82,-3.9073,-3.9477,-3.9496,-4.0189,-4.0496,-4.0496,-4.0496,-4.0496,-4.0512,-4.0623,-4.0661,-4.0661,-4.0661,-4.0661,-4.0668,-4.0537,-4.0496,-4.0496,-4.5594,-4.5594,-4.5594,-4.5594,-4.5594,-4.5594,-4.5594,-4.5594,-4.5594,-4.5594,-4.5594,-4.5594,-4.5594,-4.562,-4.5627,-4.5627,-4.5763,-4.5869,-4.592,-4.5823,-4.5475,-4.4868,-4.4577,-4.4145,-4.3515,-4.2656,-4.1875,-4.1191,-4.1191,-4.1128,-4.0994,-4.0864,-4.0757,-4.0692,-4.0559,-4.0496,-4.0496,-4.0496,-4.0496,-4.0496,-4.0496,-4.0496,-4.0496,-4.0496,-4.0496,-4.0496,-4.0496,-4.0496,-4.0496,-4.0496,-4.0347,-4.0158,-4.0158,-3.9943,-3.9668,-3.9668,-3.9712,-3.9735,-3.9679,-3.9712,-3.9708,-3.9583,-3.8891,-3.8207,-3.8075,-3.7709,-3.7142,-3.6332,-3.6354,-3.6308,-3.5635,-3.55,-3.55,-3.55,-3.55,-3.55,-3.55,-3.55,-3.55,-3.55,-3.55,-3.55,-3.55,-3.55,-3.55,-3.55,-3.55,-3.55,-3.55,-3.6135,-3.65,-3.65,-3.65,-3.6923,-3.7796,-3.8661,-3.9111,-3.9111,-3.9919,-4.0304,-4.0323,-4.0439,-4.0496,-4.0496,-4.0496,-4.0496,-4.0496,-4.0527,-4.0523,-4.0523,-4.0523,-4.0523,-4.0534,-4.0504,-4.0496,-4.0496,-4.5594,-4.5594,-4.5594,-4.5594,-4.5594,-4.5594,-4.5594,-4.5594,-4.5594,-4.5594,-4.5594,-4.5594,-4.5594,-4.5594,-4.5594,-4.5594,-4.5668,-4.5703,-4.5737,-4.5841,-4.5772,-4.5501,-4.5052,-4.4452,-4.3711,-4.3301,-4.2695,-4.1855,-4.1855,-4.1512,-4.0883,-4.082,-4.0723,-4.0582,-4.0534,-4.0496,-4.0496,-4.0496,-4.0496,-4.0496,-4.0496,-4.0496,-4.0496,-4.0496,-4.0496,-4.0496,-4.0496,-4.0496,-4.0496,-4.0496,-4.033,-4.0101,-4.0101,-3.9754,-3.9327,-3.9327,-3.9327,-3.9364,-3.9552,-3.9481,-3.9364,-3.9545,-3.9297,-3.8878,-3.8414,-3.811,-3.7702,-3.6896,-3.6937,-3.6889,-3.6077,-3.6063,-3.6,-3.5577,-3.55,-3.55,-3.55,-3.55,-3.55,-3.55,-3.55,-3.55,-3.55,-3.55,-3.55,-3.55,-3.5904,-3.6154,-3.6154,-3.6942,-3.7411,-3.7411,-3.7853,-3.8296,-3.87,-3.9534,-3.9958,-3.9958,-4.0323,-4.0496,-4.0496,-4.0496,-4.0496,-4.0496,-4.0496,-4.0496,-4.0496,-4.0496,-4.0496,-4.0496,-4.0496,-4.0496,-4.0496,-4.0496,-4.0496,-4.0496,-4.5594,-4.5594,-4.5594,-4.5594,-4.5594,-4.5594,-4.5594,-4.5594,-4.5594,-4.5594,-4.5594,-4.5594,-4.5594,-4.5594,-4.5594,-4.5594,-4.5594,-4.5594,-4.5594,-4.5731,-4.5891,-4.6018,-4.5393,-4.4701,-4.3954,-4.3936,-4.3528,-4.2673,-4.2649,-4.2231,-4.1454,-4.1194,-4.1001,-4.0834,-4.0596,-4.0496,-4.0496,-4.0496,-4.0496,-4.0496,-4.0496,-4.0496,-4.0496,-4.0496,-4.0496,-4.0496,-4.0496,-4.0496,-4.0489,-4.0441,-4.0223,-3.9982,-3.9891,-3.9469,-3.9013,-3.9013,-3.9013,-3.9049,-3.9327,-3.921,-3.9063,-3.9327,-3.9402,-3.9221,-3.8558,-3.845,-3.8254,-3.746,-3.7549,-3.7546,-3.6737,-3.6818,-3.6788,-3.6173,-3.5904,-3.5788,-3.5788,-3.5615,-3.55,-3.55,-3.55,-3.55,-3.55,-3.5673,-3.5788,-3.5788,-3.6538,-3.7,-3.7,-3.7834,-3.8392,-3.8584,-3.9053,-3.94,-3.9573,-4.0189,-4.0496,-4.0496,-4.0496,-4.0496,-4.0496,-4.0496,-4.0496,-4.0496,-4.0496,-4.0496,-4.0496,-4.0496,-4.0496,-4.0496,-4.0496,-4.0496,-4.0496,-4.0496,-4.0496,-4.0496,-4.5594,-4.5594,-4.5594,-4.5594,-4.5594,-4.5594,-4.5594,-4.5594,-4.5594,-4.5594,-4.5594,-4.5594,-4.5594,-4.5594,-4.5594,-4.5594,-4.5594,-4.5594,-4.5594,-4.5601,-4.5685,-4.5809,-4.5813,-4.5445,-4.4631,-4.4631,-4.4267,-4.3515,-4.3387,-4.3341,-4.3363,-4.2388,-4.1898,-4.1854,-4.0926,-4.0496,-4.0496,-4.0496,-4.0496,-4.0496,-4.0496,-4.0496,-4.0496,-4.0496,-4.0496,-4.0496,-4.0496,-4.0496,-4.0465,-4.0204,-3.9912,-3.9587,-3.9264,-3.8961,-3.8735,-3.8735,-3.8735,-3.8735,-3.8765,-3.875,-3.8735,-3.8765,-3.878,-3.8762,-3.8691,-3.8855,-3.8822,-3.8018,-3.829,-3.8442,-3.7565,-3.7688,-3.7873,-3.7834,-3.7142,-3.6615,-3.6615,-3.5962,-3.55,-3.55,-3.55,-3.55,-3.55,-3.6173,-3.6615,-3.6615,-3.7411,-3.7892,-3.7892,-3.8719,-3.9554,-4.0285,-3.9669,-3.9669,-4.04,-4.0477,-4.0496,-4.0496,-4.0496,-4.0496,-4.0496,-4.0496,-4.0496,-4.0496,-4.0496,-4.0496,-4.0496,-4.0496,-4.0496,-4.0496,-4.0496,-4.0496,-4.0496,-4.0496,-4.0496,-4.0496,-4.5594,-4.5594,-4.5594,-4.5594,-4.5594,-4.5594,-4.5594,-4.5594,-4.5594,-4.5594,-4.5594,-4.5594,-4.5594,-4.5594,-4.5594,-4.5594,-4.5594,-4.5594,-4.5594,-4.5594,-4.5657,-4.579,-4.5852,-4.5763,-4.5451,-4.5451,-4.5059,-4.4276,-4.4234,-4.3908,-4.3335,-4.2933,-4.2724,-4.2676,-4.2279,-4.1816,-4.1316,-4.1316,-4.0989,-4.0496,-4.0496,-4.0496,-4.0496,-4.0496,-4.0496,-4.0496,-4.0496,-4.0496,-4.0481,-4.0381,-4.0148,-3.984,-3.9529,-3.921,-3.8923,-3.8747,-3.8707,-3.8707,-3.8707,-3.8707,-3.8707,-3.8707,-3.8707,-3.8707,-3.8707,-3.8792,-3.8766,-3.8456,-3.871,-3.8736,-3.7904,-3.798,-3.8023,-3.7519,-3.7296,-3.7009,-3.6531,-3.6324,-3.6231,-3.6231,-3.6231,-3.6462,-3.7007,-3.7334,-3.7507,-3.7507,-3.8315,-3.8815,-3.8815,-3.9592,-4.0189,-4.0496,-4.0208,-4.0189,-4.0496,-4.0496,-4.0496,-4.0496,-4.0496,-4.0496,-4.0496,-4.0496,-4.0496,-4.0496,-4.0496,-4.0496,-4.0496,-4.0496,-4.0496,-4.0496,-4.0496,-4.0496,-4.0496,-4.0496,-4.0496,-4.0496,-4.5594,-4.5594,-4.5594,-4.5594,-4.5594,-4.5594,-4.5594,-4.5594,-4.5594,-4.5594,-4.5594,-4.5594,-4.5594,-4.5594,-4.5594,-4.5594,-4.5594,-4.5594,-4.5594,-4.5594,-4.5643,-4.5725,-4.5776,-4.5811,-4.5811,-4.5811,-4.5562,-4.5055,-4.4993,-4.4645,-4.4002,-4.3697,-4.352,-4.347,-4.3201,-4.2777,-4.222,-4.222,-4.1854,-4.1285,-4.1008,-4.0912,-4.0873,-4.0593,-4.0496,-4.0496,-4.0496,-4.0496,-4.0473,-4.0274,-4.0091,-3.987,-3.9451,-3.9163,-3.8933,-3.8747,-3.8707,-3.8707,-3.8707,-3.8707,-3.8707,-3.8707,-3.8707,-3.8707,-3.8707,-3.8707,-3.8707,-3.8707,-3.8909,-3.8931,-3.8383,-3.8514,-3.8539,-3.797,-3.7804,-3.7604,-3.7147,-3.7018,-3.6984,-3.7089,-3.7123,-3.7334,-3.795,-3.8257,-3.8411,-3.8411,-3.9207,-3.9688,-3.9688,-4.0208,-4.0496,-4.0496,-4.0496,-4.0496,-4.0496,-4.0496,-4.0496,-4.0496,-4.0496,-4.0496,-4.0496,-4.0496,-4.0496,-4.0496,-4.0496,-4.0496,-4.0496,-4.0496,-4.0496,-4.0496,-4.0496,-4.0496,-4.0496,-4.0496,-4.0496,-4.0458,-4.5594,-4.5594,-4.5594,-4.5594,-4.5594,-4.5594,-4.5594,-4.5594,-4.5594,-4.5594,-4.5594,-4.5594,-4.5594,-4.5594,-4.5594,-4.5594,-4.5594,-4.5594,-4.5594,-4.5594,-4.5594,-4.5594,-4.5594,-4.5594,-4.5594,-4.5594,-4.5665,-4.5796,-4.5665,-4.5665,-4.5777,-4.4789,-4.4316,-4.4278,-4.347,-4.3124,-4.3104,-4.3104,-4.3104,-4.3028,-4.2162,-4.1808,-4.1712,-4.0854,-4.0516,-4.0516,-4.0516,-4.0516,-4.0433,-3.9829,-3.963,-3.9512,-3.8906,-3.8726,-3.8726,-3.8707,-3.8707,-3.8707,-3.8707,-3.8707,-3.8707,-3.8707,-3.8707,-3.8707,-3.8707,-3.8707,-3.8707,-3.8707,-3.8909,-3.9099,-3.9099,-3.9364,-3.9599,-3.9599,-3.8878,-3.842,-3.8737,-3.8051,-3.7636,-3.7959,-3.8007,-3.8007,-3.8027,-3.8796,-3.9304,-3.9304,-4.0054,-4.0496,-4.0496,-4.0496,-4.0496,-4.0496,-4.0496,-4.0496,-4.0496,-4.0496,-4.0496,-4.0496,-4.0496,-4.0496,-4.0496,-4.0496,-4.0496,-4.0496,-4.0496,-4.0496,-4.0496,-4.0496,-4.0496,-4.0496,-4.0496,-4.0496,-4.0496,-4.0496,-4.0496,-4.0381,-4.5594,-4.5594,-4.5594,-4.5594,-4.5594,-4.5594,-4.5594,-4.5594,-4.5594,-4.5594,-4.5594,-4.5594,-4.5594,-4.5594,-4.5594,-4.5594,-4.5594,-4.5594,-4.5594,-4.5594,-4.5594,-4.5594,-4.5594,-4.5594,-4.5594,-4.5594,-4.5629,-4.5657,-4.5629,-4.5629,-4.5648,-4.5351,-4.521,-4.521,-4.496,-4.4509,-4.3932,-4.3932,-4.3624,-4.3085,-4.2816,-4.272,-4.2681,-4.2412,-4.2316,-4.2316,-4.2316,-4.2316,-4.2255,-4.1787,-4.1624,-4.1525,-4.0924,-4.056,-4.027,-3.9717,-3.9533,-3.9423,-3.8854,-3.8707,-3.8707,-3.8707,-3.8707,-3.8707,-3.8707,-3.8707,-3.8707,-3.8707,-3.8762,-3.8815,-3.8815,-3.8902,-3.897,-3.897,-3.8918,-3.8689,-3.8233,-3.8113,-3.8107,-3.819,-3.8423,-3.88,-3.9401,-3.9882,-4.015,-4.015,-4.0362,-4.0496,-4.0496,-4.0496,-4.0496,-4.0496,-4.0496,-4.0496,-4.0496,-4.0496,-4.0496,-4.0496,-4.0496,-4.0496,-4.0496,-4.0496,-4.0496,-4.0496,-4.0496,-4.0496,-4.0496,-4.0496,-4.0496,-4.0496,-4.0496,-4.0496,-4.0496,-4.0496,-4.015,-3.9631,-4.5594,-4.5594,-4.5594,-4.5594,-4.5594,-4.5594,-4.5594,-4.5594,-4.5594,-4.5594,-4.5594,-4.5594,-4.5594,-4.5594,-4.5594,-4.5594,-4.5594,-4.5594,-4.5594,-4.5594,-4.5594,-4.5594,-4.5594,-4.5594,-4.5594,-4.5594,-4.5594,-4.5594,-4.5594,-4.5594,-4.5594,-4.5594,-4.5594,-4.5594,-4.5594,-4.5306,-4.4797,-4.4797,-4.4528,-4.4066,-4.3701,-4.3566,-4.3547,-4.322,-4.3104,-4.3104,-4.3104,-4.3007,-4.2804,-4.2457,-4.2179,-4.188,-4.1512,-4.1267,-4.1003,-4.0524,-4.0377,-4.0267,-3.979,-3.9646,-3.957,-3.9258,-3.8946,-3.8707,-3.8707,-3.8707,-3.8707,-3.8707,-3.8707,-3.8707,-3.8707,-3.8707,-3.8707,-3.8707,-3.8844,-3.8823,-3.8425,-3.8508,-3.8662,-3.8791,-3.9102,-3.9519,-4.0043,-4.0347,-4.0496,-4.0496,-4.0496,-4.0496,-4.0496,-4.0496,-4.0496,-4.0496,-4.0496,-4.0496,-4.0496,-4.0496,-4.0496,-4.0496,-4.0496,-4.0496,-4.0496,-4.0496,-4.0496,-4.0496,-4.0496,-4.0496,-4.0496,-4.0496,-4.0496,-4.0496,-4.0496,-4.0496,-4.0496,-4.0496,-3.9996,-3.9246,-4.5594,-4.5594,-4.5594,-4.5594,-4.5594,-4.5594,-4.5594,-4.5594,-4.5594,-4.5594,-4.5594,-4.5594,-4.5594,-4.5594,-4.5594,-4.5594,-4.5594,-4.5594,-4.5594,-4.5594,-4.5594,-4.5594,-4.5594,-4.5594,-4.5594,-4.5594,-4.5594,-4.5594,-4.5594,-4.5594,-4.5594,-4.5594,-4.5594,-4.5594,-4.5594,-4.5594,-4.5594,-4.5594,-4.5594,-4.5537,-4.4739,-4.4412,-4.4335,-4.3605,-4.3316,-4.3316,-4.3291,-4.3043,-4.2688,-4.237,-4.1847,-4.1297,-4.1297,-4.1297,-4.1297,-4.1224,-4.1205,-4.1187,-4.1113,-4.1095,-4.0912,-4.0194,-3.946,-3.8891,-3.8726,-3.8707,-3.8707,-3.8707,-3.8707,-3.8707,-3.8707,-3.8707,-3.8707,-3.8707,-3.8707,-3.8792,-3.9022,-3.9058,-3.9178,-3.9481,-3.9808,-4.0012,-4.0012,-4.0285,-4.0473,-4.0496,-4.0496,-4.0496,-4.0496,-4.0496,-4.0496,-4.0496,-4.0496,-4.0496,-4.0496,-4.0496,-4.0496,-4.0496,-4.0496,-4.0496,-4.0496,-4.0496,-4.0496,-4.0496,-4.0496,-4.0496,-4.0496,-4.0496,-4.0496,-4.0496,-4.0496,-4.0496,-4.0496,-4.0419,-3.9881,-3.9053,-4.5594,-4.5594,-4.5594,-4.5594,-4.5594,-4.5594,-4.5594,-4.5594,-4.5594,-4.5594,-4.5594,-4.5594,-4.5594,-4.5594,-4.5594,-4.5594,-4.5594,-4.5594,-4.5594,-4.5594,-4.5594,-4.5594,-4.5594,-4.5594,-4.5594,-4.5594,-4.5594,-4.5594,-4.5594,-4.5594,-4.5594,-4.5594,-4.5594,-4.5594,-4.5594,-4.5594,-4.5594,-4.5594,-4.5594,-4.5575,-4.5402,-4.5325,-4.5306,-4.5114,-4.5056,-4.503,-4.4766,-4.4616,-4.4436,-4.3801,-4.3333,-4.2983,-4.2983,-4.2983,-4.2855,-4.2213,-4.2047,-4.1901,-4.126,-4.1095,-4.1058,-4.0875,-4.071,-4.0251,-3.9001,-3.8707,-3.8707,-3.8707,-3.8707,-3.8707,-3.8707,-3.8707,-3.8707,-3.8707,-3.8707,-3.8719,-3.8792,-3.8788,-3.8818,-3.8892,-3.9131,-3.9314,-3.9314,-3.9851,-4.0267,-4.0481,-4.0496,-4.0496,-4.0496,-4.0496,-4.0496,-4.0496,-4.0496,-4.0496,-4.0496,-4.0496,-4.0496,-4.0496,-4.0496,-4.0496,-4.0496,-4.0496,-4.0496,-4.0496,-4.0496,-4.0496,-4.0496,-4.0496,-4.0496,-4.0496,-4.0496,-4.0496,-4.0419,-3.9785,-3.9015,-3.8065,-4.5594,-4.5594,-4.5594,-4.5594,-4.5594,-4.5594,-4.5594,-4.5594,-4.5594,-4.5594,-4.5594,-4.5594,-4.5594,-4.5594,-4.5594,-4.5594,-4.5594,-4.5594,-4.5594,-4.5594,-4.5594,-4.5594,-4.5594,-4.5594,-4.5594,-4.5594,-4.5594,-4.5594,-4.5594,-4.5594,-4.5594,-4.5594,-4.5594,-4.5594,-4.5594,-4.5594,-4.5594,-4.5594,-4.5594,-4.5594,-4.5594,-4.5594,-4.5594,-4.5594,-4.5504,-4.5332,-4.515,-4.4865,-4.4476,-4.3958,-4.3646,-4.3515,-4.3515,-4.3515,-4.3423,-4.3002,-4.2873,-4.2782,-4.2359,-4.2249,-4.2158,-4.1772,-4.168,-4.135,-4.0104,-3.9551,-3.9276,-3.9276,-3.8964,-3.8707,-3.8707,-3.8707,-3.8707,-3.8707,-3.8707,-3.8707,-3.8707,-3.8707,-3.8707,-3.8707,-3.8933,-3.9147,-3.9314,-3.9797,-4.0158,-4.0304,-4.0433,-4.0496,-4.0496,-4.0496,-4.0496,-4.0496,-4.0496,-4.0496,-4.0496,-4.0496,-4.0496,-4.0496,-4.0496,-4.0496,-4.0496,-4.0496,-4.0496,-4.0496,-4.0496,-4.0496,-4.0496,-4.0496,-4.0496,-4.0496,-4.0496,-4.0496,-4.04,-3.9611,-3.8488,-3.7199,-4.5594,-4.5594,-4.5594,-4.5594,-4.5594,-4.5594,-4.5594,-4.5594,-4.5594,-4.5594,-4.5594,-4.5594,-4.5594,-4.5594,-4.5594,-4.5594,-4.5594,-4.5594,-4.5594,-4.5594,-4.5594,-4.5594,-4.5594,-4.5594,-4.5594,-4.5594,-4.5594,-4.5594,-4.5594,-4.5594,-4.5594,-4.5594,-4.5594,-4.5594,-4.5594,-4.5594,-4.5594,-4.5594,-4.5594,-4.5594,-4.5594,-4.5594,-4.5586,-4.555,-4.5342,-4.5085,-4.4954,-4.4476,-4.3865,-4.3597,-4.3515,-4.3515,-4.3515,-4.3515,-4.3515,-4.3515,-4.3515,-4.3515,-4.3515,-4.3515,-4.3332,-4.2671,-4.2506,-4.2323,-4.1645,-4.0781,-4.0102,-4.0102,-3.946,-3.8909,-3.8909,-3.8799,-3.8707,-3.8707,-3.8707,-3.8707,-3.8707,-3.8707,-3.8707,-3.8707,-3.8913,-3.9152,-3.9474,-3.9808,-4.0032,-4.0091,-4.0347,-4.0496,-4.0496,-4.0496,-4.0496,-4.0496,-4.0496,-4.0496,-4.0496,-4.0496,-4.0496,-4.0496,-4.0496,-4.0496,-4.0496,-4.0496,-4.0496,-4.0496,-4.0496,-4.0496,-4.0496,-4.0496,-4.0496,-4.0496,-4.0496,-4.0419,-4.0189,-3.9207,-3.7853,-3.6404,-4.5594,-4.5594,-4.5594,-4.5594,-4.5594,-4.5594,-4.5594,-4.5594,-4.5594,-4.5594,-4.5594,-4.5594,-4.5594,-4.5594,-4.5594,-4.5594,-4.5594,-4.5594,-4.5594,-4.5594,-4.5594,-4.5594,-4.5594,-4.5594,-4.5594,-4.5594,-4.5594,-4.5594,-4.5594,-4.5594,-4.5594,-4.5594,-4.5594,-4.5594,-4.5594,-4.5594,-4.5594,-4.5594,-4.5594,-4.5594,-4.5594,-4.5594,-4.5568,-4.5292,-4.5129,-4.503,-4.4387,-4.3896,-4.3546,-4.3513,-4.3515,-4.3515,-4.3515,-4.3515,-4.3515,-4.3515,-4.3515,-4.3515,-4.3515,-4.3515,-4.3478,-4.3368,-4.3332,-4.3296,-4.3185,-4.2011,-4.093,-4.093,-4.0304,-3.9735,-3.9735,-3.9166,-3.8707,-3.8707,-3.8707,-3.8707,-3.8707,-3.8707,-3.8707,-3.8707,-3.8735,-3.8855,-3.9139,-3.9462,-3.9786,-4.0081,-4.0347,-4.0496,-4.0496,-4.0496,-4.0496,-4.0496,-4.0496,-4.0496,-4.0496,-4.0496,-4.0496,-4.0496,-4.0496,-4.0496,-4.0496,-4.0496,-4.0496,-4.0496,-4.0496,-4.0496,-4.0496,-4.0496,-4.0496,-4.0496,-4.0496,-4.0073,-3.9265,-3.7642,-3.6462,-3.5654,-4.5033,-4.5033,-4.5107,-4.5292,-4.5322,-4.5371,-4.5568,-4.5594,-4.5594,-4.5594,-4.5594,-4.5594,-4.5594,-4.5594,-4.5594,-4.5594,-4.5594,-4.5594,-4.5594,-4.5594,-4.5594,-4.5594,-4.5594,-4.5594,-4.5594,-4.5594,-4.5594,-4.5594,-4.5594,-4.5594,-4.5594,-4.5594,-4.5594,-4.5594,-4.5594,-4.5594,-4.5594,-4.5594,-4.5594,-4.5594,-4.5594,-4.5594,-4.5577,-4.5429,-4.5253,-4.5,-4.4257,-4.3788,-4.3515,-4.3515,-4.3515,-4.3515,-4.3515,-4.3515,-4.3515,-4.3515,-4.3515,-4.3515,-4.3515,-4.3515,-4.3515,-4.3515,-4.3515,-4.3515,-4.3515,-4.2947,-4.2304,-4.1864,-4.113,-4.0579,-4.0579,-4.0286,-3.99,-3.9441,-3.9368,-3.9203,-3.8762,-3.8707,-3.8707,-3.8707,-3.8707,-3.875,-3.8869,-3.9144,-3.945,-3.9797,-4.011,-4.0347,-4.0489,-4.0496,-4.0496,-4.0496,-4.0496,-4.0496,-4.0496,-4.0496,-4.0496,-4.0496,-4.0496,-4.0496,-4.0496,-4.0496,-4.0496,-4.0496,-4.0496,-4.0496,-4.0496,-4.0496,-4.0496,-4.0496,-4.0496,-3.9708,-3.8411,-3.7161,-3.6192,-3.55]},{"header":{"parameterUnit":"m.s-1","parameterCategory":1,"la1":30.6,"la2":28.766,"lo1":-90.7593,"lo2":-88.6598,"dy":0.0162,"dx":0.0183,"nx":116,"ny":114,"refTime":"2023-05-04T12:00:00:Z","depth":0,"parameterNumber":3,"parameterNumberName":"V-component_of_WINDS"},"data":[0.0,0.0,0.0,0.0,0.0,0.0,0.0,0.0,0.0,0.0,0.0,0.0,0.0,0.0,0.0,0.0,0.0,0.0,0.0,0.0,0.0,0.0,0.0,0.0,0.0,0.0,0.0,0.0,0.0,0.0,0.0,0.0,0.0,0.0,0.0,0.0,0.0,0.0,0.0,0.0,0.0,0.0,0.0,0.0,0.0,0.0,0.0,0.0,0.0,0.0,0.0,0.0,0.0,0.0,0.0,0.0,0.0,0.0,0.0,0.0,0.0,0.0,0.0,0.0,0.0,0.0,0.0,0.0,0.0,0.0,0.0,0.0,0.0,0.0,0.0,0.0,0.0,0.0,0.0,0.0,0.0,0.0,0.0,0.0,0.0,0.0,0.0,0.0,0.0,0.0,0.0,0.0,0.0,0.0,0.0,0.0,0.0,0.0,0.0,0.0,0.0,0.0,0.0,0.0,0.0,0.0,0.0,0.0,0.0,0.0,0.0,0.0,0.0,0.0,0.0,0.0,0.0,0.0,0.0,0.0,0.0,0.0,0.0,0.0,0.0,0.0,0.0,0.0,0.0,0.0,0.0,0.0,0.0,0.0,0.0,0.0,0.0,0.0,0.0,0.0,0.0,0.0,0.0,0.0,0.0,0.0,0.0,0.0,0.0,0.0,0.0,0.0,0.0,0.0,0.0,0.0,0.0,0.0,0.0,0.0,0.0,0.0,0.0,0.0,0.0,0.0,0.0,0.0,0.0,0.0,0.0,0.0,0.0,0.0,0.0,0.0,0.0,0.0,0.0,0.0,0.0,0.0,0.0,0.0,0.0,0.0,0.0,0.0,0.0,0.0,0.0,0.0,0.0,0.0,0.0,0.0,0.0,0.0,0.0,0.0,0.0,0.0,0.0,0.0,0.0,0.0,0.0,0.0,0.0,0.0,0.0,0.0,0.0,0.0,0.0,0.0,0.0,0.0,0.0,0.0,0.0,0.0,0.0,0.0,0.0,0.0,0.0,0.0,0.0,0.0,0.0,0.0,0.0,0.0,0.0,0.0,0.0,0.0,0.0,0.0,0.0,0.0,0.0,0.0,0.0,0.0,0.0,0.0,0.0,0.0,0.0,0.0,0.0,0.0,0.0,0.0,0.0,0.0,0.0,0.0,0.0,0.0,0.0,0.0,0.0,0.0,0.0,0.0,0.0,0.0,0.0,0.0,0.0,0.0,0.0,0.0,0.0,0.0,0.0,0.0,0.0,0.0,0.0,0.0,0.0,0.0,0.0,0.0,0.0,0.0,0.0,0.0,0.0,0.0,0.0,0.0,0.0,0.0,0.0,0.0,0.0,0.0,0.0,0.0,0.0,0.0,0.0,0.0,0.0,0.0,0.0,0.0,0.0,0.0,0.0,0.0,0.0,0.0,0.0,0.0,0.0,0.0,0.0,0.0,0.0,0.0,0.0,0.0,0.0,0.0,0.0,0.0,0.0,0.0,0.0,0.0,0.0,0.0,0.0,0.0,0.0,0.0,0.0,0.0,0.0,0.0,0.0,0.0,0.0,0.0,0.0,0.0,0.0,0.0,0.0,0.0,0.0,0.0,0.0,0.0,0.0,0.0,0.0,0.0,0.0,0.0,0.0,0.0,0.0,0.0,0.0,0.0,0.0,0.0,0.0,0.0,0.0,0.0,0.0,0.0,0.0,0.0,0.0,0.0,0.0,0.0,0.0,0.0,0.0,0.0,0.0,0.0,0.0,0.0,0.0,0.0,0.0,0.0,0.0,0.0,0.0,0.0,0.0,0.0,0.0,0.0,0.0,0.0,0.0,0.0,0.0,0.0,0.0,0.0,0.0,0.0,0.0,0.0,0.0,0.0,0.0,0.0,0.0,0.0,0.0,0.0,0.0,0.0,0.0,0.0,0.0,0.0,0.0,0.0,0.0,0.0,0.0,0.0,0.0,0.0,0.0,0.0,0.0,0.0,0.0,0.0,0.0,0.0,0.0,0.0,0.0,0.0,0.0,0.0,0.0,0.0,0.0,0.0,0.0,0.0,0.0,0.0,0.0,0.0,0.0,0.0,0.0,0.0,0.0,0.0,0.0,0.0,0.0,0.0,0.0,0.0,0.0,0.0,0.0,0.0,0.0,0.0,0.0,0.0,0.0,0.0,0.0,0.0,0.0,0.0,0.0,0.0,0.0,0.0,0.0,0.0,0.0,0.0,0.0,0.0,0.0,0.0,0.0,0.0,0.0,0.0,0.0,0.0,0.0,0.0,0.0,0.0,0.0,0.0,0.0,0.0,0.0,0.0,0.0,0.0,0.0,0.0,0.0,0.0,0.0,0.0,0.0,0.0,0.0,0.0,0.0,0.0,0.0,0.0,0.0,0.0,0.0,0.0,0.0,0.0,0.0,0.0,0.0,0.0,0.0,0.0,0.0,0.0,0.0,0.0,0.0,0.0,0.0,0.0,0.0,0.0,0.0,0.0,0.0,0.0,0.0,0.0,0.0,0.0,0.0,0.0,0.0,0.0,0.0,0.0,0.0,0.0,0.0,0.0,0.0,0.0,0.0,0.0,0.0,0.0,0.0,0.0,0.0,0.0,0.0,0.0,0.0,0.0,0.0,0.0,0.0,0.0,0.0,0.0,0.0,0.0,0.0,0.0,0.0,0.0,0.0,0.0,0.0,0.0,0.0,0.0,0.0,0.0,0.0,0.0,0.0,0.0,0.0,0.0,0.0,0.0,0.0,0.0,0.0,0.0,0.0,0.0,0.0,0.0,0.0,0.0,0.0,0.0,0.0,0.0,0.0,0.0,0.0,0.0,0.0,0.0,0.0,0.0,0.0,0.0,0.0,0.0,0.0,0.0,0.0,0.0,0.0,0.0,0.0,0.0,0.0,0.0,0.0,0.0,0.0,0.0,0.0,0.0,0.0,0.0,0.0,0.0,0.0,0.0,0.0,0.0,0.0,0.0,0.0,0.0,0.0,0.0,0.0,0.0,0.0,0.0,0.0,0.0,0.0,0.0,0.0,0.0,0.0,0.0,0.0,0.0,0.0,0.0,0.0,0.0,0.0,0.0,0.0,0.0,0.0,0.0,0.0,0.0,0.0,0.0,0.0,0.0,0.0,0.0,0.0,0.0,0.0,0.0,0.0,0.0,0.0,0.0,0.0,0.0,0.0,0.0,0.0,0.0,0.0,0.0,0.0,0.0,0.0,0.0,0.0,0.0,0.0,0.0,0.0,0.0,0.0,0.0,0.0,0.0,0.0,0.0,0.0,0.0,0.0,0.0,0.0,0.0,0.0,0.0,0.0,0.0,0.0,0.0,0.0,0.0,0.0,0.0,0.0,0.0,0.0,0.0,0.0,0.0,0.0,0.0,0.0,0.0,0.0,0.0,0.0,0.0,0.0,0.0,0.0,0.0,0.0,0.0,0.0,0.0,0.0,0.0,0.0,0.0,0.0,0.0,0.0,0.0,0.0,0.0,0.0,0.0,0.0,0.0,0.0,0.0,0.0,0.0,0.0,0.0,0.0,0.0,0.0,0.0,0.0,0.0,0.0,0.0,0.0,0.0,0.0,0.0,0.0,0.0,0.0,0.0,0.0,0.0,0.0,0.0,0.0,0.0,0.0,0.0,0.0,0.0,0.0,0.0,0.0,0.0,0.0,0.0,0.0,0.0,0.0,0.0,0.0,0.0,0.0,0.0,0.0,0.0,0.0,0.0,0.0,0.0,0.0,0.0,0.0,0.0,0.0,0.0,0.0,0.0,0.0,0.0,0.0,0.0,0.0,0.0,0.0,0.0,0.0,0.0,0.0,0.0,0.0,0.0,0.0,0.0,0.0,0.0,0.0,0.0,0.0,0.0,0.0,0.0,0.0,0.0,0.0,0.0,0.0,0.0,0.0,0.0,0.0,0.0,0.0,0.0,0.0,0.0,0.0,0.0,0.0,0.0,0.0,0.0,0.0,0.0,0.0,0.0,0.0,0.0,0.0,0.0,0.0,0.0,0.0,0.0,0.0,0.0,0.0,0.0,0.0,0.0,0.0,0.0,0.0,0.0,0.0,0.0,0.0,0.0,0.0,0.0,0.0,0.0,0.0,0.0,0.0,0.0,0.0,0.0,0.0,0.0,0.0,0.0,0.0,0.0,0.0,0.0,0.0,0.0,0.0,0.0,0.0,0.0,0.0,0.0,0.0,0.0,0.0,0.0,0.0,0.0,0.0,0.0,0.0,0.0,0.0,0.0,0.0,0.0,0.0,0.0,0.0,0.0,0.0,0.0,0.0,0.0,0.0,0.0,0.0,0.0,0.0,0.0,0.0,0.0,0.0,0.0,0.0,0.0,0.0,0.0,0.0,0.0,0.0,0.0,0.0,0.0,0.0,0.0,0.0,0.0,0.0,0.0,0.0,0.0,0.0,0.0,0.0,0.0,0.0,0.0,0.0,0.0,0.0,0.0,0.0,0.0,0.0,0.0,0.0,0.0,0.0,0.0,0.0,0.0,0.0,0.0,0.0,0.0,0.0,0.0,0.0,0.0,0.0,0.0,0.0,0.0,0.0,0.0,0.0,0.0,0.0,0.0,0.0,0.0,0.0,0.0,0.0,0.0,0.0,0.0,0.0,0.0,0.0,0.0,0.0,0.0,0.0,0.0,0.0,0.0,0.0,0.0,0.0,0.0,0.0,0.0,0.0,0.0,0.0,0.0,0.0,0.0,0.0,0.0,0.0,0.0,0.0,0.0,0.0,0.0,0.0,0.0,0.0,0.0,0.0,0.0,0.0,0.0,0.0,0.0,0.0,0.0,0.0,0.0,0.0,0.0,0.0,0.0,0.0,0.0,0.0,0.0,0.0,0.0,0.0,0.0,0.0,0.0,0.0,0.0,0.0,0.0,0.0,0.0,0.0,0.0,0.0,0.0,0.0,0.0,0.0,0.0,0.0,0.0,0.0,0.0,0.0,0.0,0.0,0.0,0.0,0.0,0.0,0.0,0.0,0.0,0.0,0.0,0.0,0.0,0.0,0.0,0.0,0.0,0.0,0.0,0.0,0.0,0.0,0.0,0.0,0.0,0.0,0.0,0.0,0.0,0.0,0.0,0.0,0.0,0.0,0.0,0.0,0.0,0.0,0.0,0.0,0.0,0.0,0.0,0.0,0.0,0.0,0.0,0.0,0.0,0.0,0.0,0.0,0.0,0.0,0.0,0.0,0.0,0.0,0.0,0.0,0.0,0.0,0.0,0.0,0.0,0.0,0.0,0.0,0.0,0.0,0.0,0.0,0.0,0.0,0.0,0.0,0.0,0.0,0.0,0.0,0.0,0.0,0.0,0.0,0.0,0.0,0.0,0.0,0.0,0.0,0.0,0.0,0.0,0.0,0.0,0.0,0.0,0.0,0.0,0.0,0.0,0.0,0.0,0.0,0.0,0.0,0.0,0.0,0.0,0.0,0.0,0.0,0.0,0.0,0.0,0.0,0.0,0.0,0.0,0.0,0.0,0.0,0.0,0.0,0.0,0.0,0.0,0.0,0.0,0.0,0.0,0.0,0.0,0.0,0.0,0.0,0.0,0.0,0.0,0.0,0.0,0.0,0.0,0.0,0.0,0.0,0.0,0.0,0.0,0.0,0.0,0.0,0.0,0.0,0.0,0.0,0.0,0.0,0.0,0.0,0.0,0.0,0.0,0.0,0.0,0.0,0.0,0.0,0.0,0.0,0.0,0.0,0.0,0.0,0.0,0.0,0.0,0.0,0.0,0.0,0.0,0.0,0.0,0.0,0.0,0.0,0.0,0.0,0.0,0.0,0.0,0.0,0.0,0.0,0.0,0.0,0.0,0.0,0.0,0.0,0.0,0.0,0.0,0.0,0.0,0.0,0.0,0.0,0.0,0.0,0.0,0.0,0.0,0.0,0.0,0.0,0.0,0.0,0.0,0.0,0.0,0.0,0.0,0.0,0.0,0.0,0.0,0.0,0.0,0.0,0.0,0.0,0.0,0.0,0.0,0.0,0.0,0.0,0.0,0.0,0.0,0.0,0.0,0.0,0.0,0.0,0.0,0.0,0.0,0.0,0.0,0.0,0.0,0.0,0.0,0.0,0.0,0.0,0.0,0.0,0.0,0.0,0.0,-1.4397,-1.4104,0.0,0.0,0.0,0.0,0.0,0.0,0.0,0.0,0.0,0.0,0.0,0.0,0.0,0.0,0.0,0.0,0.0,0.0,0.0,0.0,0.0,0.0,0.0,0.0,0.0,0.0,0.0,0.0,0.0,0.0,0.0,0.0,0.0,0.0,0.0,0.0,0.0,0.0,-0.2565,-0.2593,-0.3345,-0.3317,-0.3735,-0.4491,0.0,0.0,0.0,0.0,0.0,0.0,0.0,0.0,0.0,0.0,0.0,0.0,0.0,0.0,0.0,0.0,0.0,0.0,0.0,0.0,0.0,0.0,0.0,0.0,0.0,0.0,0.0,0.0,0.0,0.0,0.0,0.0,0.0,0.0,0.0,0.0,0.0,0.0,0.0,0.0,0.0,0.0,0.0,0.0,0.0,0.0,0.0,0.0,0.0,0.0,0.0,0.0,0.0,0.0,0.0,0.0,0.0,0.0,0.0,0.0,0.0,0.0,0.0,0.0,0.0,0.0,0.0,0.0,0.0,0.0,-1.4913,-1.4718,0.0,0.0,0.0,0.0,0.0,0.0,0.0,0.0,0.0,0.0,0.0,0.0,0.0,0.0,0.0,0.0,0.0,0.0,0.0,0.0,0.0,0.0,0.0,0.0,-0.0448,-0.1034,-0.1229,-0.187,0.0,0.0,0.0,0.0,0.0,0.0,0.0,-0.2815,-0.3093,-0.4491,-0.3231,-0.2954,-0.3594,-0.4211,-0.4491,-0.4491,-0.4491,0.0,0.0,0.0,0.0,0.0,0.0,0.0,0.0,0.0,0.0,0.0,0.0,0.0,0.0,0.0,0.0,0.0,0.0,0.0,0.0,0.0,0.0,0.0,0.0,0.0,0.0,0.0,0.0,0.0,0.0,0.0,0.0,0.0,0.0,0.0,0.0,0.0,0.0,0.0,0.0,0.0,0.0,0.0,0.0,0.0,0.0,0.0,0.0,0.0,0.0,0.0,0.0,0.0,0.0,0.0,0.0,0.0,0.0,0.0,0.0,0.0,0.0,0.0,-1.541,-1.541,-1.541,-1.541,-1.541,-1.5381,-1.5255,-1.5255,-1.5352,-1.4688,0.0,0.0,0.0,0.0,0.0,0.0,0.0,0.0,0.0,0.0,0.0,0.0,0.0,0.0,0.0,0.0,0.0,0.0,0.0,0.0,0.0,-0.056,-0.1006,-0.109,-0.1675,-0.2426,-0.3317,0.0,0.0,0.0,0.0,0.0,-0.4349,-0.3566,-0.3594,-0.4491,-0.4294,-0.4239,-0.4349,-0.446,-0.4491,-0.4491,-0.4491,-0.4491,-0.4491,0.0,0.0,0.0,0.0,0.0,0.0,0.0,0.0,0.0,0.0,0.0,0.0,0.0,0.0,0.0,0.0,0.0,0.0,0.0,0.0,0.0,0.0,0.0,0.0,0.0,0.0,0.0,0.0,0.0,0.0,0.0,0.0,0.0,0.0,0.0,0.0,0.0,0.0,0.0,0.0,0.0,-1.4284,-1.4944,0.0,0.0,0.0,0.0,0.0,0.0,0.0,0.0,0.0,0.0,0.0,0.0,0.0,-1.541,-1.541,-1.541,-1.541,-1.541,-1.541,-1.541,-1.541,-1.541,-1.541,-1.5352,-1.4658,0.0,-1.5381,-1.5294,0.0,0.0,0.0,0.0,0.0,0.0,0.0,0.0,0.0,0.0,0.0,0.0,0.0,0.0,0.0,0.0,0.0,0.0,0.0,0.0,0.0,-0.0895,-0.1424,-0.2258,-0.2676,-0.3206,-0.3959,-0.4015,0.0,0.0,0.0,-0.4181,-0.4491,-0.4153,-0.4153,-0.4491,-0.4491,-0.4491,-0.4491,-0.4491,-0.4491,-0.4491,-0.4491,-0.4491,-0.4491,-0.4491,0.0,0.0,0.0,0.0,0.0,0.0,0.0,0.0,0.0,0.0,0.0,0.0,0.0,0.0,0.0,0.0,0.0,0.0,0.0,0.0,0.0,0.0,0.0,0.0,0.0,0.0,0.0,0.0,0.0,0.0,0.0,0.0,0.0,0.0,0.0,0.0,0.0,0.0,0.0,-1.3747,-1.451,-1.5294,-1.4991,-1.4726,0.0,0.0,0.0,0.0,0.0,0.0,0.0,0.0,0.0,-1.5381,-1.541,-1.541,-1.541,-1.541,-1.541,-1.541,-1.541,-1.541,-1.541,-1.541,-1.541,-1.5381,-1.5021,-1.4815,-1.4658,-1.3738,-1.3657,-1.3936,0.0,0.0,0.0,0.0,-1.0989,-1.0593,0.0,0.0,0.0,0.0,0.0,0.0,0.0,0.0,0.0,0.0,0.0,0.0,-0.1034,-0.1424,-0.212,-0.3231,-0.3539,-0.3901,-0.446,-0.4491,0.0,0.0,0.0,-0.4491,-0.4491,-0.4491,-0.4491,-0.4491,-0.4491,-0.4491,-0.4491,-0.4491,-0.4491,-0.4491,-0.4491,-0.4491,-0.4491,-0.4491,-0.4491,-0.4491,0.0,0.0,0.0,0.0,0.0,0.0,0.0,0.0,0.0,0.0,0.0,0.0,0.0,0.0,0.0,0.0,0.0,0.0,0.0,0.0,0.0,0.0,0.0,0.0,0.0,0.0,0.0,0.0,0.0,0.0,0.0,0.0,0.0,0.0,0.0,0.0,0.0,-1.4025,-1.4273,-1.5294,-1.4688,-1.4273,0.0,0.0,0.0,0.0,0.0,0.0,-1.4746,-1.4599,-1.4776,-1.5381,-1.5196,-1.5127,-1.5212,-1.4995,-1.4932,-1.5035,-1.5035,-1.5035,-1.5035,-1.5035,-1.5035,-1.5004,-1.4784,-1.4359,-1.3728,-1.2791,-1.2665,-1.2917,-1.2112,-1.1803,-1.1772,-1.1562,-1.1108,-1.0593,0.0,0.0,0.0,0.0,0.0,0.0,0.0,0.0,0.0,0.0,0.0,-0.1062,-0.109,-0.2343,-0.3234,-0.3372,-0.4042,-0.446,-0.4491,-0.4491,-0.4491,-0.4491,-0.4491,-0.4491,-0.4491,-0.4491,-0.4491,-0.4491,-0.4491,-0.4491,-0.4491,-0.4491,-0.4491,-0.4491,-0.4491,-0.4491,-0.4491,-0.4491,-0.4491,-0.4491,-0.4491,0.0,0.0,0.0,0.0,0.0,0.0,0.0,0.0,0.0,0.0,0.0,0.0,0.0,0.0,0.0,0.0,0.0,0.0,0.0,0.0,0.0,0.0,0.0,0.0,0.0,0.0,0.0,0.0,0.0,0.0,0.0,0.0,0.0,0.0,0.0,0.0,0.0,0.0,-1.5196,-1.4688,0.0,0.0,0.0,0.0,-1.307,-1.307,-1.307,-1.313,-1.454,-1.5352,-1.541,-1.4658,-1.4424,-1.4741,-1.3922,-1.3654,-1.3967,-1.3967,-1.3967,-1.3967,-1.3967,-1.3967,-1.3934,-1.3155,-1.2796,-1.2843,-1.3723,-1.3636,-1.2917,-1.2112,-1.1803,-1.171,-1.0926,-1.0618,-1.0593,0.0,0.0,0.0,0.0,0.0,0.0,0.0,0.0,0.0,0.0,-0.0643,-0.1284,-0.1758,-0.2702,-0.3511,-0.407,-0.4349,-0.4491,-0.4491,-0.4491,-0.4491,-0.4491,-0.4491,-0.4491,-0.4491,-0.4491,-0.4491,-0.4491,-0.4491,-0.4542,-0.4638,-0.4638,-0.4638,-0.4638,-0.4638,-0.4583,-0.4491,-0.4491,-0.4491,-0.4491,-0.4491,-0.4491,0.0,0.0,0.0,0.0,0.0,0.0,0.0,0.0,0.0,0.0,0.0,0.0,0.0,0.0,0.0,0.0,0.0,0.0,0.0,0.0,0.0,0.0,0.0,0.0,0.0,0.0,0.0,0.0,0.0,0.0,0.0,0.0,0.0,0.0,0.0,0.0,0.0,-1.451,-1.3476,0.0,-1.451,-1.3174,-1.2451,-1.2948,-1.2512,-1.2545,-1.3214,-1.3299,-1.3689,-1.4417,-1.4149,-1.4049,-1.4184,-1.3892,-1.3794,-1.3892,-1.3892,-1.3892,-1.3892,-1.3892,-1.3892,-1.3892,-1.3594,-1.3176,-1.2732,-1.3103,-1.2643,-1.1671,-1.1217,-1.1021,-1.0982,-1.0713,-1.0593,-1.0593,0.0,0.0,0.0,0.0,0.0,0.0,0.0,0.0,-0.0084,-0.0336,-0.1006,-0.1758,-0.248,-0.3262,-0.3929,-0.446,-0.4491,-0.4491,-0.4491,-0.4491,-0.4491,-0.4491,-0.4491,-0.4491,-0.4491,-0.4491,-0.4515,-0.4566,-0.4566,-0.4644,-0.4769,-0.4769,-0.4769,-0.4769,-0.4769,-0.468,-0.4566,-0.4566,-0.4539,-0.4491,-0.4491,-0.4491,-0.4491,0.0,0.0,0.0,0.0,0.0,0.0,0.0,0.0,0.0,0.0,0.0,0.0,0.0,0.0,0.0,0.0,0.0,0.0,0.0,0.0,0.0,0.0,0.0,0.0,0.0,0.0,0.0,0.0,0.0,0.0,0.0,0.0,0.0,0.0,0.0,-1.2581,-1.3666,-1.2626,-1.2367,-1.3778,-1.271,-1.2202,-1.2838,-1.2395,-1.2398,-1.3138,-1.2919,-1.3118,-1.3884,-1.3627,-1.3557,-1.3634,-1.3364,-1.3282,-1.3363,-1.3363,-1.3363,-1.3363,-1.3363,-1.3363,-1.3363,-1.3363,-1.306,-1.2548,-1.2483,-1.1977,-1.1256,-1.0962,-1.0888,-1.0888,-1.0888,-1.0888,-1.0888,0.0,0.0,0.0,0.0,0.0,0.0,0.0,0.0,-0.0252,-0.1006,-0.173,-0.248,-0.3231,-0.4015,-0.4491,-0.4491,-0.4491,-0.4491,-0.4491,-0.4491,-0.4491,-0.4491,-0.4491,-0.4491,-0.4491,-0.4494,-0.4569,-0.4691,-0.4697,-0.4775,-0.4894,-0.4894,-0.4894,-0.4894,-0.4894,-0.484,-0.4697,-0.4697,-0.4638,-0.4498,-0.4491,-0.4491,-0.4491,0.0,0.0,0.0,0.0,0.0,0.0,0.0,0.0,0.0,0.0,0.0,0.0,0.0,0.0,0.0,0.0,0.0,0.0,0.0,0.0,0.0,0.0,0.0,0.0,0.0,0.0,0.0,0.0,0.0,0.0,0.0,0.0,0.0,-1.2826,-1.16,-1.1209,-1.2781,-1.2251,-1.2196,-1.3267,-1.266,-1.2317,-1.2624,-1.2654,-1.2654,-1.2661,-1.3418,-1.3842,-1.3858,-1.3106,-1.2824,-1.3072,-1.2303,-1.2067,-1.2318,-1.2318,-1.2318,-1.2331,-1.2318,-1.2318,-1.2318,-1.2305,-1.2305,-1.2278,-1.2033,-1.1919,-1.1893,-1.1543,-1.1389,-1.1389,-1.1389,-1.1389,-1.1389,0.0,0.0,0.0,0.0,0.0,0.0,0.0,0.0,-0.0252,-0.1006,-0.173,-0.248,-0.3231,-0.4015,-0.4491,-0.4491,-0.4491,-0.4491,-0.4491,-0.4491,-0.4491,-0.4491,-0.4491,-0.4491,-0.4491,-0.46,-0.4679,-0.4691,-0.4802,-0.4897,-0.5042,-0.5042,-0.5042,-0.5042,-0.5042,-0.4961,-0.4857,-0.4857,-0.4769,-0.4648,-0.4535,-0.4491,-0.4491,0.0,0.0,0.0,0.0,0.0,0.0,0.0,0.0,0.0,0.0,0.0,0.0,0.0,0.0,0.0,0.0,0.0,0.0,0.0,0.0,0.0,0.0,0.0,0.0,0.0,0.0,0.0,0.0,0.0,0.0,0.0,0.0,-1.1021,-1.1233,-1.1382,-1.1713,-1.2348,-1.1721,-1.1663,-1.2775,-1.2131,-1.1668,-1.1758,-1.1765,-1.1861,-1.2123,-1.2333,-1.2537,-1.272,-1.2526,-1.2459,-1.2506,-1.2287,-1.2368,-1.2663,-1.2663,-1.2739,-1.2953,-1.2764,-1.2663,-1.265,-1.2398,-1.2305,-1.2291,-1.2218,-1.2184,-1.2131,-1.1623,-1.1389,-1.1389,-1.1389,-1.1389,-1.1389,0.0,0.0,0.0,0.0,0.0,0.0,0.0,0.0,-0.0364,-0.1424,-0.1924,-0.2619,-0.368,-0.4208,-0.4491,-0.4491,-0.4491,-0.4491,-0.4491,-0.4491,-0.4491,-0.4491,-0.4552,-0.4586,-0.4586,-0.4707,-0.4816,-0.4874,-0.4931,-0.5052,-0.5226,-0.5226,-0.5226,-0.5226,-0.5226,-0.5145,-0.4975,-0.4975,-0.4891,-0.4779,-0.4691,-0.4604,-0.4491,-0.4491,-0.4682,-0.4887,-0.4887,-0.5111,-0.5395,-0.5395,0.0,0.0,0.0,0.0,0.0,0.0,0.0,0.0,0.0,0.0,0.0,0.0,0.0,0.0,0.0,0.0,0.0,0.0,0.0,0.0,0.0,0.0,0.0,0.0,-1.0998,-1.0774,-1.0774,-1.117,-1.1564,-1.1845,-1.1463,-1.1492,-1.2309,-1.1923,-1.1663,-1.1784,-1.1797,-1.1924,-1.2254,-1.2275,-1.2409,-1.2672,-1.2685,-1.2685,-1.2685,-1.2685,-1.2766,-1.2978,-1.2978,-1.3033,-1.32,-1.3026,-1.2978,-1.2971,-1.2759,-1.2685,-1.2685,-1.2685,-1.2685,-1.2625,0.0,0.0,0.0,0.0,-1.1797,-1.1797,0.0,0.0,0.0,0.0,0.0,0.0,0.0,0.0,-0.0532,-0.2009,-0.2202,-0.2788,-0.4322,-0.4491,-0.4491,-0.4491,-0.4491,-0.4491,-0.4491,-0.4491,-0.4491,-0.4491,-0.4638,-0.4691,-0.4691,-0.4857,-0.4975,-0.51,-0.5117,-0.5226,-0.5395,-0.5395,-0.5395,-0.5395,-0.5395,-0.5284,-0.5123,-0.5123,-0.5042,-0.4914,-0.4914,-0.4762,-0.4515,-0.4515,-0.4667,-0.4887,-0.4887,-0.5111,-0.5395,-0.5395,0.0,0.0,0.0,0.0,0.0,0.0,0.0,0.0,0.0,0.0,0.0,0.0,0.0,0.0,0.0,0.0,0.0,0.0,0.0,0.0,0.0,0.0,0.0,0.0,-1.0854,-1.1015,-1.1082,-1.1089,-1.1189,-1.1443,-1.1442,-1.159,-1.1926,-1.1986,-1.2114,-1.2331,-1.2385,-1.2518,-1.2824,-1.2837,0.0,0.0,0.0,-1.3213,-1.3213,-1.3213,-1.3227,-1.326,-1.326,-1.3273,-1.3307,-1.3273,-1.326,-1.326,-1.3227,-1.3213,-1.3213,-1.3213,-1.3213,-1.3153,-1.2579,-1.2331,-1.2305,-1.2305,-1.2305,-1.2305,0.0,0.0,0.0,0.0,0.0,0.0,0.0,0.0,-0.0532,-0.2009,-0.2202,-0.2788,-0.4322,-0.4491,-0.4491,-0.4491,-0.4491,-0.4491,-0.4491,-0.4491,-0.4491,-0.4491,-0.4638,-0.4691,-0.4691,-0.4921,-0.5069,-0.51,-0.5254,-0.5365,-0.5395,-0.5395,-0.5395,-0.5395,-0.5395,-0.5378,-0.5351,-0.5351,-0.523,-0.5059,-0.5059,-0.4911,-0.4646,-0.4646,-0.4758,-0.4887,-0.4887,-0.5111,-0.5395,-0.5395,-0.5395,-0.5395,-0.5395,-0.5395,0.0,0.0,0.0,0.0,0.0,0.0,0.0,0.0,0.0,0.0,0.0,0.0,0.0,0.0,0.0,0.0,0.0,0.0,0.0,-1.0901,-1.0955,-1.1156,-1.1665,-1.1739,-1.1752,-1.1812,-1.1784,-1.1897,-1.2191,-1.2469,-1.2636,-1.2697,-1.2893,-1.306,-1.312,-1.312,-1.3153,-1.3206,-1.3213,-1.3213,-1.3213,-1.3213,-1.3327,-1.352,-1.352,0.0,-1.3908,-1.3667,-1.352,-1.3507,-1.3273,-1.3213,-1.3213,-1.3213,-1.3213,-1.3173,-1.2844,-1.2549,-1.2305,-1.2305,-1.2305,-1.2305,0.0,0.0,0.0,0.0,0.0,0.0,0.0,0.0,-0.0532,-0.2009,-0.2202,-0.2788,-0.4322,-0.4491,-0.4491,-0.4491,-0.4491,-0.4491,-0.4491,-0.4491,-0.4525,-0.46,-0.4724,-0.484,-0.4908,-0.5131,-0.5247,-0.5247,-0.5358,-0.5395,-0.5395,-0.5395,-0.5395,-0.5395,-0.5395,-0.5395,-0.5395,-0.5395,-0.5351,-0.5247,-0.5247,-0.5111,-0.4894,-0.4748,-0.4785,-0.4887,-0.4887,-0.506,-0.5257,-0.5368,-0.5395,-0.5395,-0.5395,-0.5395,-0.5395,0.0,0.0,0.0,0.0,0.0,0.0,0.0,0.0,0.0,0.0,0.0,0.0,0.0,0.0,-1.0633,0.0,0.0,-1.0901,-1.1162,-1.1336,-1.1571,-1.1866,-1.2033,-1.2084,-1.2084,-1.2084,-1.2204,-1.2529,-1.2697,-1.2851,-1.3005,-1.312,-1.3273,-1.338,-1.3387,-1.35,-1.3647,-1.3647,-1.3647,-1.3647,-1.3647,-1.3721,-1.3868,-1.3868,-1.3941,-1.4082,-1.3935,-1.3868,-1.3854,-1.3714,-1.3647,-1.3647,-1.3647,-1.3561,-1.3373,-1.3253,-1.3013,-1.2759,-1.2759,-1.2759,-1.2732,0.0,0.0,0.0,0.0,0.0,0.0,0.0,0.0,-0.0476,-0.1814,-0.1981,-0.2565,-0.4125,-0.4267,-0.4322,-0.4491,-0.4491,-0.4491,-0.4491,-0.4491,-0.4545,-0.4672,-0.4819,-0.4941,-0.5056,-0.53,-0.5395,-0.5395,-0.5395,-0.5395,-0.5395,-0.5395,-0.5395,-0.5395,-0.5395,-0.5395,-0.5395,-0.5395,-0.5395,-0.5395,-0.5395,-0.5287,-0.5142,-0.4847,-0.4813,-0.4887,-0.4887,-0.4978,-0.512,-0.5344,-0.5395,-0.5395,-0.5395,-0.5395,-0.5395,-0.5395,-0.5881,0.0,0.0,0.0,0.0,0.0,0.0,0.0,0.0,0.0,-1.0593,-1.0593,-1.0633,-1.0747,-1.0949,-1.1042,-1.1176,-1.1463,-1.171,-1.1926,-1.198,-1.2151,-1.2305,-1.2305,-1.2351,-1.2485,-1.2764,-1.2891,-1.3065,-1.3273,-1.3347,-1.348,-1.368,-1.3686,-1.3841,-1.4082,-1.4088,-1.4088,-1.4088,-1.4088,-1.4088,-1.4088,-1.4088,-1.4088,-1.4088,-1.4088,-1.4088,-1.4088,-1.4088,-1.4088,-1.4088,-1.4088,-1.3948,-1.3686,-1.3686,-1.3587,-1.3367,-1.3253,-1.3213,-1.3173,0.0,0.0,0.0,0.0,0.0,0.0,0.0,0.0,-0.0308,-0.1118,-0.1229,-0.1814,-0.3345,-0.3483,-0.3732,-0.4436,-0.4491,-0.4491,-0.4491,-0.4491,-0.4498,-0.4515,-0.4765,-0.4894,-0.4911,-0.5252,-0.5395,-0.5395,-0.5395,-0.5395,-0.5395,-0.5395,-0.5395,-0.5395,-0.5395,-0.5395,-0.5395,-0.5395,-0.5395,-0.5395,-0.5395,-0.5385,-0.5337,-0.5006,-0.4874,-0.4887,-0.4887,-0.4978,-0.512,-0.5344,-0.5395,-0.5395,-0.5395,-0.5395,-0.5395,-0.5395,0.0,-0.5557,-0.5557,-0.6826,-0.8544,-1.0199,-1.0593,-1.0593,0.0,0.0,-1.0593,-1.0593,-1.0801,-1.0955,-1.0982,-1.1202,-1.1476,-1.1806,-1.1886,-1.1993,-1.2218,-1.2278,-1.2305,-1.2305,-1.2569,-1.275,-1.2784,-1.3233,-1.3513,-1.3553,-1.3841,-1.4001,-1.4035,-1.4041,-1.4055,-1.4088,-1.4088,-1.4088,-1.4088,-1.4088,-1.4088,-1.4088,-1.4088,-1.4088,-1.4088,-1.4088,-1.4088,-1.4088,-1.4088,-1.4088,-1.4088,-1.4088,-1.4068,-1.4041,-1.4041,-1.4015,-1.3928,-1.3407,-1.3213,-1.3206,0.0,0.0,0.0,0.0,0.0,0.0,0.0,0.0,0.0,-0.1006,-0.109,-0.1507,-0.2593,-0.3065,-0.3622,-0.4436,-0.4491,-0.4491,-0.4491,-0.4491,-0.4532,-0.4621,-0.4718,-0.4867,-0.5009,-0.5162,-0.527,-0.5395,-0.5395,-0.5395,-0.5395,-0.5395,-0.5395,-0.5395,-0.5395,-0.5395,-0.5395,-0.5395,-0.5395,-0.5388,-0.5264,-0.5226,-0.5196,-0.4897,-0.4785,-0.4785,-0.4785,-0.4823,0.0,-0.5148,-0.5226,-0.5243,-0.5365,-0.5395,-0.5395,-0.5395,-0.5752,0.0,-0.7381,-0.8194,-0.9037,0.0,-1.0593,-1.0593,-1.0593,-1.072,-1.0847,-1.0847,-1.1042,-1.1296,-1.1504,-1.1638,-1.1777,0.0,-1.2124,-1.2164,-1.2285,-1.2489,-1.2596,-1.2596,-1.2979,-1.32,-1.3033,-1.3394,-1.3673,-1.3888,-1.4015,-1.4088,-1.4088,-1.4088,-1.4088,-1.4088,-1.4088,-1.4088,-1.4088,-1.4088,-1.4088,-1.4088,-1.4088,-1.4088,-1.4088,-1.4088,-1.4088,-1.4088,-1.4088,-1.4088,-1.4088,-1.4088,-1.4088,-1.4088,-1.4088,-1.4088,-1.4055,-1.3808,-1.3721,-1.3694,0.0,0.0,0.0,0.0,0.0,0.0,0.0,0.0,0.0,0.0,-0.0783,-0.109,-0.1813,-0.2732,-0.3539,-0.4153,-0.4377,-0.4491,-0.4491,-0.4491,-0.4539,-0.4651,-0.4667,-0.4792,-0.4972,-0.5019,-0.5128,-0.5272,-0.531,-0.533,-0.533,-0.5375,-0.5395,-0.5395,-0.5395,-0.5395,-0.5392,-0.5347,-0.533,-0.5284,-0.5131,-0.5042,-0.5012,-0.4789,-0.4691,-0.4691,-0.4691,-0.4691,-0.4735,-0.4999,-0.51,-0.5127,-0.5347,-0.5395,-0.5395,-0.5395,-0.5848,-0.6724,-0.8452,0.0,0.0,-1.0333,-1.0653,-1.0713,-1.0713,-1.0935,-1.1109,-1.1109,-1.1343,-1.1617,-1.1866,-1.1973,-1.2058,-1.2271,-1.2305,-1.2305,-1.2305,-1.2596,-1.2784,-1.2784,-1.328,-1.352,-1.3313,-1.3553,-1.3854,-1.4075,-1.4088,-1.4088,-1.4088,-1.4088,-1.4088,-1.4088,-1.4088,-1.4088,-1.4088,-1.4088,-1.4088,-1.4088,-1.4088,-1.4088,-1.4088,-1.4088,-1.4088,-1.4088,-1.4088,-1.4088,-1.4088,-1.4088,-1.4088,-1.4088,-1.4088,-1.4088,-1.4088,-1.4088,-1.4088,-1.4055,0.0,0.0,0.0,0.0,0.0,0.0,0.0,0.0,0.0,0.0,0.0,0.0,0.0,-0.2425,-0.3345,-0.3428,-0.4098,-0.4491,-0.4491,-0.4491,-0.4491,-0.4498,-0.4641,-0.4694,-0.4704,-0.485,-0.4897,-0.4904,-0.5039,-0.5106,-0.511,-0.5324,-0.5395,-0.5395,-0.5395,-0.5395,-0.5385,-0.5203,-0.5106,-0.5093,-0.4951,-0.4894,-0.4877,-0.4752,-0.4691,-0.4691,-0.4691,-0.4691,-0.4735,-0.4999,-0.51,-0.5127,-0.5347,-0.5395,0.0,-0.5395,-0.5428,-0.5818,0.0,0.0,-0.8447,-1.0168,-1.0807,-1.0982,-1.0982,-1.1209,-1.1375,-1.1375,-1.165,-1.1893,-1.1906,-1.2098,-1.2291,-1.2305,-1.2305,-1.2305,-1.2305,-1.2596,-1.2784,-1.2784,-1.328,-1.36,0.0,-1.3901,-1.4075,-1.4088,-1.4088,-1.4088,-1.4088,-1.4088,-1.4088,-1.4088,-1.4088,-1.4088,-1.4088,-1.4088,-1.4088,-1.4088,-1.4088,-1.4088,-1.4088,-1.4088,-1.4088,-1.4088,-1.4088,-1.4088,-1.4088,-1.4088,-1.4088,-1.4088,-1.4088,-1.4088,-1.4088,-1.4088,-1.4088,-1.4088,0.0,0.0,0.0,0.0,0.0,0.0,0.0,0.0,0.0,0.0,0.0,0.0,0.0,0.0,0.0,0.0,-0.2843,-0.3204,-0.3735,-0.3763,-0.3987,-0.4491,-0.4539,-0.4614,-0.4687,-0.4741,-0.4816,-0.4887,-0.4935,-0.4958,-0.4961,-0.5043,-0.5067,-0.5067,-0.5067,-0.5067,-0.5064,-0.4982,-0.4958,-0.4945,-0.4826,-0.4769,-0.4752,-0.4627,-0.4566,-0.4566,0.0,-0.4566,-0.4614,-0.4887,-0.4958,-0.5002,-0.5317,-0.5395,-0.5395,-0.5395,-0.5815,-0.6527,-0.767,0.0,-0.9174,-1.0536,-1.0922,-1.1042,-1.1236,-1.151,-1.1724,-1.1724,-1.1951,-1.2158,-1.2158,-1.2238,-1.2305,-1.2305,-1.2305,-1.2305,-1.2305,-1.2739,-1.3053,-1.3053,-1.3574,0.0,0.0,0.0,0.0,-1.4088,-1.4088,-1.4088,-1.4088,-1.4088,-1.4088,-1.4088,-1.4088,-1.4088,-1.4088,-1.4088,-1.4088,-1.4088,-1.4088,-1.4088,-1.4088,-1.4088,-1.4088,-1.4088,-1.4088,-1.4088,-1.4088,-1.4088,-1.4088,-1.4088,-1.4088,-1.4088,-1.4088,-1.4088,-1.4088,-1.4088,0.0,0.0,0.0,0.0,0.0,0.0,0.0,0.0,0.0,0.0,0.0,0.0,0.0,0.0,0.0,0.0,0.0,-0.2425,-0.2926,-0.3204,-0.3594,-0.4098,-0.4349,-0.4535,-0.4634,-0.4638,-0.4657,-0.4755,-0.4809,-0.484,-0.484,-0.4894,-0.4887,-0.4887,-0.4887,-0.4887,-0.4884,-0.486,-0.4687,-0.4431,-0.4259,-0.4203,-0.4194,-0.3822,-0.4015,0.0,-0.4181,-0.4299,-0.461,-0.4833,-0.4887,-0.4969,-0.53,-0.5395,-0.5458,-0.5785,-0.6268,-0.6994,-0.8254,-0.9006,-0.9735,-1.087,-1.1223,-1.1356,-1.1543,-1.173,-1.1906,-1.1906,-1.168,-1.1516,-1.1516,-1.1599,-1.17,-1.17,-1.2048,-1.2305,-1.2305,-1.2826,-1.3213,-1.3213,-1.3728,-1.4088,0.0,0.0,0.0,-1.4088,-1.4088,-1.4088,-1.4088,-1.4088,-1.4088,-1.4088,-1.4088,-1.4088,-1.4088,-1.4088,-1.4088,-1.4088,-1.4088,-1.4088,-1.4088,-1.4088,-1.4088,-1.4088,-1.4088,-1.4088,-1.4088,-1.4088,-1.4088,-1.4088,-1.4088,-1.4088,-1.4088,-1.4088,-1.4088,-1.4088,0.0,0.0,0.0,0.0,0.0,0.0,0.0,0.0,0.0,0.0,0.0,0.0,0.0,0.0,0.0,0.0,0.0,0.0,-0.2148,-0.2788,-0.3231,-0.3345,-0.4015,-0.4377,-0.4377,-0.4377,-0.4377,-0.4377,-0.452,-0.4561,-0.4564,-0.4707,-0.4773,-0.4773,-0.4773,-0.4773,-0.4763,-0.4621,-0.4181,-0.3498,-0.3332,-0.3289,-0.3262,-0.2482,-0.3121,-0.4349,-0.3566,-0.3902,-0.4714,0.0,0.0,0.0,0.0,-0.5395,-0.5557,-0.6429,-0.6724,-0.7198,-0.9181,-0.9728,-1.0034,-1.1165,-1.1663,-1.1906,-1.1835,-1.187,-1.1864,-1.1773,-1.0876,-1.0101,0.0,0.0,-1.0587,-1.0599,-1.1546,-1.2285,-1.2298,-1.2826,-1.3213,0.0,0.0,0.0,0.0,0.0,0.0,-1.4088,0.0,-1.4088,-1.4088,-1.4088,-1.4088,-1.4088,-1.4088,-1.4088,-1.4088,-1.4088,-1.4088,-1.4088,-1.4088,-1.4088,-1.4088,-1.4088,-1.4088,-1.4088,-1.4088,-1.4088,-1.4088,-1.4088,-1.4088,-1.4088,-1.4088,-1.4088,-1.4088,-1.4088,-1.4088,-1.4088,0.0,0.0,0.0,0.0,0.0,0.0,0.0,0.0,0.0,0.0,0.0,0.0,0.0,0.0,0.0,0.0,0.0,0.0,-0.1341,-0.1563,-0.1925,-0.2482,-0.2676,-0.2788,-0.2788,-0.2788,-0.2788,-0.2788,-0.2811,-0.2824,-0.2824,-0.2878,-0.2888,-0.2888,-0.2888,-0.2888,-0.2886,-0.2863,-0.2739,-0.254,-0.249,-0.248,-0.2482,-0.2286,-0.2815,-0.3652,-0.34,-0.3902,0.0,0.0,0.0,0.0,0.0,-0.5395,-0.5557,-0.6429,-0.7315,-0.8214,-0.9393,-1.0331,-1.1109,-1.1648,-1.1852,-1.1721,-1.1072,-1.1436,-1.1478,-0.9908,-0.9857,-0.9892,0.0,0.0,0.0,-1.0569,-1.1386,0.0,-1.2271,-1.2826,0.0,-1.3213,0.0,-1.4088,-1.4088,-1.4088,0.0,0.0,-1.4088,-1.4088,-1.4088,-1.4088,-1.4088,-1.4088,-1.4088,-1.4088,-1.4088,-1.4088,-1.4088,-1.4088,-1.4088,-1.4088,-1.4088,-1.4088,-1.4088,-1.4088,-1.4088,-1.4088,-1.4088,-1.4088,-1.4088,-1.4088,-1.4088,-1.4088,-1.4088,-1.4088,-1.4088,-1.4088,0.0,0.0,0.0,0.0,0.0,0.0,0.0,0.0,0.0,0.0,0.0,0.0,0.0,0.0,0.0,0.0,0.0,0.0,0.0,-0.0923,-0.1284,-0.1703,-0.2037,-0.2202,-0.2202,-0.2202,-0.2202,-0.2202,-0.2202,-0.2202,-0.2202,-0.2202,-0.2202,-0.2202,-0.2202,-0.2202,-0.2202,-0.2202,-0.2009,0.0,0.0,-0.173,-0.1675,-0.1369,-0.1925,-0.2875,-0.2921,0.0,0.0,0.0,0.0,-0.5395,-0.5395,-0.5395,-0.5557,-0.6429,0.0,-0.8615,-0.9615,-1.0739,-1.169,-1.1984,-1.1706,-1.1215,-1.0713,-1.0491,-1.0025,-0.8877,-0.8601,0.0,0.0,0.0,0.0,0.0,0.0,0.0,-1.2091,-1.2746,-1.3213,0.0,-1.3728,0.0,-1.4088,-1.4088,-1.4088,0.0,-1.4088,-1.4088,-1.4088,-1.4088,-1.4088,-1.4088,-1.4088,-1.4088,-1.4088,-1.4088,-1.4088,-1.4088,-1.4088,-1.4088,-1.4088,-1.4088,-1.4088,-1.4088,-1.4088,-1.4088,-1.4088,-1.4088,-1.4088,-1.4088,-1.4088,-1.4088,-1.4088,-1.4088,-1.4088,-1.4088,0.0,0.0,0.0,0.0,0.0,0.0,0.0,0.0,0.0,0.0,0.0,0.0,0.0,0.0,0.0,0.0,0.0,0.0,0.0,0.0,-0.095,-0.095,-0.1563,-0.1898,-0.1898,-0.1898,-0.1898,-0.1898,-0.1898,-0.1898,-0.1898,-0.1898,-0.1898,-0.1898,-0.1898,-0.1898,-0.1898,-0.1898,-0.1535,-0.095,-0.095,-0.095,-0.0895,0.0,-0.0841,0.0,0.0,0.0,0.0,0.0,-0.5395,-0.5395,-0.5395,-0.5395,-0.5557,-0.6429,-0.7436,-0.8507,-0.976,-1.0926,-1.184,-1.2201,-1.1533,-1.0701,-1.0408,-0.943,-0.8449,-0.8082,0.0,-0.6654,-0.656,-0.7418,-0.8221,-0.8386,0.0,-1.1717,-1.1864,-1.2612,-1.3166,-1.3206,-1.3694,-1.4041,-1.4082,-1.4088,-1.4088,-1.4088,-1.4088,-1.4088,-1.4088,-1.4088,-1.4088,-1.4088,-1.4088,-1.4088,-1.4088,-1.4088,-1.4088,-1.4088,-1.4088,-1.4088,-1.4088,-1.4088,-1.4088,-1.4088,-1.4088,-1.4088,-1.4088,-1.4088,-1.4088,-1.4088,-1.4088,-1.4088,-1.4088,-1.4088,-1.4088,-1.4088,0.0,0.0,0.0,0.0,0.0,0.0,0.0,0.0,0.0,0.0,0.0,0.0,0.0,0.0,0.0,0.0,0.0,0.0,0.0,0.0,0.0,-0.0196,-0.0308,-0.0392,-0.0392,-0.0392,-0.0392,-0.0392,-0.0392,-0.0392,-0.0392,-0.0392,-0.0392,-0.0392,-0.0392,-0.0392,-0.0392,-0.0392,-0.0308,-0.0196,-0.0196,-0.0196,-0.0168,-0.0056,0.0,0.0,0.0,0.0,0.0,0.0,-0.5395,-0.5395,-0.5395,-0.5395,-0.5557,-0.6429,-0.7064,-0.7869,-0.9632,-1.0551,-1.1218,-1.2063,-1.1976,-1.1223,-0.9498,-0.9308,0.0,0.0,-0.6321,-0.6494,-0.5752,-0.6391,0.0,-0.826,0.0,0.0,0.0,0.0,-1.2958,0.0,0.0,0.0,0.0,0.0,0.0,0.0,-1.4088,-1.4088,-1.4088,-1.4088,-1.4088,-1.4088,-1.4088,-1.4088,-1.4088,-1.4088,-1.4088,-1.4088,-1.4088,-1.4088,-1.4088,-1.4088,-1.4088,-1.4088,-1.4088,-1.4088,-1.4088,-1.4088,-1.4088,-1.4088,-1.4088,-1.4088,-1.4088,-1.4088,-1.4088,-1.4088,0.0,0.0,0.0,0.0,0.0,0.0,0.0,0.0,0.0,0.0,0.0,0.0,0.0,0.0,0.0,0.0,0.0,0.0,0.0,0.0,0.0,0.0,0.0,0.0,0.0,0.0,0.0,0.0,0.0,0.0,0.0,0.0,0.0,0.0,0.0,0.0,0.0,0.0,0.0,0.0,0.0,0.0,0.0,0.0,0.0,0.0,0.0,0.0,0.0,0.0,-0.5395,-0.5395,-0.5395,-0.5395,-0.5491,-0.5914,-0.6617,-0.7491,-0.8408,-0.9311,-1.0125,-1.052,-1.0071,-0.9216,-0.8156,0.0,0.0,0.0,-0.5719,-0.5881,-0.5495,0.0,0.0,0.0,0.0,0.0,0.0,0.0,0.0,0.0,0.0,0.0,0.0,0.0,0.0,-1.4088,-1.4088,-1.4088,-1.4088,-1.4088,-1.4088,-1.4088,-1.4088,-1.4088,-1.4088,-1.4088,-1.4088,-1.4088,-1.4088,-1.4088,-1.4088,-1.4088,-1.4088,-1.4088,-1.4088,-1.4088,-1.4088,-1.4088,-1.4088,-1.4088,-1.4088,-1.4088,-1.3997,-1.3379,-1.316,-1.3075,0.0,0.0,0.0,0.0,0.0,0.0,0.0,0.0,0.0,0.0,0.0,0.0,0.0,0.0,0.0,0.0,0.0,0.0,0.0,0.0,0.0,0.0,0.0,0.0,0.0,0.0,0.0,0.0,0.0,0.0,0.0,0.0,0.0,0.0,0.0,0.0,0.0,0.0,0.0,0.0,0.0,0.0,0.0,0.0,0.0,0.0,0.0,0.0,0.0,0.0,-0.5395,-0.5395,-0.5395,-0.5395,-0.5395,-0.5395,-0.6124,-0.6981,-0.7188,-0.8052,-0.8886,-0.9005,-0.8288,-0.7464,-0.7185,-0.637,0.0,0.0,-0.5395,-0.5395,-0.5395,0.0,0.0,0.0,0.0,0.0,0.0,0.0,0.0,0.0,0.0,0.0,0.0,0.0,0.0,-1.4088,-1.4088,-1.4088,-1.4088,-1.4088,-1.4088,-1.4088,-1.4088,-1.4088,-1.4088,-1.4088,-1.4088,-1.4088,-1.4088,-1.4088,-1.4088,-1.4088,-1.4088,-1.4088,-1.4088,-1.4088,-1.4088,-1.4088,-1.3955,-1.3688,-1.3688,-1.3561,-1.3258,-1.2291,-1.1943,-1.1809,0.0,0.0,0.0,0.0,0.0,0.0,0.0,0.0,0.0,0.0,0.0,0.0,0.0,0.0,0.0,0.0,0.0,0.0,0.0,0.0,0.0,0.0,0.0,0.0,0.0,0.0,0.0,0.0,0.0,0.0,0.0,0.0,0.0,0.0,0.0,0.0,0.0,0.0,0.0,0.0,0.0,0.0,0.0,0.0,0.0,0.0,0.0,0.0,0.0,0.0,0.0,-0.5395,-0.5395,-0.5395,-0.5395,-0.5395,0.0,0.0,-0.6872,-0.7285,-0.7717,-0.8614,-0.8551,-0.8078,-0.7287,0.0,0.0,-0.5557,-0.5395,-0.5395,-0.5395,-0.5458,-0.5782,0.0,0.0,-0.7966,0.0,0.0,0.0,0.0,0.0,0.0,0.0,0.0,0.0,-1.4088,-1.4088,-1.4088,-1.4088,-1.4088,-1.4088,-1.4088,-1.4088,-1.4088,-1.4088,-1.4088,-1.4088,-1.4088,-1.4088,-1.4088,-1.4088,-1.4088,-1.4088,-1.4088,-1.4088,-1.4088,-1.4088,-1.4088,-1.3464,-1.2456,-1.2456,-1.1815,-1.0913,-1.0783,-1.0783,-1.074,0.0,0.0,0.0,0.0,0.0,0.0,0.0,0.0,0.0,0.0,0.0,0.0,0.0,0.0,0.0,0.0,0.0,0.0,0.0,0.0,0.0,0.0,0.0,0.0,0.0,0.0,0.0,0.0,0.0,0.0,0.0,0.0,0.0,0.0,0.0,0.0,0.0,0.0,0.0,0.0,0.0,0.0,0.0,0.0,0.0,0.0,0.0,0.0,0.0,0.0,0.0,0.0,-0.5395,-0.5395,0.0,0.0,-0.5504,-0.5693,-0.61,-0.6281,-0.6485,-0.6802,-0.6794,-0.6609,-0.6172,0.0,-0.5815,-0.5458,-0.5395,-0.5395,-0.5395,-0.5395,-0.5524,-0.5848,0.0,0.0,0.0,0.0,0.0,0.0,0.0,0.0,0.0,0.0,-1.4088,-1.4088,-1.4088,-1.4088,-1.4088,-1.4088,-1.4088,-1.4088,-1.4088,-1.4088,-1.4088,-1.4088,-1.4088,-1.4088,-1.4088,-1.4088,-1.4088,-1.4088,-1.4088,-1.4088,-1.4088,-1.4088,-1.4088,-1.4088,-1.3379,-1.2285,-1.2285,-1.1595,-1.0524,-0.9836,-0.9579,-0.9492,0.0,0.0,0.0,0.0,0.0,0.0,0.0,0.0,0.0,0.0,0.0,0.0,0.0,0.0,0.0,0.0,0.0,0.0,0.0,0.0,0.0,0.0,0.0,0.0,0.0,0.0,0.0,0.0,0.0,0.0,0.0,0.0,0.0,0.0,0.0,0.0,0.0,0.0,0.0,0.0,0.0,0.0,0.0,0.0,0.0,0.0,0.0,0.0,0.0,0.0,0.0,0.0,0.0,0.0,0.0,0.0,-0.547,-0.5556,-0.5556,-0.5596,-0.5647,-0.5549,-0.5556,-0.5528,0.0,0.0,-0.5395,-0.5395,-0.5395,-0.5395,-0.5395,-0.5395,-0.5395,-0.5395,0.0,-0.6494,0.0,0.0,0.0,0.0,0.0,0.0,0.0,0.0,-1.4088,-1.4088,-1.4088,-1.4088,-1.4088,-1.4088,-1.4088,-1.4088,-1.4088,-1.4088,-1.4088,-1.4088,-1.4088,-1.4088,-1.4088,-1.4088,-1.4088,-1.4088,-1.3906,-1.3561,-1.3561,-1.3385,-1.3039,-1.3039,-1.2388,-1.1295,-1.1295,-1.0605,-0.9483,-0.8667,-0.8364,-0.8237,0.0,0.0,0.0,0.0,0.0,0.0,0.0,0.0,0.0,0.0,0.0,0.0,0.0,0.0,0.0,0.0,0.0,0.0,0.0,0.0,0.0,0.0,0.0,0.0,0.0,0.0,0.0,0.0,0.0,0.0,0.0,0.0,0.0,0.0,0.0,0.0,0.0,0.0,0.0,0.0,0.0,0.0,0.0,0.0,0.0,0.0,0.0,0.0,0.0,0.0,0.0,0.0,0.0,0.0,0.0,0.0,-0.5395,-0.5395,-0.5395,-0.5399,-0.5399,-0.5399,-0.5395,-0.5395,0.0,0.0,-0.5395,-0.5395,-0.5395,-0.5395,-0.5395,-0.5395,-0.5395,-0.5395,-0.5395,0.0,0.0,0.0,0.0,0.0,0.0,0.0,0.0,-1.315,-1.4088,-1.4088,-1.4088,-1.4088,-1.4088,-1.4088,-1.4088,-1.4088,-1.4088,-1.4088,-1.4088,-1.4088,-1.4088,-1.4088,-1.4088,-1.4088,-1.4088,-1.4088,-1.3464,-1.2328,-1.2328,-1.1681,-1.0654,-1.0654,-0.9966,-0.8934,-0.8934,-0.8189,-0.7139,-0.7139,-0.7139,-0.7095,0.0,0.0,0.0,0.0,0.0,0.0,0.0,0.0,0.0,0.0,0.0,0.0,0.0,0.0,0.0,0.0,0.0,0.0,0.0,0.0,0.0,0.0,0.0,0.0,0.0,0.0,0.0,0.0,0.0,0.0,0.0,0.0,0.0,0.0,0.0,0.0,0.0,0.0,0.0,0.0,0.0,0.0,0.0,0.0,0.0,0.0,0.0,0.0,0.0,0.0,0.0,0.0,0.0,0.0,0.0,-0.5395,0.0,0.0,-0.5395,-0.5395,-0.5395,-0.5395,-0.5395,-0.5395,-0.5395,0.0,-0.5395,-0.5395,-0.5395,-0.5395,-0.5395,-0.5395,-0.5395,-0.5395,-0.5395,0.0,0.0,0.0,0.0,0.0,0.0,0.0,0.0,0.0,-1.3779,-1.2942,-1.2851,-1.2553,-1.1735,-1.1697,-1.2431,-1.4039,-1.4088,-1.4088,-1.4088,-1.4088,-1.4088,-1.4088,-1.3252,-1.2851,-1.2851,-1.2077,-1.1515,-1.1123,-1.1123,-1.0907,-1.0611,-1.0611,-0.9923,-0.889,-0.889,-0.8145,-0.7095,-0.7095,-0.7095,-0.7095,0.0,0.0,0.0,0.0,0.0,0.0,0.0,0.0,0.0,0.0,0.0,0.0,0.0,0.0,0.0,0.0,0.0,0.0,0.0,0.0,0.0,0.0,0.0,0.0,0.0,0.0,0.0,0.0,0.0,0.0,0.0,0.0,0.0,0.0,0.0,0.0,0.0,0.0,0.0,0.0,0.0,0.0,0.0,0.0,0.0,0.0,0.0,0.0,0.0,0.0,0.0,0.0,0.0,0.0,0.0,0.0,-0.5395,-0.5395,0.0,-0.5395,-0.5395,-0.5395,-0.5395,0.0,0.0,0.0,-0.5395,-0.5395,-0.5395,-0.5395,-0.5395,-0.5395,-0.5395,-0.5395,0.0,0.0,0.0,0.0,0.0,0.0,0.0,0.0,0.0,-1.4021,-1.3779,-1.3033,-1.2547,-1.198,-1.1295,-1.0826,-1.1262,-1.2735,-1.3209,-1.3421,-1.3421,-1.3864,-1.3864,-1.3421,-1.2674,-1.2072,-1.1638,-1.0907,-1.0351,-0.9966,-0.9966,-0.9705,0.0,-0.9266,-0.8882,-0.8233,-0.8233,-0.7753,-0.7095,-0.7095,-0.7095,-0.7095,0.0,0.0,0.0,0.0,0.0,0.0,0.0,0.0,0.0,0.0,0.0,0.0,0.0,0.0,0.0,0.0,0.0,0.0,0.0,0.0,0.0,0.0,0.0,0.0,0.0,0.0,0.0,0.0,0.0,0.0,0.0,0.0,0.0,0.0,0.0,0.0,0.0,0.0,0.0,0.0,0.0,0.0,0.0,0.0,0.0,0.0,0.0,0.0,0.0,0.0,0.0,0.0,0.0,0.0,0.0,0.0,0.0,0.0,0.0,-0.5395,0.0,0.0,0.0,0.0,0.0,0.0,0.0,0.0,0.0,0.0,-0.5395,-0.5395,0.0,0.0,0.0,0.0,0.0,0.0,0.0,0.0,0.0,0.0,-1.3389,-1.388,-1.4046,-1.3997,-1.2857,-1.2157,-1.2066,-1.095,-1.0351,-1.0351,-1.1466,-1.2114,-1.22,-1.3294,-1.3294,-1.22,-1.2114,-1.1509,-1.0481,-1.0394,-0.9792,-0.8759,-0.8759,-0.8145,-0.7095,-0.7095,-0.7095,-0.7095,-0.7095,-0.7095,-0.7095,-0.7095,-0.7095,-0.7095,0.0,0.0,0.0,0.0,0.0,0.0,0.0,0.0,0.0,0.0,0.0,0.0,0.0,0.0,0.0,0.0,0.0,0.0,0.0,0.0,0.0,0.0,0.0,0.0,0.0,0.0,0.0,0.0,0.0,0.0,0.0,0.0,0.0,0.0,0.0,0.0,0.0,0.0,0.0,0.0,0.0,0.0,0.0,0.0,0.0,0.0,0.0,-0.0135,0.0,0.0,0.0,0.0,0.0,0.0,0.0,0.0,-0.5395,-0.5395,-0.5395,0.0,-0.5395,-0.5395,-0.5395,0.0,0.0,0.0,0.0,0.0,0.0,0.0,0.0,0.0,0.0,0.0,0.0,0.0,0.0,0.0,0.0,0.0,0.0,-1.279,-1.2626,-1.3516,-1.3737,-1.2808,-1.1643,-1.0611,-0.9749,-0.8575,-0.7921,-0.7921,-0.91,-1.0139,-1.0994,-1.1257,-1.1257,-1.0999,-1.0139,-0.9579,-0.9279,-0.836,-0.7793,-0.7536,-0.7536,-0.736,-0.7095,-0.7095,-0.7095,-0.7095,-0.7095,-0.7095,-0.7095,-0.7095,-0.7095,-0.7095,0.0,0.0,0.0,0.0,0.0,0.0,0.0,0.0,0.0,0.0,0.0,0.0,0.0,0.0,0.0,0.0,0.0,0.0,0.0,0.0,0.0,0.0,0.0,0.0,0.0,0.0,0.0,0.0,0.0,0.0,0.0,0.0,0.0,0.0,0.0,0.0,0.0,0.0,0.0,0.0,0.0,0.0,0.0,0.0,0.0,0.0,0.0,0.0,0.0,0.0,-0.0572,-0.1474,0.0,0.0,0.0,0.0,-0.5395,-0.5395,-0.5395,-0.5395,-0.5395,-0.5395,-0.5395,-0.5395,0.0,0.0,0.0,0.0,0.0,0.0,0.0,0.0,0.0,0.0,0.0,0.0,0.0,0.0,0.0,0.0,0.0,-1.2395,0.0,-1.2826,-1.3245,-1.3118,-1.1085,-0.9792,-0.9666,-0.8057,-0.7095,-0.7095,-0.7753,-0.8623,-0.9792,-1.0351,-1.0351,-0.9792,-0.9192,-0.8627,-0.8061,-0.7401,-0.7095,-0.7095,-0.7095,-0.7095,-0.7095,-0.7095,-0.7095,-0.7095,-0.7095,-0.7095,-0.7095,-0.7095,-0.7095,-0.7095,0.0,0.0,0.0,0.0,0.0,0.0,0.0,0.0,0.0,0.0,0.0,0.0,0.0,0.0,0.0,0.0,0.0,0.0,0.0,0.0,0.0,0.0,0.0,0.0,0.0,0.0,0.0,0.0,0.0,0.0,0.0,0.0,0.0,0.0,0.0,0.0,0.0,0.0,0.0,0.0,0.0,0.0,0.0,0.0,0.0,0.0,0.0,0.0,0.0,0.0,-0.0504,-0.1274,-0.221,0.0,0.0,0.0,0.0,0.0,-0.5395,-0.5395,-0.5395,-0.5395,-0.5395,-0.5395,0.0,0.0,0.0,0.0,0.0,0.0,0.0,0.0,0.0,0.0,0.0,0.0,0.0,0.0,0.0,0.0,0.0,0.0,-1.1436,-1.1818,-1.2462,-1.3476,-1.0664,-0.9323,-1.0308,-0.8269,-0.7095,-0.7095,-0.7095,-0.7577,-0.8627,-0.9575,-0.9575,-0.8627,-0.8627,-0.8105,-0.7095,-0.7095,-0.7095,-0.7095,-0.7095,-0.7095,-0.7095,-0.7095,-0.7095,-0.7095,-0.7095,-0.7095,-0.7095,-0.7095,-0.7095,-0.7095,0.0,0.0,0.0,0.0,0.0,0.0,0.0,0.0,0.0,0.0,0.0,0.0,0.0,0.0,0.0,0.0,0.0,0.0,0.0,0.0,0.0,0.0,0.0,0.0,0.0,0.0,0.0,0.0,0.0,0.0,0.0,0.0,0.0,0.0,0.0,0.0,0.0,0.0,0.0,0.0,0.0,0.0,0.0,0.0,0.0,0.0,0.0,0.0,0.0,0.0,-0.0101,-0.037,-0.124,0.0,0.0,0.0,0.0,0.0,-0.5395,-0.5395,-0.5395,-0.5395,-0.5395,-0.5395,0.0,0.0,0.0,0.0,0.0,0.0,0.0,0.0,0.0,0.0,0.0,0.0,0.0,0.0,0.0,0.0,0.0,-0.994,-0.9416,-1.0293,-1.0956,-1.1128,-0.9753,-0.8978,-0.9148,-0.7841,-0.7095,-0.7095,-0.7095,-0.7183,-0.736,-0.7533,-0.7533,-0.736,-0.736,-0.7272,-0.7095,-0.7095,-0.7095,-0.7095,-0.7095,-0.7095,-0.7095,-0.7095,-0.7095,-0.7095,-0.7095,-0.7095,-0.7095,-0.7095,-0.7095,-0.7095,0.0,0.0,0.0,0.0,0.0,0.0,0.0,0.0,0.0,0.0,0.0,0.0,0.0,0.0,0.0,0.0,0.0,0.0,0.0,0.0,0.0,0.0,0.0,0.0,0.0,0.0,0.0,0.0,0.0,0.0,0.0,0.0,0.0,0.0,0.0,0.0,0.0,0.0,0.0,0.0,0.0,0.0,0.0,0.0,0.0,0.0,0.0,0.0,0.0,0.0,0.0,-0.0168,-0.104,0.0,0.0,0.0,0.0,0.0,-0.5395,-0.5395,-0.5395,-0.5395,-0.5395,-0.5395,0.0,0.0,0.0,0.0,0.0,0.0,0.0,0.0,0.0,0.0,0.0,0.0,0.0,0.0,-0.6913,0.0,0.0,-0.9045,-0.8896,-0.9362,-0.9923,-1.0567,-0.8925,-0.8233,-0.8846,-0.7753,-0.7095,-0.7095,-0.7095,-0.7095,-0.7095,-0.7095,-0.7095,-0.7095,-0.7095,-0.7095,-0.7095,-0.7095,-0.7095,-0.7095,-0.7095,-0.7095,-0.7095,-0.7095,-0.7095,-0.7095,-0.7095,-0.7095,-0.7095,-0.7095,-0.7095,-0.7095,0.0,0.0,0.0,0.0,0.0,0.0,0.0,0.0,0.0,0.0,0.0,0.0,0.0,0.0,0.0,0.0,0.0,0.0,0.0,0.0,0.0,0.0,0.0,0.0,0.0,0.0,0.0,0.0,0.0,0.0,0.0,0.0,0.0,0.0,0.0,0.0,0.0,0.0,0.0,0.0,0.0,0.0,0.0,0.0,0.0,0.0,0.0,0.0,0.0,0.0,0.0,0.0,0.0,0.0,0.0,-0.3513,-0.4519,-0.5395,-0.5395,-0.5395,-0.5395,-0.5395,-0.5395,0.0,0.0,0.0,0.0,0.0,0.0,0.0,0.0,0.0,0.0,0.0,0.0,0.0,-0.6061,-0.6213,-0.6446,-0.6668,-0.7507,-0.8144,-0.8468,-0.8496,-0.8842,-0.9701,-0.8097,-0.7489,-0.8408,-0.7621,-0.7095,-0.7095,-0.7095,-0.7095,-0.7095,-0.7095,-0.7095,-0.7095,-0.7095,-0.7095,-0.7095,-0.7095,-0.7095,-0.7095,-0.7095,-0.7095,-0.7095,-0.7095,-0.7095,-0.7095,-0.7095,-0.7095,-0.7095,-0.7095,-0.7095,-0.7095,0.0,0.0,0.0,0.0,0.0,0.0,0.0,0.0,0.0,0.0,0.0,0.0,0.0,0.0,0.0,0.0,0.0,0.0,0.0,0.0,0.0,0.0,0.0,0.0,0.0,0.0,0.0,0.0,0.0,0.0,0.0,0.0,0.0,0.0,0.0,0.0,0.0,0.0,0.0,0.0,0.0,0.0,0.0,0.0,0.0,0.0,0.0,0.0,0.0,0.0,0.0,0.0,0.0,0.0,-0.2711,-0.2778,-0.4015,-0.5395,-0.5395,-0.5395,-0.5395,-0.5395,-0.5395,0.0,-0.5395,-0.5395,0.0,-0.5395,0.0,0.0,0.0,0.0,0.0,0.0,0.0,-0.6067,-0.6259,0.0,-0.6559,-0.6681,-0.6866,-0.7056,-0.7214,-0.7228,-0.7272,-0.7356,-0.7183,-0.7139,-0.7228,-0.7139,-0.7095,-0.7095,-0.7095,-0.7095,-0.7095,-0.7095,-0.7095,-0.7095,-0.7095,-0.7095,-0.7095,-0.7095,-0.7095,-0.7095,-0.7095,-0.7095,-0.7095,-0.7095,-0.7095,-0.7095,-0.7095,-0.7095,-0.7095,-0.7095,-0.7095,-0.7095,0.0,0.0,0.0,0.0,0.0,0.0,0.0,0.0,0.0,0.0,0.0,0.0,0.0,0.0,0.0,0.0,0.0,0.0,0.0,0.0,0.0,0.0,0.0,0.0,0.0,0.0,0.0,0.0,0.0,0.0,0.0,0.0,0.0,0.0,0.0,0.0,0.0,0.0,0.0,0.0,0.0,0.0,0.0,0.0,0.0,0.0,0.0,0.0,0.0,0.0,0.0,0.0,0.0,-0.084,-0.1842,-0.1842,-0.3111,-0.4519,-0.4519,-0.4957,-0.5395,-0.5395,-0.5395,0.0,0.0,-0.5395,-0.5395,-0.5395,-0.5395,0.0,0.0,0.0,0.0,0.0,0.0,-0.6084,-0.6279,-0.6422,-0.6569,-0.6681,-0.6834,-0.6943,-0.7082,-0.7095,-0.7095,-0.7095,-0.7095,-0.7095,-0.7095,-0.7095,-0.7095,-0.7095,-0.7095,-0.7095,-0.7095,-0.7095,-0.7095,-0.7095,-0.7095,-0.7095,-0.7095,-0.7095,-0.7095,-0.7095,-0.7095,-0.7095,-0.7095,-0.7095,-0.7095,-0.7095,-0.7095,-0.7095,-0.7095,-0.7095,-0.7095,-0.7095,0.0,0.0,0.0,0.0,0.0,0.0,0.0,0.0,0.0,0.0,0.0,0.0,0.0,0.0,0.0,0.0,0.0,0.0,0.0,0.0,0.0,0.0,0.0,0.0,0.0,0.0,0.0,0.0,0.0,0.0,0.0,0.0,0.0,0.0,0.0,0.0,0.0,0.0,0.0,0.0,0.0,0.0,0.0,0.0,0.0,0.0,0.0,0.0,0.0,0.0,0.0,0.0,0.0,-0.0605,-0.1374,-0.1641,-0.2811,-0.4048,-0.435,-0.4921,-0.5395,-0.5395,0.0,0.0,-0.5395,-0.5395,-0.5395,-0.5395,-0.5433,0.0,0.0,0.0,0.0,0.0,-0.6071,-0.6139,-0.6286,-0.6422,-0.6569,-0.6681,-0.6834,-0.6943,-0.7082,-0.7095,-0.7095,-0.7095,-0.7095,-0.7095,-0.7095,-0.7095,-0.7095,-0.7095,-0.7095,-0.7095,-0.7095,-0.7095,-0.7095,-0.7095,-0.7095,-0.7095,-0.7095,-0.7095,-0.7095,-0.7095,-0.7095,-0.7095,-0.7095,-0.7095,-0.7095,-0.7095,-0.7095,-0.7095,-0.7095,-0.7095,-0.7095,-0.7095,0.0,0.0,0.0,0.0,0.0,0.0,0.0,0.0,0.0,0.0,0.0,0.0,0.0,0.0,0.0,0.0,0.0,0.0,0.0,0.0,0.0,0.0,0.0,0.0,0.0,0.0,0.0,0.0,0.0,0.0,0.0,0.0,0.0,0.0,0.0,0.0,0.0,0.0,0.0,0.0,0.0,0.0,0.0,0.0,0.0,0.0,0.0,0.0,0.0,0.0,0.0,0.0,0.0,-0.0605,-0.1474,-0.241,-0.3311,-0.4184,-0.5123,-0.5395,-0.5395,0.0,0.0,0.0,-0.5395,-0.5395,-0.5395,-0.5395,0.0,-0.5633,-0.5776,0.0,0.0,-0.5993,-0.6162,-0.63,-0.63,-0.6422,-0.6569,-0.6678,-0.6834,-0.694,-0.7082,-0.7095,-0.7095,-0.7095,-0.7095,-0.7095,-0.7095,-0.7095,-0.7095,-0.7095,-0.7095,-0.7095,-0.7095,-0.7095,-0.7095,-0.7095,-0.7095,-0.7095,-0.7095,-0.7095,-0.7095,-0.7095,-0.7095,-0.7095,-0.7095,-0.7095,-0.7095,-0.7095,-0.7095,-0.7095,-0.7095,-0.7095,-0.7095,-0.7095,0.0,0.0,0.0,0.0,0.0,0.0,0.0,0.0,0.0,0.0,0.0,0.0,0.0,0.0,0.0,0.0,0.0,0.0,0.0,0.0,0.0,0.0,0.0,0.0,0.0,0.0,0.0,0.0,0.0,0.0,0.0,0.0,0.0,0.0,0.0,0.0,0.0,0.0,0.0,0.0,0.0,0.0,0.0,0.0,0.0,0.0,0.0,0.0,0.0,0.0,0.0,0.0,0.0,-0.0168,-0.0437,-0.0706,-0.1878,-0.3011,-0.2609,-0.3915,0.0,0.0,0.0,0.0,0.0,-0.5395,0.0,0.0,-0.5559,-0.5664,-0.5915,0.0,0.0,-0.6173,-0.6269,-0.63,-0.63,-0.6422,-0.6528,-0.6573,-0.677,-0.6903,-0.6943,-0.7038,-0.7095,-0.7095,-0.7095,-0.7095,-0.7095,-0.7095,-0.7095,-0.7095,-0.7095,-0.7095,-0.7095,-0.7095,-0.7095,-0.7095,-0.7095,-0.7095,-0.7095,-0.7095,-0.7095,-0.7095,-0.7095,-0.7095,-0.7095,-0.7095,-0.7095,-0.7095,-0.7095,-0.7095,-0.7095,-0.7095,-0.7095,-0.7095,0.0,0.0,0.0,0.0,0.0,0.0,0.0,0.0,0.0,0.0,0.0,0.0,0.0,0.0,0.0,0.0,0.0,0.0,0.0,0.0,0.0,0.0,0.0,0.0,0.0,0.0,0.0,0.0,0.0,0.0,0.0,0.0,0.0,0.0,0.0,0.0,0.0,0.0,0.0,0.0,0.0,0.0,0.0,0.0,0.0,0.0,0.0,0.0,0.0,0.0,0.0,0.0,0.0,0.0,-0.0135,-0.0874,-0.1843,-0.2744,-0.2878,0.0,0.0,0.0,0.0,0.0,0.0,0.0,0.0,0.0,0.0,-0.5837,-0.6078,-0.6122,0.0,-0.6282,-0.63,-0.63,-0.63,-0.6375,-0.645,-0.6504,-0.6634,-0.677,-0.6831,-0.6915,-0.6947,-0.7007,-0.7011,-0.7038,-0.7092,-0.7095,-0.7095,-0.7095,-0.7095,-0.7095,-0.7095,-0.7095,-0.7095,-0.7095,-0.7095,-0.7095,-0.7095,-0.7095,-0.7095,-0.7095,-0.7095,-0.7095,-0.7095,-0.7095,-0.7095,-0.7095,-0.7095,-0.7095,-0.7095,-0.7095,-0.7095,-0.7095,0.0,0.0,0.0,0.0,0.0,0.0,0.0,0.0,0.0,0.0,0.0034,0.0,0.0,0.0,0.0,0.0,0.0,0.0,0.0,0.0,0.0,0.0,0.0,0.0,0.0,0.0,0.0,0.0,0.0,0.0,0.0,0.0,0.0,0.0,0.0,0.0,0.0,0.0,0.0,0.0,0.0,0.0,0.0,0.0,0.0,0.0,0.0,0.0,0.0,0.0,0.0,0.0,0.0,0.0,-0.0337,-0.1977,-0.2577,-0.3045,-0.4586,0.0,0.0,0.0,0.0,0.0,0.0,0.0,0.0,0.0,0.0,-0.6078,-0.6272,-0.6219,-0.6141,-0.6141,-0.6064,-0.6022,-0.6022,-0.6022,-0.6067,-0.6192,-0.6221,-0.6239,-0.6372,-0.6398,-0.6463,-0.6596,-0.6606,-0.6701,-0.6913,-0.6923,-0.6967,-0.7055,-0.7055,-0.7061,-0.7078,-0.7078,-0.7085,-0.7095,-0.7095,-0.7095,-0.7095,-0.7095,-0.7095,-0.7095,-0.7095,-0.7095,-0.7095,-0.7095,-0.7095,-0.7095,-0.7095,-0.7095,-0.7095,-0.7095,-0.7095,-0.7095,0.0,0.0,0.0,0.0,0.0,0.0,0.0,0.0,0.0,0.0,0.0,0.0,0.0,0.0,0.0,0.0,0.0,0.0,0.0,0.0,0.0,0.0,0.0,0.0,0.0,0.0,0.0,0.0,0.0,0.0,0.0,0.0,0.0,0.0,0.0,0.0,0.0,0.0,0.0,0.0,0.0,0.0,0.0,0.0,0.0,0.0,0.0,0.0,0.0,0.0,0.0,0.0,0.0,0.0,-0.0067,-0.0471,-0.1576,-0.2611,0.0,0.0,0.0,0.0,0.0,0.0,0.0,0.0,0.0,0.0,-0.5922,-0.6078,-0.6272,-0.5628,-0.504,-0.504,-0.4334,-0.3787,-0.3787,-0.3787,-0.3793,-0.3812,-0.392,-0.4012,-0.4115,-0.4185,-0.4281,-0.4303,-0.4305,-0.4648,-0.547,-0.5515,-0.5897,-0.6751,-0.6797,-0.6854,-0.693,-0.693,-0.6987,-0.7095,-0.7095,-0.7095,-0.7095,-0.7095,-0.7095,-0.7095,-0.7095,-0.7095,-0.7095,-0.7095,-0.7095,-0.7095,-0.7095,-0.7095,-0.7095,-0.7095,-0.7095,-0.7095,0.0,0.0,0.0,0.0,0.0,0.0,0.0,0.0,0.0,0.0,0.0,0.0,0.0,0.0,0.0,0.0,0.0,0.0,0.0,0.0,0.0,0.0,0.0,0.0,0.0,0.0,0.0,0.0,0.0,0.0,0.0,0.0,0.0,0.0,0.0,0.0,0.0,0.0,0.0,0.0,0.0,0.0,0.0,0.0,0.0,0.0,0.0,0.0,0.0,0.0,0.0,0.0,0.0,0.0,-0.0067,-0.0504,-0.1275,-0.2009,0.0,0.0,0.0,0.0,0.0,0.0,0.0,0.0,0.0,0.0,-0.4519,-0.4655,-0.4753,-0.4295,-0.3943,-0.3943,-0.3474,-0.3085,-0.3085,-0.3085,-0.3085,-0.3085,-0.3158,-0.3223,-0.3263,-0.3339,-0.338,-0.346,-0.3462,-0.3725,-0.4349,-0.4395,-0.4645,-0.5191,-0.5233,-0.5262,-0.5326,-0.5339,-0.5353,-0.5408,-0.5416,-0.544,-0.544,-0.6602,-0.7095,-0.7095,-0.7095,-0.7095,-0.7095,-0.7095,-0.7095,-0.7095,-0.7095,-0.7095,-0.7095,-0.7095,-0.7095,-0.7095,0.0,0.0,0.0,0.0,0.0,0.0,0.0,0.0,0.0,0.0,0.0,0.0,0.0,0.0,0.0,0.0,0.0,0.0,0.0,0.0,0.0,0.0,0.0,0.0,0.0,0.0,0.0,0.0,0.0,0.0,0.0,0.0,0.0,0.0,0.0,0.0,0.0,0.0,0.0,0.0,0.0,0.0,0.0,0.0,0.0,0.0,0.0,0.0,0.0,0.0,0.0,0.0,0.0,0.0,-0.0135,-0.0873,-0.1173,-0.1474,0.0,0.0,0.0,0.0,0.0,0.0,0.0,0.0,0.0,-0.2577,-0.2871,-0.3085,-0.3085,-0.2968,-0.2851,-0.2851,-0.2695,-0.2578,-0.2578,-0.2578,-0.2578,-0.2578,-0.2578,-0.2578,-0.2578,-0.2578,-0.2601,-0.2733,-0.2737,-0.2882,-0.3228,-0.3273,-0.3314,-0.3519,-0.3519,-0.3526,-0.3582,-0.3564,-0.3562,-0.3619,-0.3605,-0.3602,-0.3659,-0.562,-0.6605,-0.6827,-0.6827,-0.6918,-0.7095,-0.7095,-0.7095,-0.7095,-0.7095,-0.7095,-0.7095,-0.7095,-0.7095,-0.7095,0.0,0.0,0.0,0.0,0.0,0.0,0.0,0.0,0.0,0.0,0.0,0.0,0.0,0.0,0.0,0.0,0.0,0.0,0.0,0.0,0.0,0.0,0.0,0.0,0.0,0.0,0.0,0.0,0.0,0.0,0.0,0.0,0.0,0.0,0.0,0.0,0.0,0.0,0.0,0.0,0.0,0.0,0.0,0.0,0.0,0.0,0.0,0.0,0.0,0.0,0.0,0.0,0.0,0.0,-0.0034,-0.0135,-0.0706,-0.134,0.0,0.0,0.0,0.0,0.0,0.0,0.0,0.0,0.0,0.0,-0.2342,-0.3085,-0.3085,-0.2386,-0.1802,-0.1802,-0.1019,-0.0431,-0.0431,-0.0431,-0.0431,-0.0431,-0.0431,-0.0431,-0.0431,-0.0431,-0.0432,-0.0433,-0.0434,-0.0868,-0.1819,-0.1859,-0.2252,-0.3154,-0.3154,-0.3266,-0.3415,-0.3385,-0.3426,-0.3621,-0.3615,-0.3599,-0.3614,-0.3926,-0.4641,-0.5625,-0.5625,-0.6204,-0.7095,-0.7095,-0.7095,-0.7095,-0.7095,-0.7095,-0.7095,-0.7095,-0.7095,-0.7095,0.0,0.0,0.0,0.0,0.0,0.0,0.0,0.0,0.0,0.0,0.0,0.0,0.0,0.0,0.0,0.0,0.0,0.0,0.0,0.0,0.0,0.0,0.0,0.0,0.0,0.0,0.0,0.0,0.0,0.0,0.0,0.0,0.0,0.0,0.0,0.0,0.0,0.0,0.0,0.0,0.0,0.0,0.0,0.0,0.0,0.0,0.0,0.0,0.0,0.0,0.0,0.0,0.0,0.0,0.0,0.0,0.0,0.0,0.0,0.0,0.0,0.0,0.0,0.0,0.0,0.0,0.0,-0.0498,-0.099,-0.1364,-0.1364,-0.1019,-0.0706,-0.0706,-0.0314,0.0,0.0,0.0,0.0,0.0,0.0,0.0,0.0,0.0,0.0,0.0,0.0,-0.0196,-0.0667,-0.0706,-0.0902,-0.1331,-0.137,-0.1416,-0.1511,-0.1451,-0.1478,-0.1595,-0.1569,-0.1594,-0.1583,-0.1583,-0.2608,-0.4374,-0.4374,-0.5043,-0.616,-0.616,-0.6517,-0.7095,-0.7095,-0.7095,-0.7095,-0.7095,-0.7095,-0.7095,0.0,0.0,0.0,0.0,0.0,0.0,0.0,0.0,0.0,0.0,0.0,0.0,0.0,0.0,0.0,0.0,0.0,0.0,0.0,0.0,0.0,0.0,0.0,0.0,0.0,0.0,0.0,0.0,0.0,0.0,0.0,0.0,0.0,0.0,0.0,0.0,0.0,0.0,0.0,0.0,0.0,0.0,0.0,0.0,0.0,0.0,0.0,0.0,0.0,0.0,0.0,0.0,0.0,0.0,0.0,0.0,0.0,0.0,0.0,0.0,0.0,0.0,0.0,0.0,0.0,0.0,0.0,0.0,0.0,0.0,0.0,0.0,0.0,0.0,0.0,0.0,0.0,0.0,0.0,0.0,0.0,0.0,0.0,0.0,0.0,0.0,0.0,0.0,0.0,0.0,0.0,0.0,0.0,0.0,0.0,0.0,0.0,0.0,0.0,0.0,0.0,0.0,-0.1002,-0.2704,-0.3029,-0.3838,-0.4956,-0.4956,-0.5445,-0.6201,-0.6201,-0.6381,-0.665,-0.665,-0.6874,-0.7095,0.0,0.0,0.0,0.0,0.0,0.0,0.0,0.0,0.0,0.0,0.0,0.0,0.0,0.0,0.0,0.0,0.0,0.0,0.0,0.0,0.0,0.0,0.0,0.0,0.0,0.0,0.0,0.0,0.0,0.0,0.0,0.0,0.0,0.0,0.0,0.0,0.0,0.0,0.0,0.0,0.0,0.0,0.0,0.0,0.0,0.0,0.0,0.0,0.0,0.0,0.0,0.0,0.0,0.0,0.0,0.0,0.0,0.0,0.0,0.0,0.0,0.0,0.0,0.0,0.0,0.0,0.0,0.0,0.0,0.0,0.0,0.0,0.0,0.0,0.0,0.0,0.0,0.0,0.0,0.0,0.0,0.0,0.0,0.0,0.0,0.0,0.0,0.0,0.0,0.0,0.0,0.0,0.0,0.0,0.0,0.0,0.0,0.0,0.0,0.0,0.0,0.0,-0.0085,-0.0262,-0.1377,-0.2592,-0.3703,-0.3703,-0.3748,-0.3792,-0.3792,-0.4463,-0.5492,-0.5492,-0.616,-0.7095,0.0,0.0,0.0,0.0,0.0,0.0,0.0,0.0,0.0,0.0,0.0,0.0,0.0,0.0,0.0,0.0,0.0,0.0,0.0,0.0,0.0,0.0,0.0,0.0,0.0,0.0,0.0,0.0,0.0,0.0,0.0,0.0,0.0,0.0,0.0,0.0,0.0,0.0,0.0,0.0,0.0,0.0,0.0,0.0,0.0,0.0,0.0,0.0,0.0,0.0,0.0,0.0,0.0,0.0,0.0,0.0,0.0,0.0,0.0,0.0,0.0,0.0,0.0,0.0,0.0,0.0,0.0,0.0,0.0,0.0,0.0,0.0,0.0,0.0,0.0,0.0,0.0,0.0,0.0,0.0,0.0,0.0,0.0,0.0,0.0,0.0,0.0,0.0,0.0,0.0,0.0,0.0,0.0,0.0,0.0,0.0,0.0,0.0,0.0,0.0,0.0,0.0,0.0,-0.0043,-0.0436,-0.1327,-0.2458,-0.2458,-0.2903,-0.3614,-0.3614,-0.3883,-0.4239,-0.4239,-0.4999,-0.6027,0.0,0.0,0.0,0.0,0.0,0.0,0.0,0.0,0.0,0.0,0.0,0.0,0.0,0.0,0.0,0.0,0.0,0.0,0.0,0.0,0.0,0.0,0.0,0.0,0.0,0.0,0.0,0.0,0.0,0.0,0.0,0.0,0.0,0.0,0.0,0.0,0.0,0.0,0.0,0.0,0.0,0.0,0.0,0.0,0.0,0.0,0.0,0.0,0.0,0.0,0.0,0.0,0.0,0.0,0.0,0.0,0.0,0.0,0.0,0.0,0.0,0.0,0.0,0.0,0.0,0.0,0.0,0.0,0.0,0.0,0.0,0.0,0.0,0.0,0.0,0.0,0.0,0.0,0.0,0.0,0.0,0.0,0.0,0.0,0.0,0.0,0.0,0.0,0.0,0.0,0.0,0.0,0.0,0.0,0.0,0.0,0.0,0.0,0.0,0.0,0.0,0.0,0.0,0.0,0.0,-0.0476,-0.1197,-0.1207,-0.1656,-0.2413,-0.2413,-0.2637,-0.2992,-0.2992,-0.3749,-0.4776,0.0,0.0,0.0,0.0,0.0,0.0,0.0,0.0,0.0,0.0,0.0,0.0,0.0,0.0,0.0,0.0,0.0,0.0,0.0,0.0,0.0,0.0,0.0,0.0,0.0,0.0,0.0,0.0,0.0,0.0,0.0,0.0,0.0,0.0,0.0,0.0,0.0,0.0,0.0,0.0,0.0,0.0,0.0,0.0,0.0,0.0,0.0,0.0,0.0,0.0,0.0,0.0,0.0,0.0,0.0,0.0,0.0,0.0,0.0,0.0,0.0,0.0,0.0,0.0,0.0039,0.0,0.0,0.0,0.0,0.0,0.0,0.0,0.0,0.0,0.0,0.0,0.0,0.0,0.0,0.0,0.0,0.0,0.0,0.0,0.0,0.0,0.0,0.0,0.0,0.0,0.0,0.0,0.0,0.0,0.0,0.0,0.0,0.0,0.0,0.0,0.0,0.0,0.0,0.0,0.0,0.0,0.0,0.0,0.0,0.0,0.0,-0.0718,-0.1746,-0.1746,-0.2503,-0.3525,0.0,0.0,0.0,0.0,0.0,0.0,0.1978,0.0854,0.0,0.0,0.0,0.0,0.0,0.0,0.0,0.0,0.0,0.0,0.0,0.0,0.0,0.0,0.0,0.0,0.0,0.0,0.0,0.0,0.0,0.0,0.0,0.0,0.0,0.0,0.0,0.0,0.0,0.0,0.0,0.0,0.0,0.0,0.0,0.0,0.0,0.0,0.0,0.0,0.0,0.0,0.0,0.0,0.0,0.0,0.0,0.0,0.0,0.0,0.0,0.0,0.0,0.0,0.0,0.0,0.0,0.0,0.0,0.0,0.0,0.0,0.0,0.0,0.0,0.0,0.0,0.0,0.0,0.0,0.0,0.0,0.0,0.0,0.0,0.0,0.0,0.0,0.0,0.0,0.0,0.0,0.0,0.0,0.0,0.0,0.0,0.0,0.0,0.0,0.0,0.0,0.0,0.0,0.0,0.0,0.0,0.0,0.0,0.0,0.0,0.0,0.0,-0.0225,-0.0494,-0.0494,-0.1254,-0.228,0.0,0.0,0.0,0.0,0.0,0.0,0.1607,0.0706,0.0,0.0,0.0,0.0,0.0,0.0,0.0,0.0,0.0,0.0,0.0,0.0,0.0,0.0,0.0,0.0,0.0,0.0,0.0,0.0,0.0,0.0,0.0,0.0,0.0,0.0,0.0,0.0,0.0,0.0,0.0,0.0,0.0,0.0,0.0,0.0,0.0,0.0,0.0,0.0,0.0,0.0,0.0,0.0,0.0,0.0,0.0,0.0,0.0,0.0,0.0,0.0,0.0,0.0,0.0,0.0,0.1568,0.1098,0.0549,0.0079,0.0,0.0,0.0,0.0,0.0,0.0,0.0,0.0,0.0,0.0,0.0,0.0,0.0,0.0,0.0,0.0,0.0,0.0,0.0,0.0,0.0,0.0,0.0,0.0,0.0,0.0,0.0,0.0,0.0,0.0,0.0,0.0,0.0,0.0,0.0,0.0,0.0,0.0,0.0,0.0,0.0,0.0,0.0,0.0,0.0,0.0,-0.0449,-0.1031,0.0,0.0,0.0,0.2773,0.2034,0.1411,0.1411,0.0628,0.0,0.0,0.0,0.0,0.0,0.0,0.0,0.0,0.0,0.0,0.0,0.0,0.0,0.0,0.0,0.0,0.0,0.0,0.0,0.0,0.0,0.0,0.0,0.0,0.0,0.0,0.0,0.0,0.0,0.0,0.0,0.0,0.0,0.0,0.0,0.0,0.0,0.0,0.0,0.0,0.0,0.0,0.0,0.0,0.0,0.0,0.0,0.0,0.0745,0.0,0.0,0.0,0.0,0.0,0.0,0.0,0.2113,0.1841,0.1488,0.0549,0.0353,0.0353,0.0353,0.0353,0.0353,0.0353,0.0235,0.0118,0.0,0.0,0.0,0.0,0.0,0.0,0.0,0.0,0.0,0.0,0.0,0.0,0.0,0.0,0.0,0.0,0.0,0.0,0.0,0.0,0.0,0.0,0.0,0.0,0.0,0.0,0.0,0.0,0.0,0.0,0.0,0.0,0.0,0.0,0.0,0.0,0.0,0.0,0.0,0.0,0.0,0.0,0.0,0.0745,0.0431,0.0314,0.0314,0.0118,0.0,0.0,0.0,0.0,0.0,0.0,0.0,0.0,0.0,0.0,0.0,0.0,0.0,0.0,0.0,0.0,0.0,0.0,0.0,0.0,0.0,0.0,0.0,0.0,0.0,0.0,0.0,0.0,0.0,0.0,0.0,0.0,0.0,0.0,0.0,0.0,0.0,0.0,0.0,0.0,0.0,0.0,0.0,0.0,0.0,0.0,0.0,0.0,0.0,0.0,0.0,0.0,0.0,0.0,0.0,0.0,0.3945,0.3437,0.2734,0.254,0.25,0.25,0.25,0.25,0.25,0.25,0.1801,0.098,0.0118,0.0,0.0,0.0,0.0,0.0,0.0,0.0,0.0,0.0,0.0,0.0,0.0,0.0,0.0,0.0,0.0,0.0,0.0,0.0,0.0,0.0,0.0,0.0,0.0,0.0,0.0,0.0,0.0,0.0,0.0,0.0,0.0,0.0,0.0,0.0,0.0,0.0,0.0,0.0,0.0,0.0,0.0,0.0,0.0,0.0,0.0,0.0,0.0,0.0,0.0,0.0,0.0,0.0,0.0,0.0,0.0,0.0,0.0,0.0,0.0,0.0,0.0,0.0,0.0,0.0,0.0,0.0,0.0,0.0,0.0,0.0,0.0,0.0,0.0,0.0,0.0,0.0,0.0,0.0,0.0,0.0,0.0,0.0,0.0,0.0,0.0,0.0,0.0,0.0,0.0,0.0,0.0,0.0353,0.0784,0.0,0.1919,0.3127,0.0,0.0,0.0,0.5354,0.0,0.0,0.0,0.4295,0.3748,0.3202,0.3085,0.3085,0.3085,0.3085,0.3085,0.3085,0.2268,0.1606,0.1566,0.0666,0.0,0.0,0.0,0.0,0.0,0.0,0.0,0.0,0.0,0.0,0.0,0.0,0.0,0.0,0.0,0.0,0.0,0.0,0.0,0.0,0.0,0.0,0.0,0.0,0.0,0.0,0.0,0.0,0.0,0.0,0.0,0.0,0.0,0.0,0.0,0.0,0.0,0.0,0.0,0.0,0.0,0.0,0.0,0.0,0.0,0.0,0.0,0.0,0.0,0.0,0.0,0.0,0.0,0.0,0.0,0.0,0.0,0.0,0.0,0.0,0.0,0.0,0.0,0.0,0.0,0.0,0.0,0.0,0.0,0.0,0.0,0.0,0.0,0.0,0.0,0.0,0.0,0.0,0.0,0.0,0.0,0.0,0.0,0.0,0.0,0.0,0.0,0.0,0.0118,0.0314,0.0314,0.1019,0.0,0.0,0.0,0.0,0.0,0.0,0.0,0.0,0.0,0.6064,0.0,0.0,0.0,0.3904,0.3709,0.0,0.0,0.0,0.0,0.3647,0.0,0.0,0.0,0.1756,0.0,0.0546,0.0235,0.0077,0.022,0.0109,0.0,0.0,0.0,0.0,0.0,0.0,0.0,0.0,0.0,0.0,0.0,0.0,0.0,0.0,0.0,0.0,0.0,0.0,0.0,0.0,0.0,0.0,0.0,0.0,0.0,0.0,0.0,0.0,0.0,0.0,0.0,0.0,0.0209,0.0,0.0,0.0,0.0,0.0,0.0,0.0,0.0,0.0,0.0,0.0,0.0,0.0,0.0,0.0,0.0,0.0,0.0,0.0,0.0,0.0,0.0,0.0,0.0,0.0,0.0,0.0,0.0,0.0,0.0,0.0,0.0,0.0,0.0,0.0,0.0,0.0,0.0,0.0,0.0,0.0,0.0,0.0,0.0,0.0,0.0,0.0,0.0,0.0,0.0628,0.1411,0.0,0.2112,0.2929,0.2929,0.0,0.0,0.0,0.0,0.0,0.0,0.63,0.0,0.0,0.0,0.6103,0.5944,0.0,0.5944,0.0,0.0,0.0,0.0,0.0,0.0,0.436,0.3429,0.2713,0.2584,0.1044,0.0308,0.106,0.0464,0.0,0.0,0.0,0.0,0.0,0.0,0.0,0.0,0.0,0.0,0.0,0.0,0.0,0.0,0.0,0.0,0.0,0.0,0.0,0.0,0.0,0.0,0.0,0.0,0.0,0.0,0.0,0.0,0.0,0.0,0.0,0.0,0.0254,0.0,0.0,0.0,0.0,0.0,0.0,0.0,0.0,0.0,0.0,0.0,0.0,0.0,0.0,0.0,0.0,0.0,0.0,0.0,0.0,0.0,0.0,0.0,0.0,0.0,0.0,0.0,0.0,0.0,0.0,0.0,0.0,0.0,0.0,0.0,0.0,0.0,0.0,0.0,0.0,0.0,0.0,0.0,0.0,0.0,0.0,0.0392,0.0941,0.0,0.1605,0.0,0.0,0.0,0.0,0.0,0.0,0.0,0.0,0.0,0.0,0.0,0.0,0.0,0.63,0.0,0.63,0.0,0.0,0.0,0.0,0.0,0.0,0.0,0.5357,0.4905,0.0,0.0,0.3073,0.3006,0.2228,0.158,0.1321,0.0986,0.0554,0.0034,0.0476,0.0547,0.0034,0.0,0.0,0.0,0.0,0.0,0.0,0.0,0.0,0.0,0.0,0.0,0.0,0.0,0.0,0.0,0.0,0.0,0.0,0.0,0.0,0.0,0.0,0.0,0.0,0.0,0.0,0.0,0.1205,0.0,0.0,0.0,0.0,0.0,0.0,0.0,0.0,0.0,0.0,0.0,0.0,0.0,0.0,0.0,0.0,0.0,0.0,0.0,0.0,0.0,0.0,0.0,0.0,0.0,0.0,0.0,0.0,0.0,0.0,0.0,0.0,0.0,0.0,0.0,0.0,0.0,0.0,0.0,0.0,0.0,0.0,0.0,0.0,0.0039,0.0314,0.0941,0.1645,0.1919,0.2698,0.3552,0.3552,0.4256,0.5157,0.0,0.0,0.0,0.63,0.0,0.0,0.0,0.0,0.0,0.0,0.0,0.0,0.0,0.0,0.0,0.0,0.0,0.6286,0.6242,0.0,0.5381,0.6123,0.4938,0.0,0.3906,0.3521,0.2825,0.1789,0.1675,0.1313,0.0438,0.094,0.0906,0.0034,0.0,0.0,0.0,0.0,0.0,0.0,0.0,0.0,0.0,0.0,0.0,0.0,0.0,0.0,0.0,0.0,0.0,0.0,0.0,0.0,0.0,0.0,0.0,0.0,0.0,0.0,0.0,0.3742,0.1609,0.0,0.0,0.0,0.0,0.0,0.0,0.0,0.0,0.0,0.0,0.0,0.0,0.0,0.0,0.0,0.0,0.0,0.0,0.0,0.0,0.0,0.0,0.0,0.0,0.0,0.0,0.0,0.0,0.0,0.0,0.0,0.0,0.0,0.0,0.0,0.0,0.0,0.0,0.0,0.0,0.0,0.0,0.0,0.0118,0.1176,0.1568,0.1762,0.2735,0.3748,0.4647,0.4647,0.5392,0.6261,0.0,0.0,0.0,0.63,0.63,0.63,0.63,0.63,0.0,0.0,0.0,0.63,0.0,0.0,0.0,0.0,0.63,0.6248,0.6023,0.6162,0.0,0.0,0.0,0.0,0.5942,0.4871,0.0,0.2762,0.2651,0.2277,0.1344,0.1273,0.0906,0.0034,0.0,0.0,0.0,0.0,0.0,0.0,0.0,0.0,0.0,0.0,0.0,0.0,0.0,0.0,0.0,0.0,0.0,0.0,0.0,0.0,0.0,0.0,0.0,0.0,0.0,0.0,0.0,0.0,0.0,0.0,0.0,0.0,0.0,0.0,0.0,0.0,0.0,0.0,0.0,0.0,0.0,0.0,0.0,0.0,0.0,0.0,0.0,0.0,0.0,0.0,0.0,0.0,0.0,0.0,0.0,0.0,0.0,0.0,0.0,0.0,0.0,0.0,0.0,0.0,0.0,0.0,0.0,0.0,0.0,0.0,0.0,0.0432,0.1097,0.1489,0.2465,0.3711,0.4062,0.4882,0.5747,0.5747,0.6022,0.63,0.63,0.63,0.63,0.63,0.63,0.63,0.63,0.63,0.63,0.63,0.0,0.0,0.0,0.0,0.0,0.0,0.63,0.6282,0.6193,0.6265,0.6282,0.0,0.6265,0.6242,0.0,0.0,0.0,0.0,0.3036,0.2312,0.1376,0.1307,0.0906,0.0034,0.0,0.0,0.0,0.0,0.0,0.0,0.0,0.0,0.0,0.0,0.0,0.0,0.0,0.0,0.0,0.0,0.0,0.0,0.0,0.0,0.0,0.0,0.0,0.0,0.0,0.0,0.0,0.6027,0.0,0.0,0.0,0.0,0.0,0.0,0.0,0.0,0.0,0.0,0.0,0.0,0.0,0.0,0.0,0.0,0.0,0.0,0.0,0.0,0.0,0.0,0.0,0.0,0.0,0.0,0.0,0.0,0.0,0.0,0.0,0.0,0.0,0.0,0.0,0.0,0.0,0.0,0.0,0.0,0.0243,0.0,0.056,0.0993,0.1704,0.2434,0.3556,0.4766,0.5157,0.5709,0.63,0.63,0.63,0.63,0.63,0.63,0.63,0.63,0.63,0.63,0.63,0.63,0.63,0.63,0.63,0.63,0.0,0.0,0.0,0.0,0.63,0.63,0.63,0.63,0.63,0.0,0.63,0.0,0.0,0.0,0.0,0.0,0.0,0.0,0.1966,0.1828,0.128,0.0068,0.0,0.0,0.0,0.0,0.0,0.0,0.0,0.0,0.0,0.0,0.0,0.0,0.0,0.0,0.0,0.0,0.0,0.0,0.0,0.0,0.0,0.0,0.0,0.0,0.0,0.0,0.0,0.0,0.0,0.0,0.0,0.0986,0.0,0.0,0.0,0.009,0.0,0.0,0.0,0.0,0.0,0.0,0.0,0.0,0.0,0.0,0.0,0.0,0.0,0.0,0.0,0.0,0.0,0.0,0.0,0.0,0.0,0.0,0.0,0.0,0.0,0.0,0.0,0.0,0.0,0.0,0.0,0.0084,0.0706,0.163,0.1749,0.179,0.2028,0.3984,0.4727,0.4924,0.5944,0.63,0.63,0.63,0.63,0.63,0.63,0.63,0.63,0.63,0.63,0.63,0.63,0.63,0.63,0.63,0.63,0.63,0.63,0.63,0.0,0.0,0.63,0.63,0.63,0.63,0.63,0.63,0.0,0.6245,0.0,0.0,0.0,0.0,0.0,0.0,0.0,0.2799,0.0,0.0,0.0069,0.0034,0.0,0.0,0.0,0.0,0.0,0.0,0.0,0.0,0.0,0.0,0.0,0.0,0.0,0.0,0.0,0.0,0.0,0.0,0.0,0.0,0.0,0.0,0.0,0.0,0.0,0.7095,0.616,0.5225,0.0,0.3484,0.237,0.0,0.0,0.0,0.0,0.0,0.0,0.0,0.0,0.0,0.0,0.0,0.0,0.0,0.0,0.0,0.0,0.0,0.0,0.0,0.0,0.0,0.0,0.0,0.0,0.0,0.0,0.0,0.0,0.0,0.0,0.0,0.0,0.0,0.0084,0.0966,0.1521,0.1915,0.3591,0.4191,0.4265,0.4587,0.5198,0.5944,0.6222,0.63,0.63,0.63,0.63,0.63,0.63,0.63,0.63,0.63,0.63,0.63,0.63,0.63,0.63,0.63,0.63,0.63,0.63,0.63,0.63,0.63,0.63,0.63,0.63,0.63,0.0,0.0,0.0,0.0,0.6245,0.0,0.0,0.0,0.0,0.0,0.0,0.3236,0.0,0.1259,0.1054,0.0664,0.0036,0.0,0.0,0.0,0.0,0.0,0.0,0.0,0.0,0.0,0.0,0.0,0.0,0.0,0.0,0.0,0.0,0.0,0.0,0.0,0.0,0.0,0.0,0.0,0.0,0.7095,0.0,0.0,0.616,0.0,0.0,0.2058,0.1344,0.0,0.009,0.0,0.0,0.0,0.0,0.0,0.0,0.0,0.0,0.0,0.0,0.0,0.0,0.0,0.0,0.0,0.0,0.0,0.0,0.0,0.0,0.0,0.0,0.0,0.0,0.0,0.0,0.0,0.0,0.0307,0.0865,0.1511,0.2376,0.0,0.4648,0.54,0.5768,0.5635,0.5924,0.6392,0.6392,0.6351,0.63,0.63,0.63,0.63,0.63,0.63,0.63,0.63,0.63,0.63,0.63,0.63,0.63,0.63,0.63,0.63,0.63,0.63,0.63,0.63,0.63,0.63,0.0,0.0,0.0,0.0,0.0,0.0,0.0,0.6183,0.0,0.0,0.0,0.0,0.0,0.3782,0.2894,0.1524,0.1347,0.0885,0.0036,0.0,0.0,0.0,0.0,0.0,0.0,0.0,0.0,0.0,0.0,0.0,0.0,0.0,0.0,0.0,0.0,0.0,0.0,0.0,0.0,0.0,0.0,0.0,0.0,0.0,0.0,0.0,0.0,0.0,0.0,0.0,0.1031,0.0,0.0,0.0,0.0,0.0,0.0,0.0,0.0,0.0,0.0,0.0,0.0,0.0,0.0,0.0,0.0,0.0,0.0,0.0,0.0,0.0,0.0,0.0,0.0,0.0,0.0,0.0,0.0,0.0,0.0,0.0718,0.1835,0.1969,0.3269,0.5165,0.5295,0.5923,0.6759,0.6759,0.6647,0.6538,0.6518,0.6429,0.6323,0.6306,0.63,0.63,0.63,0.63,0.63,0.63,0.63,0.63,0.63,0.63,0.63,0.63,0.63,0.63,0.63,0.63,0.63,0.63,0.63,0.63,0.0,0.0,0.0,0.0,0.0,0.0,0.0,0.0,0.0,0.729,0.6445,0.5609,0.4955,0.461,0.3624,0.1831,0.157,0.1104,0.0221,0.0074,0.0,0.0,0.0,0.0,0.0,0.0,0.0,0.0,0.0,0.0,0.0,0.0,0.0,0.0,0.0,0.0,0.0,0.0,0.0,0.0,0.0,0.0,0.0,0.0,0.0,0.0,0.0,0.0,0.3792,0.3349,0.2281,0.1121,0.0135,0.0,0.0,0.0,0.0,0.0,0.0,0.0,0.0,0.0,0.0,0.0,0.0,0.0,0.0,0.0,0.0,0.0,0.0,0.0,0.0,0.0,0.0,0.0,0.0,0.0,0.0,0.0,0.0,0.0,0.1879,0.2903,0.4098,0.5461,0.6392,0.6866,0.7018,0.7018,0.6892,0.6641,0.6555,0.6497,0.6453,0.6337,0.63,0.63,0.63,0.63,0.63,0.63,0.63,0.63,0.63,0.63,0.63,0.63,0.63,0.63,0.63,0.63,0.63,0.63,0.63,0.63,0.63,0.63,0.0,0.0,0.0,0.0,0.0,0.0,0.6363,0.6489,0.635,0.6435,0.0,0.0,0.511,0.4155,0.3067,0.2101,0.1352,0.0465,0.0,0.0,0.0,0.0,0.0,0.0,0.0,0.0,0.0,0.0,0.0,0.0,0.0,0.0,0.0,0.0,0.0,0.0,0.0,0.0,0.0,0.0,0.0,0.0,0.0,0.0,0.0,0.0,0.0,0.0,0.1626,0.0635,0.009,0.0,0.0,0.0,0.0,0.0,0.0,0.0,0.0,0.0,0.0,0.0,0.0,0.0,0.0,0.0,0.0,0.0,0.0,0.0,0.0,0.0,0.0,0.0,0.0,0.0,0.0,0.0,0.0,0.1612,0.286,0.4063,0.5223,0.6337,0.6871,0.7095,0.7095,0.7095,0.7004,0.6905,0.6759,0.6658,0.6566,0.6457,0.6409,0.6395,0.632,0.63,0.63,0.63,0.63,0.63,0.63,0.63,0.63,0.63,0.63,0.63,0.63,0.63,0.63,0.63,0.63,0.63,0.63,0.63,0.0,0.0,0.0,0.0,0.0,0.0,0.0,0.0,0.0,0.0,0.0,0.0,0.5532,0.4632,0.397,0.3236,0.2422,0.1895,0.1615,0.1615,0.1077,0.0847,0.0809,0.0273,0.0,0.0,0.0,0.0,0.0,0.0,0.0,0.0,0.0,0.0,0.0,0.0,0.0,0.0,0.0,0.0,0.0,0.0,0.6435,0.0,0.0,0.3493,0.1791,0.1807,0.078,0.0,0.0,0.0,0.0,0.0,0.0,0.0,0.0,0.0,0.0,0.0,0.0,0.0,0.0,0.0,0.0,0.0,0.0,0.0,0.0,0.0,0.0,0.0,0.0,0.0,0.0,0.0,0.0,0.009,0.1299,0.2503,0.3703,0.491,0.6071,0.7095,0.7095,0.7095,0.7095,0.7095,0.7095,0.7078,0.6967,0.6832,0.6722,0.6569,0.6538,0.6491,0.6378,0.6323,0.63,0.63,0.63,0.63,0.63,0.63,0.63,0.63,0.63,0.63,0.63,0.63,0.63,0.63,0.63,0.63,0.63,0.63,0.63,0.0,0.0,0.0,0.0,0.0,0.0,0.7403,0.6756,0.6248,0.6088,0.601,0.5663,0.493,0.4643,0.4185,0.3472,0.3224,0.3099,0.31,0.2297,0.1802,0.1595,0.0744,0.0236,0.0,0.0,0.0,0.0,0.0,0.0,0.0,0.0,0.0,0.0,0.0,0.0,0.0,0.0,0.0,0.0,0.0,0.0,0.0,0.0,0.0,0.1799,0.1796,0.0797,0.0,0.0,0.0,0.0,0.0,0.0,0.0,0.0,0.0,0.0,0.0,0.0,0.0,0.0,0.0,0.0,0.0,0.0,0.0,0.0,0.0,0.0,0.0,0.0,0.0,0.0,0.0,0.0,0.009,0.1299,0.2503,0.3703,0.491,0.6071,0.7095,0.7095,0.7095,0.7095,0.7095,0.7095,0.7095,0.7082,0.698,0.6839,0.6725,0.6583,0.6511,0.6497,0.6402,0.63,0.63,0.63,0.63,0.63,0.63,0.63,0.63,0.63,0.63,0.63,0.63,0.63,0.63,0.63,0.63,0.63,0.63,0.63,0.63,0.0,0.63,0.63,0.0,0.0,0.6412,0.6338,0.6293,0.6279,0.6108,0.6054,0.6115,0.5109,0.4531,0.4567,0.3624,0.3086,0.3106,0.3008,0.2507,0.1592,0.1513,0.0941,0.0,0.0,0.0,0.0,0.0,0.0,0.0,0.0,0.0,0.0,0.0,0.0,0.0,0.0,0.0,0.0,0.0,0.0,0.5843,0.5774,0.361,0.1906,0.1931,0.0814,0.0,0.0,0.0,0.0,0.0,0.0,0.0,0.0,0.0,0.0,0.0,0.0,0.0,0.0,0.0,0.0,0.0,0.0,0.0,0.0,0.0,0.0,0.0,0.0,0.0,0.0,0.0,0.0404,0.1165,0.237,0.3573,0.4776,0.5935,0.6694,0.7095,0.7095,0.7095,0.7095,0.7095,0.7095,0.7095,0.7095,0.7058,0.6987,0.6881,0.6797,0.6709,0.6566,0.647,0.6409,0.6323,0.63,0.63,0.63,0.63,0.63,0.63,0.63,0.63,0.63,0.63,0.63,0.63,0.63,0.63,0.63,0.63,0.63,0.63,0.0,0.0,0.63,0.0,0.0,0.0,0.63,0.63,0.63,0.6242,0.6235,0.6296,0.5851,0.5611,0.5667,0.5237,0.5018,0.501,0.4392,0.3848,0.3467,0.2801,0.2267,0.1838,0.1254,0.0628,0.0,0.0,0.0,0.0,0.0,0.0,0.0,0.0,0.0,0.0,0.0,0.0,0.0,0.7821,0.681,0.5992,0.5927,0.4087,0.258,0.2595,0.1464,0.0593,0.0593,0.0244,0.0,0.0,0.0,0.0,0.0,0.0,0.0,0.0,0.0,0.0,0.0,0.0,0.0,0.0,0.0,0.0,0.0,0.0,0.0,0.0,0.0,0.0,0.0,0.0359,0.0986,0.1924,0.3484,0.4641,0.5492,0.665,0.7095,0.7095,0.7095,0.7095,0.7095,0.7095,0.7095,0.7095,0.7095,0.7095,0.7078,0.6977,0.692,0.6846,0.6671,0.6542,0.6491,0.6388,0.633,0.63,0.63,0.63,0.63,0.63,0.63,0.63,0.63,0.63,0.63,0.63,0.63,0.63,0.63,0.63,0.63,0.63,0.63,0.0,0.63,0.63,0.63,0.63,0.63,0.63,0.63,0.63,0.63,0.63,0.63,0.63,0.63,0.63,0.63,0.63,0.555,0.5002,0.4686,0.3943,0.3396,0.3085,0.2074,0.1176,0.0471,0.0119,0.0,0.0,0.0,0.0,0.0,0.0,0.0,0.0,0.0,0.022,0.0528,0.7841,0.6837,0.5973,0.5805,0.4774,0.3961,0.3959,0.2831,0.1962,0.1962,0.0806,0.0,0.0,0.0,0.0,0.0,0.0,0.0,0.0,0.0,0.0,0.0,0.0,0.0,0.0,0.0,0.0,0.0,0.0,0.0,0.0,0.0,0.0,0.0045,0.1254,0.179,0.1969,0.4376,0.5403,0.5492,0.665,0.7095,0.7095,0.7095,0.7095,0.7095,0.7095,0.7095,0.7095,0.7095,0.7095,0.7095,0.7095,0.6997,0.6886,0.6879,0.6709,0.6511,0.6511,0.6409,0.63,0.63,0.63,0.63,0.63,0.63,0.63,0.63,0.63,0.63,0.63,0.63,0.63,0.63,0.63,0.63,0.63,0.63,0.0,0.63,0.63,0.63,0.63,0.63,0.0,0.0,0.63,0.63,0.63,0.63,0.63,0.63,0.63,0.63,0.63,0.63,0.5747,0.4688,0.4686,0.4139,0.3085,0.2074,0.1607,0.153,0.0442,0.0,0.0,0.0,0.0,0.0,0.0,0.0,0.0,0.0,0.0762,0.179,0.7928,0.7618,0.7356,0.7309,0.6248,0.5379,0.5379,0.4203,0.3364,0.3364,0.2213,0.136,0.136,0.0552,0.0,0.0,0.0,0.0,0.0,0.0,0.0,0.0,0.0,0.0,0.0,0.0,0.0,0.0,0.0,0.0,0.0,0.0,0.0449,0.1254,0.1612,0.2727,0.4287,0.509,0.5849,0.6605,0.6962,0.7095,0.7095,0.7095,0.7095,0.7095,0.7095,0.7095,0.7095,0.7095,0.7095,0.7095,0.7095,0.7065,0.7011,0.6913,0.6861,0.6736,0.6569,0.6477,0.6422,0.6323,0.63,0.63,0.63,0.63,0.63,0.63,0.63,0.63,0.63,0.63,0.63,0.63,0.63,0.63,0.63,0.63,0.63,0.63,0.63,0.63,0.63,0.63,0.63,0.63,0.63,0.63,0.63,0.63,0.63,0.63,0.63,0.63,0.63,0.63,0.6141,0.5786,0.5786,0.5237,0.4181,0.3934,0.3445,0.2687,0.1684,0.1245,0.1165,0.0341,0.0,0.0086,0.0924,0.1242,0.1331,0.2141,0.2681,0.3037,0.7988,0.7988,0.7988,0.7988,0.7285,0.6731,0.6731,0.5625,0.477,0.477,0.3566,0.2764,0.2764,0.1561,0.0551,0.0049,0.0,0.0,0.0,0.0,0.0,0.0,0.0,0.0,0.0,0.0,0.0,0.0,0.0,0.0,0.0,0.0449,0.1076,0.1835,0.2727,0.3976,0.5447,0.5849,0.6428,0.7095,0.7095,0.7095,0.7095,0.7095,0.7095,0.7095,0.7095,0.7095,0.7095,0.7095,0.7095,0.7095,0.7095,0.7095,0.7078,0.6991,0.6927,0.6846,0.6695,0.6603,0.6522,0.6416,0.6378,0.6364,0.6313,0.63,0.63,0.63,0.63,0.63,0.63,0.63,0.63,0.63,0.63,0.63,0.63,0.63,0.63,0.63,0.63,0.63,0.63,0.63,0.63,0.63,0.63,0.63,0.63,0.63,0.63,0.63,0.63,0.63,0.63,0.63,0.63,0.63,0.6354,0.6018,0.5387,0.5109,0.463,0.3938,0.2898,0.2461,0.2381,0.1176,0.066,0.0749,0.1514,0.179,0.1924,0.317,0.3881,0.4283,0.7988,0.7988,0.7988,0.7988,0.7988,0.7988,0.7988,0.6933,0.6129,0.6129,0.497,0.4116,0.4116,0.2966,0.165,0.0394,0.0098,0.0,0.0,0.0,0.0,0.0,0.0,0.0,0.0,0.0,0.0,0.0,0.0,0.0045,0.0135,0.1254,0.1879,0.2148,0.4376,0.5447,0.5581,0.665,0.7095,0.7095,0.7095,0.7095,0.7095,0.7095,0.7095,0.7095,0.7095,0.7095,0.7095,0.7095,0.7095,0.7095,0.7095,0.7095,0.7095,0.7095,0.7004,0.69,0.6889,0.6824,0.6678,0.6566,0.6518,0.6477,0.6344,0.6306,0.63,0.63,0.63,0.63,0.63,0.63,0.63,0.63,0.63,0.63,0.63,0.63,0.63,0.63,0.63,0.63,0.63,0.63,0.63,0.63,0.63,0.63,0.63,0.63,0.63,0.63,0.63,0.63,0.63,0.63,0.6306,0.6317,0.646,0.6528,0.6491,0.5603,0.5238,0.5163,0.4167,0.3734,0.3651,0.2439,0.1924,0.1924,0.2013,0.2058,0.2191,0.3393,0.4552,0.5536,0.7988,0.7988,0.7988,0.7988,0.7988,0.7988,0.7988,0.7739,0.7537,0.7537,0.6379,0.5525,0.5525,0.432,0.3409,0.3095,0.1201,0.0,0.0,0.0,0.0,0.0,0.0,0.0,0.0,0.0,0.0,0.0,0.0,0.0494,0.1389,0.1656,0.2772,0.4556,0.5134,0.5891,0.6694,0.7007,0.7095,0.7095,0.7095,0.7095,0.7095,0.7095,0.7095,0.7095,0.7095,0.7095,0.7095,0.7095,0.7095,0.7095,0.7095,0.7095,0.7095,0.7095,0.7071,0.7021,0.6916,0.6859,0.6837,0.6685,0.6559,0.6504,0.647,0.6378,0.63,0.63,0.63,0.63,0.63,0.63,0.63,0.63,0.63,0.63,0.63,0.63,0.63,0.63,0.63,0.63,0.63,0.63,0.63,0.63,0.63,0.63,0.63,0.63,0.63,0.63,0.63,0.63,0.63,0.63,0.6354,0.6463,0.6573,0.6647,0.6651,0.6548,0.6485,0.6406,0.5403,0.4965,0.4879,0.3653,0.317,0.326,0.4196,0.4554,0.4688,0.5844,0.647,0.6694,0.7988,0.7988,0.7988,0.7988,0.7988,0.7988,0.7988,0.7988,0.7988,0.7988,0.7385,0.6933,0.6933,0.5724,0.492,0.492,0.2465,0.0903,0.0894,0.0345,0.0,0.0,0.0,0.0,0.0,0.0,0.0,0.0,0.0,0.0628,0.179,0.237,0.3618,0.5403,0.5938,0.6517,0.7095,0.7095,0.7095,0.7095,0.7095,0.7095,0.7095,0.7095,0.7095,0.7095,0.7095,0.7095,0.7095,0.7095,0.7095,0.7095,0.7095,0.7492,0.7929,0.7929,0.7533,0.721,0.7693,0.7415,0.6947,0.6841,0.6692,0.6559,0.6528,0.6453,0.6378,0.6313,0.63,0.63,0.63,0.63,0.63,0.63,0.63,0.63,0.63,0.63,0.63,0.63,0.63,0.63,0.63,0.63,0.63,0.63,0.63,0.63,0.63,0.63,0.63,0.63,0.63,0.633,0.6395,0.6467,0.6502,0.6576,0.6732,0.6803,0.681,0.6916,0.698,0.6944,0.6398,0.616,0.6071,0.4907,0.4419,0.4508,0.5134,0.5403,0.5536,0.6694,0.7095,0.7095,0.7988,0.7988,0.7988,0.7988,0.7988,0.7988,0.7988,0.7988,0.7988,0.7988,0.7988,0.7988,0.7988,0.6983,0.6282,0.6282,0.4019,0.2515,0.2314,0.124,0.0492,0.0294,0.0285,0.0186,0.0,0.0,0.0,0.0,0.0,0.0628,0.1835,0.3037,0.4239,0.5447,0.6605,0.7095,0.7095,0.7095,0.7095,0.7095,0.7095,0.7095,0.7095,0.7095,0.7095,0.7095,0.7095,0.7095,0.7095,0.7095,0.7228,0.736,0.736,0.8189,0.9148,0.9148,0.8452,0.7837,0.8886,0.8404,0.7588,0.7501,0.7344,0.7229,0.713,0.6918,0.6741,0.6631,0.6447,0.6323,0.6303,0.63,0.63,0.63,0.63,0.63,0.63,0.63,0.63,0.63,0.63,0.63,0.63,0.63,0.63,0.63,0.63,0.63,0.63,0.632,0.633,0.633,0.633,0.6402,0.6545,0.6658,0.6736,0.6736,0.6846,0.6916,0.692,0.7041,0.7095,0.7095,0.7095,0.7095,0.7007,0.6071,0.5669,0.5669,0.5669,0.5669,0.5761,0.6738,0.7095,0.7095,0.7988,0.7988,0.7988,0.7988,0.7988,0.7988,0.7988,0.7988,0.7988,0.7988,0.7988,0.7988,0.7988,0.7839,0.7686,0.7686,0.6279,0.4922,0.3765,0.3506,0.2881,0.1763,0.1703,0.1156,0.0047,0.0,0.0,0.0,0.0,0.0628,0.1835,0.3037,0.4239,0.5447,0.6605,0.7095,0.7095,0.7095,0.7095,0.7095,0.7095,0.7095,0.7095,0.7095,0.7095,0.7095,0.7095,0.7095,0.7095,0.7095,0.7797,0.8627,0.8627,0.9405,1.0351,1.0351,1.0178,1.0091,1.0308,1.0178,1.0038,1.0053,0.9922,0.9837,0.9802,0.8923,0.8064,0.793,0.7149,0.6443,0.6323,0.63,0.63,0.63,0.63,0.63,0.63,0.63,0.63,0.63,0.63,0.63,0.63,0.63,0.63,0.63,0.63,0.63,0.63,0.6412,0.6477,0.6477,0.6477,0.6552,0.6664,0.6817,0.6852,0.6852,0.6994,0.7061,0.7065,0.7085,0.7095,0.7095,0.7095,0.7095,0.7095,0.6918,0.6827,0.6827,0.6827,0.6827,0.6874,0.7051,0.7095,0.7095,0.7988,0.7988,0.7988,0.7988,0.7988,0.7988,0.7988,0.7988,0.7988,0.7988,0.7988,0.7988,0.7988,0.7988,0.7988,0.7988,0.7437,0.683,0.6174,0.4818,0.3401,0.2036,0.2016,0.1358,0.0048,0.0,0.0,0.0,0.0,0.0951,0.2769,0.3347,0.455,0.6337,0.6874,0.7095,0.7095,0.7095,0.7095,0.7095,0.7095,0.7095,0.7095,0.7095,0.7095,0.7095,0.7095,0.7095,0.7095,0.7095,0.7885,0.889,0.889,1.0096,1.1509,1.1509,1.1509,1.1381,1.0783,1.1042,1.1381,1.0735,1.053,1.0508,1.0428,0.99,0.9444,0.9285,0.8358,0.7463,0.734,0.6806,0.6388,0.6313,0.63,0.63,0.63,0.63,0.63,0.63,0.63,0.63,0.63,0.63,0.63,0.63,0.6371,0.6416,0.6416,0.6555,0.6597,0.6597,0.6675,0.6753,0.6824,0.6927,0.7001,0.7001,0.7065,0.7095,0.7095,0.7095,0.7095,0.7095,0.7095,0.7095,0.7095,0.7095,0.7095,0.7095,0.7095,0.7095,0.7095,0.7095,0.7095,0.7095,0.7988,0.7988,0.7988,0.7988,0.7988,0.7988,0.7988,0.7988,0.7988,0.7988,0.7988,0.7988,0.7988,0.7988,0.7988,0.7988,0.7988,0.7988,0.7988,0.6071,0.4318,0.2966,0.2627,0.2001,0.0959,0.0911,0.076,0.0466,0.0791,0.1705,0.3262,0.3785,0.5034,0.6742,0.6976,0.7095,0.7095,0.7095,0.7095,0.7095,0.7095,0.7095,0.7095,0.7095,0.7095,0.7095,0.7095,0.7095,0.7139,0.7404,0.8321,0.9323,0.9623,1.1085,1.2723,1.2723,1.2723,1.2547,1.1649,1.2035,1.2504,1.1649,1.1391,1.1385,1.1284,1.1025,1.0789,1.0653,0.9493,0.841,0.8271,0.7323,0.6528,0.6419,0.6371,0.6351,0.6351,0.632,0.63,0.63,0.63,0.63,0.63,0.633,0.6351,0.6351,0.6484,0.6566,0.6566,0.6671,0.677,0.6803,0.6842,0.6903,0.6933,0.7041,0.7095,0.7095,0.7095,0.7095,0.7095,0.7095,0.7095,0.7095,0.7095,0.7095,0.7095,0.7095,0.7095,0.7095,0.7095,0.7095,0.7095,0.7095,0.7095,0.7095,0.7988,0.7988,0.7988,0.7988,0.7988,0.7988,0.7988,0.7988,0.7988,0.7988,0.7988,0.7988,0.7988,0.7988,0.7988,0.7988,0.7988,0.7988,0.7988,0.7836,0.7083,0.5777,0.4512,0.3826,0.3709,0.3709,0.3095,0.1852,0.3081,0.3173,0.2178,0.4408,0.5562,0.5743,0.6665,0.7095,0.7095,0.7095,0.7095,0.7095,0.7095,0.7095,0.7095,0.7095,0.7095,0.7095,0.7095,0.7095,0.7272,0.8408,0.9536,1.0654,1.1724,1.2942,1.3955,1.3955,1.3955,1.3955,1.387,1.3913,1.3955,1.387,1.3828,1.3822,1.3844,1.2953,1.2101,1.1987,1.0215,0.861,0.8414,0.7454,0.6678,0.6671,0.6549,0.6497,0.6497,0.6381,0.63,0.63,0.63,0.63,0.63,0.6419,0.6497,0.6497,0.6597,0.6681,0.6681,0.6827,0.693,0.7058,0.695,0.695,0.7078,0.7092,0.7095,0.7095,0.7095,0.7095,0.7095,0.7095,0.7095,0.7095,0.7095,0.7095,0.7095,0.7095,0.7095,0.7095,0.7095,0.7095,0.7095,0.7095,0.7095,0.7095,0.7988,0.7988,0.7988,0.7988,0.7988,0.7988,0.7988,0.7988,0.7988,0.7988,0.7988,0.7988,0.7988,0.7988,0.7988,0.7988,0.7988,0.7988,0.7988,0.7988,0.7385,0.6079,0.4718,0.4004,0.3976,0.3976,0.3744,0.3242,0.3773,0.4131,0.4364,0.5319,0.6147,0.6855,0.7217,0.7373,0.7285,0.7285,0.7227,0.7095,0.7095,0.7095,0.7095,0.7095,0.7095,0.7095,0.7095,0.7095,0.7183,0.7621,0.858,0.9749,1.0869,1.2035,1.3118,1.3864,1.4088,1.4088,1.4088,1.4088,1.4088,1.4088,1.4088,1.4088,1.4088,1.3737,1.3396,1.3336,1.2066,1.0879,1.0735,0.9778,0.8953,0.8878,0.8183,0.7656,0.7557,0.6896,0.6429,0.6429,0.6429,0.647,0.6525,0.6583,0.6614,0.6614,0.6756,0.6844,0.6844,0.6937,0.7041,0.7095,0.7045,0.7041,0.7095,0.7095,0.7095,0.7095,0.7095,0.7095,0.7095,0.7095,0.7095,0.7095,0.7095,0.7095,0.7095,0.7095,0.7095,0.7095,0.7095,0.7095,0.7095,0.7095,0.7095,0.7095,0.7988,0.7988,0.7988,0.7988,0.7988,0.7988,0.7988,0.7988,0.7988,0.7988,0.7988,0.7988,0.7988,0.7988,0.7988,0.7988,0.7988,0.7988,0.7988,0.7988,0.7587,0.6681,0.5722,0.527,0.527,0.527,0.504,0.4636,0.5027,0.5482,0.5891,0.6239,0.6893,0.7665,0.7617,0.7543,0.7444,0.7444,0.738,0.7233,0.7231,0.7214,0.7207,0.7112,0.7095,0.7095,0.7095,0.7095,0.7228,0.7965,0.875,0.971,1.1219,1.2254,1.3027,1.3864,1.4088,1.4088,1.4088,1.4088,1.4088,1.4088,1.4088,1.4088,1.4088,1.4088,1.4088,1.4088,1.316,1.2275,1.2194,1.1226,1.0417,1.0352,0.9601,0.8855,0.8405,0.7615,0.698,0.6623,0.6546,0.6583,0.6692,0.6746,0.6773,0.6773,0.6869,0.6953,0.6953,0.7045,0.7095,0.7095,0.7095,0.7095,0.7095,0.7095,0.7095,0.7095,0.7095,0.7095,0.7095,0.7095,0.7095,0.7095,0.7095,0.7095,0.7095,0.7095,0.7095,0.7095,0.7095,0.7095,0.7095,0.7095,0.7095,0.7088,0.7988,0.7988,0.7988,0.7988,0.7988,0.7988,0.7988,0.7988,0.7988,0.7988,0.7988,0.7988,0.7988,0.7988,0.7988,0.7988,0.7988,0.7988,0.7988,0.7988,0.7988,0.7988,0.7988,0.7988,0.7988,0.7988,0.7335,0.6029,0.7335,0.7335,0.6027,0.7244,0.7814,0.7807,0.7665,0.7604,0.76,0.76,0.76,0.7587,0.7434,0.7419,0.7402,0.7204,0.7098,0.7098,0.7098,0.7098,0.7448,0.9792,1.0572,1.1004,1.3349,1.4095,1.4095,1.4088,1.4088,1.4088,1.4088,1.4088,1.4088,1.4088,1.4088,1.4088,1.4088,1.4088,1.4088,1.4088,1.316,1.2328,1.2328,1.1381,1.0611,1.0611,1.0508,1.0026,0.8899,0.8567,0.8,0.6864,0.6702,0.6702,0.6705,0.6841,0.6886,0.6886,0.7018,0.7095,0.7095,0.7095,0.7095,0.7095,0.7095,0.7095,0.7095,0.7095,0.7095,0.7095,0.7095,0.7095,0.7095,0.7095,0.7095,0.7095,0.7095,0.7095,0.7095,0.7095,0.7095,0.7095,0.7095,0.7095,0.7095,0.7095,0.7095,0.7075,0.7988,0.7988,0.7988,0.7988,0.7988,0.7988,0.7988,0.7988,0.7988,0.7988,0.7988,0.7988,0.7988,0.7988,0.7988,0.7988,0.7988,0.7988,0.7988,0.7988,0.7988,0.7988,0.7988,0.7988,0.7988,0.7988,0.7789,0.7385,0.7789,0.7789,0.7434,0.7793,0.7921,0.7921,0.7877,0.7848,0.7746,0.7746,0.7692,0.7597,0.755,0.7533,0.7526,0.7478,0.7461,0.7461,0.7461,0.7461,0.7689,0.9312,0.9849,1.0257,1.2707,1.4065,1.4707,1.4456,1.4389,1.4349,1.4142,1.4088,1.4088,1.4088,1.4088,1.4088,1.4088,1.4088,1.4088,1.4088,1.3822,1.3555,1.3555,1.33,1.3039,1.3039,1.2317,1.1598,1.1144,1.0346,0.9678,0.9345,0.8606,0.8159,0.824,0.7527,0.7034,0.7034,0.7071,0.7095,0.7095,0.7095,0.7095,0.7095,0.7095,0.7095,0.7095,0.7095,0.7095,0.7095,0.7095,0.7095,0.7095,0.7095,0.7095,0.7095,0.7095,0.7095,0.7095,0.7095,0.7095,0.7095,0.7095,0.7095,0.7095,0.7095,0.7034,0.6943,0.7988,0.7988,0.7988,0.7988,0.7988,0.7988,0.7988,0.7988,0.7988,0.7988,0.7988,0.7988,0.7988,0.7988,0.7988,0.7988,0.7988,0.7988,0.7988,0.7988,0.7988,0.7988,0.7988,0.7988,0.7988,0.7988,0.7988,0.7988,0.7988,0.7988,0.7988,0.7988,0.7988,0.7988,0.7988,0.7938,0.7899,0.7899,0.7851,0.777,0.7706,0.7682,0.7678,0.7621,0.76,0.76,0.76,0.7922,0.8563,0.9802,1.0859,1.196,1.3438,1.4411,1.4975,1.475,1.4696,1.4656,1.4482,1.4479,1.4402,1.4289,1.4175,1.4088,1.4088,1.4088,1.4088,1.4088,1.4088,1.4088,1.4088,1.4088,1.4088,1.4088,1.347,1.2802,1.2254,1.159,1.0995,1.053,0.9478,0.8806,0.8877,0.7797,0.7095,0.7095,0.7095,0.7095,0.7095,0.7095,0.7095,0.7095,0.7095,0.7095,0.7095,0.7095,0.7095,0.7095,0.7095,0.7095,0.7095,0.7095,0.7095,0.7095,0.7095,0.7095,0.7095,0.7095,0.7095,0.7095,0.7095,0.7095,0.7095,0.7095,0.7007,0.6876,0.7988,0.7988,0.7988,0.7988,0.7988,0.7988,0.7988,0.7988,0.7988,0.7988,0.7988,0.7988,0.7988,0.7988,0.7988,0.7988,0.7988,0.7988,0.7988,0.7988,0.7988,0.7988,0.7988,0.7988,0.7988,0.7988,0.7988,0.7988,0.7988,0.7988,0.7988,0.7988,0.7988,0.7988,0.7988,0.7988,0.7988,0.7988,0.7988,0.7978,0.7889,0.7831,0.7818,0.7689,0.7638,0.7638,0.7779,0.8562,0.9757,1.1056,1.3094,1.5082,1.5082,1.5082,1.5082,1.5055,1.5048,1.5042,1.5015,1.5008,1.4941,1.4629,1.4362,1.4155,1.4095,1.4088,1.4088,1.4088,1.4088,1.4088,1.4088,1.4088,1.4088,1.4088,1.4088,1.3737,1.2632,1.2456,1.2072,1.1042,0.9879,0.9192,0.9192,0.8013,0.7228,0.7095,0.7095,0.7095,0.7095,0.7095,0.7095,0.7095,0.7095,0.7095,0.7095,0.7095,0.7095,0.7095,0.7095,0.7095,0.7095,0.7095,0.7095,0.7095,0.7095,0.7095,0.7095,0.7095,0.7095,0.7095,0.7095,0.7095,0.7095,0.7082,0.6987,0.6842,0.7988,0.7988,0.7988,0.7988,0.7988,0.7988,0.7988,0.7988,0.7988,0.7988,0.7988,0.7988,0.7988,0.7988,0.7988,0.7988,0.7988,0.7988,0.7988,0.7988,0.7988,0.7988,0.7988,0.7988,0.7988,0.7988,0.7988,0.7988,0.7988,0.7988,0.7988,0.7988,0.7988,0.7988,0.7988,0.7988,0.7988,0.7988,0.7988,0.7985,0.7955,0.7941,0.7938,0.7904,0.7894,0.8041,0.9108,0.9636,1.0259,1.256,1.4341,1.5645,1.5645,1.5645,1.5598,1.5364,1.5304,1.5251,1.5068,1.5008,1.4995,1.4928,1.4867,1.47,1.4195,1.4088,1.4088,1.4088,1.4088,1.4088,1.4088,1.4088,1.4088,1.4088,1.4088,1.3997,1.3737,1.3688,1.3603,1.3392,1.2291,1.1552,1.1552,0.9705,0.8101,0.7183,0.7095,0.7095,0.7095,0.7095,0.7095,0.7095,0.7095,0.7095,0.7095,0.7095,0.7095,0.7095,0.7095,0.7095,0.7095,0.7095,0.7095,0.7095,0.7095,0.7095,0.7095,0.7095,0.7095,0.7095,0.7095,0.7095,0.7082,0.697,0.6836,0.6712,0.7988,0.7988,0.7988,0.7988,0.7988,0.7988,0.7988,0.7988,0.7988,0.7988,0.7988,0.7988,0.7988,0.7988,0.7988,0.7988,0.7988,0.7988,0.7988,0.7988,0.7988,0.7988,0.7988,0.7988,0.7988,0.7988,0.7988,0.7988,0.7988,0.7988,0.7988,0.7988,0.7988,0.7988,0.7988,0.7988,0.7988,0.7988,0.7988,0.7988,0.7988,0.7988,0.7988,0.7988,0.8382,0.9069,0.9752,1.0823,1.2178,1.4124,1.5242,1.5784,1.5784,1.5784,1.5751,1.5651,1.5605,1.5571,1.5418,1.5378,1.5344,1.5204,1.517,1.505,1.4646,1.4396,1.4295,1.4295,1.4182,1.4088,1.4088,1.4088,1.4088,1.4088,1.4088,1.4088,1.4088,1.4088,1.4088,1.4088,1.3027,1.2109,1.1552,0.9923,0.8627,0.8017,0.7448,0.7095,0.7095,0.7095,0.7095,0.7095,0.7095,0.7095,0.7095,0.7095,0.7095,0.7095,0.7095,0.7095,0.7095,0.7095,0.7095,0.7095,0.7095,0.7095,0.7095,0.7095,0.7095,0.7095,0.7095,0.7095,0.7078,0.694,0.6787,0.6559,0.7988,0.7988,0.7988,0.7988,0.7988,0.7988,0.7988,0.7988,0.7988,0.7988,0.7988,0.7988,0.7988,0.7988,0.7988,0.7988,0.7988,0.7988,0.7988,0.7988,0.7988,0.7988,0.7988,0.7988,0.7988,0.7988,0.7988,0.7988,0.7988,0.7988,0.7988,0.7988,0.7988,0.7988,0.7988,0.7988,0.7988,0.7988,0.7988,0.7988,0.7988,0.7988,0.8038,0.8237,0.9019,1.0047,1.0534,1.2178,1.4411,1.5439,1.5784,1.5784,1.5784,1.5784,1.5784,1.5784,1.5784,1.5784,1.5784,1.5784,1.5772,1.5531,1.5471,1.5404,1.5209,1.4843,1.4596,1.4596,1.4362,1.4162,1.4162,1.4122,1.4088,1.4088,1.4088,1.4088,1.4088,1.4088,1.4088,1.4088,1.3209,1.2157,1.0994,0.9879,0.9104,0.8934,0.7797,0.7095,0.7095,0.7095,0.7095,0.7095,0.7095,0.7095,0.7095,0.7095,0.7095,0.7095,0.7095,0.7095,0.7095,0.7095,0.7095,0.7095,0.7095,0.7095,0.7095,0.7095,0.7095,0.7095,0.7095,0.7082,0.7041,0.6869,0.6675,0.646,0.7988,0.7988,0.7988,0.7988,0.7988,0.7988,0.7988,0.7988,0.7988,0.7988,0.7988,0.7988,0.7988,0.7988,0.7988,0.7988,0.7988,0.7988,0.7988,0.7988,0.7988,0.7988,0.7988,0.7988,0.7988,0.7988,0.7988,0.7988,0.7988,0.7988,0.7988,0.7988,0.7988,0.7988,0.7988,0.7988,0.7988,0.7988,0.7988,0.7988,0.7988,0.7988,0.8137,0.9266,0.985,1.0293,1.2571,1.4316,1.5581,1.573,1.5784,1.5784,1.5784,1.5784,1.5784,1.5784,1.5784,1.5784,1.5784,1.5784,1.5771,1.5731,1.5772,1.5758,1.5718,1.5291,1.4948,1.4948,1.4669,1.4462,1.4462,1.4255,1.4088,1.4088,1.4088,1.4088,1.4088,1.4088,1.4088,1.4088,1.3955,1.3379,1.22,1.1037,0.9966,0.8978,0.7797,0.7095,0.7095,0.7095,0.7095,0.7095,0.7095,0.7095,0.7095,0.7095,0.7095,0.7095,0.7095,0.7095,0.7095,0.7095,0.7095,0.7095,0.7095,0.7095,0.7095,0.7095,0.7095,0.7095,0.7095,0.7021,0.6879,0.6637,0.647,0.6327,1.019,1.019,0.9948,0.9266,0.9118,0.8871,0.8137,0.7988,0.7988,0.7988,0.7988,0.7988,0.7988,0.7988,0.7988,0.7988,0.7988,0.7988,0.7988,0.7988,0.7988,0.7988,0.7988,0.7988,0.7988,0.7988,0.7988,0.7988,0.7988,0.7988,0.7988,0.7988,0.7988,0.7988,0.7988,0.7988,0.7988,0.7988,0.7988,0.7988,0.7988,0.7988,0.8088,0.8676,0.9361,1.0337,1.2952,1.4704,1.5784,1.5784,1.5784,1.5784,1.5784,1.5784,1.5784,1.5784,1.5784,1.5784,1.5784,1.5784,1.5784,1.5784,1.5784,1.5784,1.5784,1.5631,1.5398,1.5237,1.497,1.477,1.477,1.4663,1.4522,1.4355,1.4329,1.4269,1.4108,1.4088,1.4088,1.4088,1.4088,1.3913,1.3336,1.2248,1.108,0.9923,0.8755,0.7797,0.7139,0.7095,0.7095,0.7095,0.7095,0.7095,0.7095,0.7095,0.7095,0.7095,0.7095,0.7095,0.7095,0.7095,0.7095,0.7095,0.7095,0.7095,0.7095,0.7095,0.7095,0.7095,0.7095,0.6957,0.6773,0.6552,0.6422,0.63]}]]